Date StartTime U_cm/s V_cm/s W_cm/s Ustd_cm/s Vstd_cm/s Wstd_cm/s Uvar_(cm/s)^2 Vvar_(cm/s)^2 Wvar_(cm/s)^2 KE_(m/s)^2 TurbulentKE_(m/s)^2 HorizWindSpeed_cm/s FrictionSpeec_cm/s DragCoef SpeedOfSound_m/s SonicTemperature_C Pressure_mb 
08/12/2014  00:00:00      -30.176      -36.066       -4.743       29.815       17.350       10.594      888.921      301.035      112.229        0.177        0.065       47.025        7.908        0.028      342.830       18.513      863.191
08/12/2014  00:01:00        9.356      -59.305       -6.256       24.329       28.832       15.700      591.888      831.309      246.478        0.266        0.083       60.039       10.240        0.029      342.848       18.544      863.223
08/12/2014  00:02:00      -21.012      -28.374        5.435       26.264       19.183       16.466      689.794      367.974      271.132        0.130        0.066       35.307       15.472        0.192      342.816       18.492      863.240
08/12/2014  00:03:00      -57.020      -16.214       -3.109       15.908       17.537        8.587      253.069      307.540       73.743        0.208        0.032       59.281        8.081        0.019      342.900       18.634      863.225
08/12/2014  00:04:00      -91.447       18.257       -8.623       22.699       19.965        9.813      515.257      398.619       96.299        0.489        0.051       93.252        8.039        0.007      342.918       18.664      863.201
08/12/2014  00:05:00      -97.923        0.663      -14.504       16.636       13.894        9.257      276.753      193.053       85.697        0.518        0.028       97.925        6.647        0.005      342.864       18.574      863.202
08/12/2014  00:06:00     -107.647      -28.698       -5.235       28.703       15.853       10.259      823.891      251.321      105.251        0.681        0.059      111.406       10.067        0.008      342.832       18.516      863.225
08/12/2014  00:07:00     -110.832      -52.978       -1.733       39.410       21.711       14.203     1553.171      471.360      201.717        0.866        0.111      122.843       12.275        0.010      342.851       18.550      863.236
08/12/2014  00:08:00     -130.690      -32.851      -11.129       25.558       17.271       14.071      653.203      298.278      197.985        0.972        0.057      134.755       14.170        0.011      342.815       18.487      863.220
08/12/2014  00:09:00     -122.787      -20.954       -7.633       28.188       21.816       17.324      794.548      475.959      300.134        0.857        0.079      124.562       14.496        0.014      342.710       18.309      863.209
08/12/2014  00:10:00     -116.180       -3.277       -6.204       53.867       38.562       27.421     2901.651     1486.996      751.936        0.934        0.257      116.227       28.776        0.061      342.650       18.206      863.218
08/12/2014  00:11:00     -108.926       -6.199       -0.784       34.224       32.428       20.145     1171.249     1051.553      405.821        0.727        0.131      109.103       17.014        0.024      342.633       18.178      863.237
08/12/2014  00:12:00      -79.652       -4.342        2.698       51.952       37.446       23.981     2699.029     1402.180      575.080        0.552        0.234       79.770       30.315        0.144      342.630       18.173      863.243
08/12/2014  00:13:00      -54.514        4.310       -3.307       31.638       28.740       16.806     1000.946      826.001      282.446        0.255        0.105       54.684       17.732        0.105      342.648       18.205      863.246
08/12/2014  00:14:00     -113.275       16.767       -9.288       54.624       31.402       22.557     2983.750      986.068      508.835        0.884        0.224      114.510       24.172        0.045      342.682       18.262      863.263
08/12/2014  00:15:00      -98.131       -4.867       -8.347       38.653       34.695       19.436     1494.018     1203.757      377.771        0.640        0.154       98.252       15.709        0.026      342.679       18.257      863.294
08/12/2014  00:16:00      -39.456       -4.740        7.881       35.834       30.461       23.902     1284.102      927.889      571.311        0.221        0.139       39.740       23.288        0.343      342.635       18.182      863.322
08/12/2014  00:17:00        0.072      -34.341        2.117       16.311       26.950       13.192      266.036      726.321      174.034        0.117        0.058       34.341       14.921        0.189      342.779       18.427      863.335
08/12/2014  00:18:00      -32.633      -11.293      -15.832       23.611       28.796        8.237      557.464      829.183       67.842        0.145        0.073       34.532       10.390        0.091      342.753       18.385      863.362
08/12/2014  00:19:00      -31.028       -3.260       -2.007       25.922       13.997       11.216      671.952      195.906      125.805        0.099        0.050       31.198       12.069        0.150      342.740       18.361      863.373
08/12/2014  00:20:00      -48.803      -30.973       -9.804       20.079       19.894       18.395      403.180      395.787      338.379        0.229        0.057       57.802       14.128        0.060      342.682       18.262      863.363
08/12/2014  00:21:00      -71.466        9.374      -14.646       17.430       11.775        9.723      303.817      138.657       94.544        0.297        0.027       72.078        4.867        0.005      342.620       18.158      863.354
08/12/2014  00:22:00      -48.518       42.372      -14.576       14.223       22.871       10.398      202.301      523.098      108.127        0.260        0.042       64.416       10.899        0.029      342.988       18.783      863.352
08/12/2014  00:23:00      -30.673       42.625       -8.206       22.039       20.965       12.665      485.714      439.535      160.400        0.196        0.054       52.514       11.006        0.044      343.036       18.864      863.361
08/12/2014  00:24:00        0.242       39.405        1.877       16.796       23.139       11.498      282.114      535.422      132.194        0.125        0.047       39.406       10.922        0.077      343.143       19.047      863.377
08/12/2014  00:25:00       15.240       30.856       -1.512       16.148       18.256       15.461      260.757      333.283      239.052        0.101        0.042       34.415       13.471        0.153      343.256       19.238      863.409
08/12/2014  00:26:00       -9.239        1.507        3.782       26.362       16.722        8.157      694.962      279.621       66.536        0.057        0.052        9.361        7.064        0.569      343.077       18.937      863.405
08/12/2014  00:27:00      -48.980       -1.911       -9.931        9.757        9.773        7.040       95.191       95.508       49.558        0.137        0.012       49.017        4.888        0.010      342.769       18.409      863.375
08/12/2014  00:28:00      -54.290        6.308       -8.866        7.654       13.450        6.332       58.584      180.896       40.097        0.167        0.014       54.655        3.439        0.004      342.776       18.421      863.342
08/12/2014  00:29:00      -44.097        6.498       -5.658       16.071       27.518        9.954      258.279      757.258       99.086        0.157        0.056       44.574        8.882        0.040      342.851       18.550      863.339
08/12/2014  00:30:00      -22.602      -22.725       -5.650       12.236       13.971       11.114      149.720      195.194      123.526        0.076        0.023       32.052        7.285        0.052      342.722       18.329      863.348
08/12/2014  00:31:00      -43.009      -20.732       -5.506       12.149       12.377        8.378      147.593      153.195       70.195        0.134        0.019       47.745        1.474        0.001      342.609       18.139      863.356
08/12/2014  00:32:00      -59.932       -3.838      -13.295       10.409       17.471        8.424      108.351      305.249       70.961        0.213        0.024       60.054        4.792        0.006      342.662       18.228      863.366
08/12/2014  00:33:00      -70.988       -3.553      -10.051       24.877       25.378       13.640      618.875      644.055      186.061        0.330        0.072       71.077       11.228        0.025      342.533       18.009      863.361
08/12/2014  00:34:00     -108.476       27.801      -18.698       29.615       17.710       14.748      877.021      313.641      217.508        0.715        0.070      111.982       13.307        0.014      342.491       17.939      863.335
08/12/2014  00:35:00      -84.688       39.930      -19.637       18.765       17.540       12.206      352.117      307.648      148.990        0.498        0.040       93.630       11.895        0.016      342.685       18.268      863.317
08/12/2014  00:36:00      -69.941       40.224      -11.544       20.494       23.486       15.885      420.002      551.593      252.320        0.393        0.061       80.683       16.379        0.041      342.778       18.426      863.314
08/12/2014  00:37:00      -65.981      -19.950      -11.227       14.188       16.838       14.573      201.299      283.512      212.380        0.279        0.035       68.930        9.748        0.020      342.582       18.093      863.336
08/12/2014  00:38:00      -78.909      -34.832      -10.413       29.780       17.704       16.887      886.856      313.426      285.184        0.452        0.074       86.254       12.882        0.022      342.490       17.935      863.359
08/12/2014  00:39:00      -59.218      -31.561       -3.026       43.044       24.821       17.457     1852.748      616.085      304.736        0.364        0.139       67.103       18.585        0.077      342.461       17.887      863.362
08/12/2014  00:40:00      -41.322      -36.433       -5.575       31.334       20.269       17.789      981.823      410.846      316.460        0.239        0.085       55.089       13.380        0.059      342.475       17.910      863.351
08/12/2014  00:41:00      -62.367      -10.221       -7.337       12.734       14.203        9.677      162.161      201.718       93.642        0.225        0.023       63.199        5.648        0.008      342.503       17.957      863.337
08/12/2014  00:42:00      -45.608        4.716       -2.734       34.380       25.565       16.469     1182.012      653.593      271.228        0.211        0.105       45.851       19.371        0.178      342.421       17.820      863.330
08/12/2014  00:43:00      -95.237        3.785      -11.736       41.453       24.407       21.104     1718.329      595.701      445.373        0.599        0.138       95.312       17.907        0.035      342.499       17.950      863.325
08/12/2014  00:44:00      -86.035       -0.949      -13.366       42.384       24.189       23.697     1796.394      585.108      561.553        0.526        0.147       86.040       22.054        0.066      342.556       18.047      863.316
08/12/2014  00:45:00     -129.584       27.379      -11.533       36.132       22.165       19.772     1305.517      491.270      390.917        0.993        0.109      132.445       15.528        0.014      342.687       18.270      863.314
08/12/2014  00:46:00     -108.093        2.791      -12.620       44.390       24.053       13.817     1970.449      578.539      190.916        0.729        0.137      108.129       15.500        0.021      342.716       18.321      863.329
08/12/2014  00:47:00      -74.383       59.356      -18.311       24.696       61.087       24.406      609.881     3731.598      595.659        0.716        0.247       95.163       27.971        0.086      342.852       18.550      863.347
08/12/2014  00:48:00      -57.681       95.765      -10.991       28.432       37.128       20.814      808.382     1378.521      433.206        0.762        0.131      111.794       13.768        0.015      342.945       18.710      863.347
08/12/2014  00:49:00        3.923       89.280       -3.145       37.183       34.013       18.529     1382.545     1156.908      343.334        0.544        0.144       89.366       18.398        0.042      343.081       18.942      863.355
08/12/2014  00:50:00       34.282       39.392       -1.132       24.376       30.257       17.857      594.189      915.470      318.883        0.228        0.091       52.221       18.693        0.128      343.008       18.816      863.376
08/12/2014  00:51:00       29.848       60.213        0.680       27.496       32.098       24.579      756.012     1030.288      604.138        0.345        0.120       67.205       18.284        0.074      342.991       18.788      863.387
08/12/2014  00:52:00       22.796       57.710       -7.869       17.533       22.878       11.916      307.413      523.416      141.984        0.244        0.049       62.049        9.769        0.025      342.873       18.586      863.388
08/12/2014  00:53:00       25.044       77.610      -12.925       15.520       23.245        8.744      240.876      540.320       76.459        0.384        0.043       81.550        6.294        0.006      342.963       18.740      863.387
08/12/2014  00:54:00       16.287       70.332      -10.986       13.157       21.520        8.632      173.098      463.109       74.517        0.302        0.036       72.193        8.151        0.013      342.957       18.731      863.389
08/12/2014  00:55:00       -7.010       88.633      -10.906       11.307       13.357        6.693      127.845      178.412       44.797        0.419        0.018       88.909        5.051        0.003      343.061       18.907      863.396
08/12/2014  00:56:00       -9.142       71.358      -13.138       15.381       11.022        6.105      236.590      121.487       37.272        0.287        0.020       71.941        7.881        0.012      343.077       18.934      863.386
08/12/2014  00:57:00      -39.533       31.397       -6.856       20.645       31.510       10.301      426.231      992.911      106.116        0.206        0.076       50.484       10.311        0.042      342.986       18.780      863.363
08/12/2014  00:58:00      -62.351       16.804       -7.401        9.347        7.365        7.582       87.373       54.238       57.487        0.221        0.010       64.576        3.687        0.003      342.963       18.741      863.335
08/12/2014  00:59:00      -57.736       44.449      -14.766       14.933       21.698       11.019      222.999      470.788      121.424        0.317        0.041       72.864       11.194        0.024      343.127       19.019      863.321
08/12/2014  01:00:00      -53.587       55.151      -15.901       11.591       13.193        7.381      134.360      174.042       54.478        0.326        0.018       76.897        5.516        0.005      343.182       19.113      863.312
08/12/2014  01:01:00      -53.442       50.141      -12.950       16.221       29.395       13.822      263.126      864.087      191.054        0.343        0.066       73.281       12.785        0.030      343.123       19.014      863.300
08/12/2014  01:02:00      -51.861        4.538       -5.643       12.709       18.348       11.810      161.509      336.645      139.471        0.169        0.032       52.059        8.895        0.029      343.051       18.890      863.278
08/12/2014  01:03:00      -57.980       -4.881       -8.828       10.972       12.015        7.422      120.394      144.354       55.087        0.189        0.016       58.185        5.484        0.009      342.959       18.735      863.274
08/12/2014  01:04:00      -75.943      -20.698       -4.750       18.103       11.538        9.970      327.730      133.132       99.402        0.339        0.028       78.713        5.488        0.005      342.845       18.539      863.264
08/12/2014  01:05:00      -89.166       -1.913      -13.407       22.602       26.120       14.269      510.842      682.242      203.591        0.477        0.070       89.186       10.480        0.014      342.667       18.237      863.253
08/12/2014  01:06:00      -97.710       -3.527      -17.405       25.119       18.049       14.993      630.984      325.769      224.788        0.552        0.059       97.774       10.737        0.012      342.830       18.513      863.257
08/12/2014  01:07:00      -92.547        4.315      -12.491       20.647       21.706       15.355      426.310      471.134      235.774        0.494        0.057       92.648       10.452        0.013      342.851       18.550      863.255
08/12/2014  01:08:00      -81.106      -13.436       -7.079       31.398       21.442       15.856      985.846      459.764      251.408        0.425        0.085       82.211        9.239        0.013      342.775       18.420      863.249
08/12/2014  01:09:00      -64.667       -7.058      -10.703       30.311       18.108       13.483      918.769      327.902      181.778        0.289        0.071       65.051       13.028        0.040      342.757       18.390      863.248
08/12/2014  01:10:00      -47.602       -5.418       -5.858       19.532       19.469       10.712      381.503      379.052      114.738        0.160        0.044       47.910        7.245        0.023      342.788       18.443      863.252
08/12/2014  01:11:00      -64.659       18.467       -6.152       22.387       15.004       11.967      501.160      225.106      143.203        0.271        0.043       67.245        3.462        0.003      342.924       18.672      863.265
08/12/2014  01:12:00      -78.343       14.952       -9.153       18.519       18.007       13.346      342.953      324.255      178.108        0.364        0.042       79.757       11.063        0.019      343.026       18.849      863.270
08/12/2014  01:13:00      -73.678        6.125      -12.235       17.211       13.657       10.420      296.203      186.526      108.580        0.310        0.030       73.932        8.606        0.014      342.851       18.550      863.253
08/12/2014  01:14:00      -65.206       21.507      -10.523       20.188       37.355       13.284      407.545     1395.360      176.453        0.340        0.099       68.661       13.758        0.040      342.924       18.675      863.247
08/12/2014  01:15:00      -61.914       -3.470      -10.286       25.623       24.372       11.337      656.540      594.013      128.529        0.266        0.069       62.011       11.931        0.037      342.835       18.523      863.257
08/12/2014  01:16:00      -83.604      -27.990       -8.624       32.040       14.327       16.489     1026.573      205.254      271.889        0.468        0.075       88.165       17.866        0.041      342.874       18.589      863.278
08/12/2014  01:17:00      -43.635      -15.074        1.651       21.528       16.901       14.911      463.450      285.642      222.346        0.155        0.049       46.165        7.552        0.027      342.743       18.365      863.302
08/12/2014  01:18:00      -59.014      -10.969       -9.637       12.319        9.153        6.916      151.770       83.779       47.830        0.199        0.014       60.025        5.786        0.009      342.711       18.309      863.311
08/12/2014  01:19:00      -65.378       -1.726       -9.089        9.047        8.352        6.943       81.846       69.755       48.200        0.228        0.010       65.401        3.124        0.002      342.720       18.327      863.309
08/12/2014  01:20:00      -62.160       10.351      -11.901       15.376       14.125        9.409      236.413      199.521       88.524        0.232        0.026       63.016        7.566        0.014      342.763       18.401      863.301
08/12/2014  01:21:00      -59.481        9.920       -4.274       18.818       12.497       11.897      354.126      156.184      141.545        0.215        0.033       60.303       11.294        0.035      342.837       18.525      863.293
08/12/2014  01:22:00      -61.093       41.828      -11.711       26.044       31.383       14.182      678.304      984.891      201.135        0.374        0.093       74.041       12.834        0.030      342.947       18.713      863.307
08/12/2014  01:23:00      -53.585       69.908      -13.639       28.295       31.891       19.675      800.620     1017.035      387.102        0.507        0.110       88.082       16.927        0.037      343.083       18.944      863.322
08/12/2014  01:24:00      -47.990       91.561      -10.973       20.670       21.999       16.755      427.235      483.977      280.727        0.600        0.060      103.375       11.793        0.013      343.083       18.946      863.332
08/12/2014  01:25:00      -69.802       65.078      -16.700       17.568       22.588       11.175      308.645      510.225      124.887        0.516        0.047       95.433        9.980        0.011      343.023       18.843      863.326
08/12/2014  01:26:00      -78.839       58.319      -13.073       26.335       42.374       19.316      693.518     1795.587      373.101        0.632        0.143       98.065       23.446        0.057      342.998       18.801      863.333
08/12/2014  01:27:00      -22.301       76.318       -3.207       22.805       33.185       15.851      520.065     1101.221      251.245        0.410        0.094       79.510       17.239        0.047      343.056       18.900      863.347
08/12/2014  01:28:00        6.415       30.550       -0.801       16.481       14.075       11.715      271.615      198.119      137.239        0.079        0.030       31.216        5.914        0.036      343.083       18.945      863.349
08/12/2014  01:29:00       17.362       88.583      -13.097       23.403       25.567       11.867      547.721      653.686      140.831        0.483        0.067       90.268        9.819        0.012      343.193       19.134      863.340
08/12/2014  01:30:00        6.356      108.081      -16.150       17.009       21.746        7.823      289.320      472.901       61.207        0.640        0.041      108.268        3.785        0.001      343.168       19.090      863.328
08/12/2014  01:31:00      -26.176       83.538       -9.078       17.730       35.239       17.948      314.366     1241.779      322.137        0.481        0.094       87.543       20.979        0.057      343.206       19.154      863.318
08/12/2014  01:32:00        1.572       62.187       -8.757       22.153       16.550        7.713      490.752      273.892       59.498        0.239        0.041       62.206        4.038        0.004      343.108       18.987      863.324
08/12/2014  01:33:00       38.662       23.415       -1.519       24.924       19.368       12.665      621.185      375.137      160.404        0.160        0.058       45.200        5.633        0.016      342.952       18.724      863.344
08/12/2014  01:34:00       76.110       32.214       13.811       31.070       23.427       24.578      965.320      548.829      604.087        0.457        0.106       82.647       21.327        0.067      342.869       18.582      863.362
08/12/2014  01:35:00       74.430       63.978       37.294       34.333       30.511       31.116     1178.728      930.942      968.220        0.705        0.154       98.147       24.026        0.060      342.734       18.351      863.388
08/12/2014  01:36:00       54.228       51.956       43.975       41.075       33.609       33.965     1687.126     1129.583     1153.622        0.577        0.199       75.100       30.893        0.169      342.699       18.292      863.420
08/12/2014  01:37:00       57.340       39.151        1.694       20.573       14.581       14.910      423.236      212.616      222.298        0.284        0.043       69.431       10.845        0.024      342.888       18.613      863.434
08/12/2014  01:38:00       24.855       22.098        3.188       19.273       17.494       15.366      371.455      306.046      236.102        0.101        0.046       33.258       12.002        0.130      342.961       18.736      863.420
08/12/2014  01:39:00        5.040       19.733       -1.269       10.408       11.845        9.796      108.321      140.303       95.960        0.038        0.017       20.366        8.120        0.159      342.976       18.761      863.398
08/12/2014  01:40:00      -23.266       21.461       -2.473       17.613        8.657        5.727      310.205       74.950       32.797        0.071        0.021       31.652        4.364        0.019      342.915       18.659      863.380
08/12/2014  01:41:00      -58.658        7.979       -7.004        8.362        5.889        5.812       69.921       34.679       33.777        0.185        0.007       59.198        2.614        0.002      342.694       18.281      863.373
08/12/2014  01:42:00      -51.320        5.638       -9.045       13.198        6.512        5.609      174.177       42.409       31.458        0.150        0.012       51.629        4.689        0.008      342.729       18.340      863.368
08/12/2014  01:43:00      -77.016      -12.465       -9.354       12.291       11.035        8.936      151.062      121.765       79.857        0.326        0.018       78.019        5.434        0.005      342.655       18.216      863.361
08/12/2014  01:44:00      -56.322       -1.282       -6.483       24.677       17.032        9.797      608.976      290.105       95.985        0.211        0.050       56.337       10.375        0.034      342.488       17.935      863.348
08/12/2014  01:45:00     -118.618      -37.424      -15.651       11.370       13.961       11.191      129.288      194.903      125.230        0.808        0.022      124.382        8.427        0.005      342.542       18.023      863.330
08/12/2014  01:46:00     -106.940      -36.496       -4.645       18.964       19.115       13.809      359.642      365.396      190.682        0.685        0.046      112.996       10.263        0.008      342.464       17.893      863.304
08/12/2014  01:47:00      -94.973      -23.628       -2.696       28.172       15.873       15.368      793.637      251.951      236.191        0.543        0.064       97.868       14.861        0.023      342.407       17.795      863.274
08/12/2014  01:48:00      -87.353      -17.338       -3.773       31.236       24.811       20.760      975.674      615.600      430.969        0.498        0.101       89.057       19.792        0.049      342.362       17.720      863.237
08/12/2014  01:49:00     -134.673       -0.521       -6.929       37.517       24.434       19.804     1407.529      597.025      392.200        1.029        0.120      134.674       17.027        0.016      342.447       17.864      863.202
08/12/2014  01:50:00     -181.240       12.931      -21.628       30.058       23.234       15.559      903.491      539.807      242.071        1.758        0.084      181.701        7.348        0.002      342.648       18.203      863.173
08/12/2014  01:51:00     -185.951       20.065      -26.232       27.026       36.212       18.674      730.411     1311.288      348.731        1.903        0.120      187.031       13.198        0.005      342.615       18.148      863.148
08/12/2014  01:52:00     -148.451       51.377      -17.630       35.162       32.282       23.079     1236.397     1042.128      532.644        1.390        0.141      157.090        7.188        0.002      342.653       18.213      863.132
08/12/2014  01:53:00     -148.827       53.397      -17.577       43.019       34.865       29.051     1850.658     1215.554      843.976        1.461        0.196      158.116       21.534        0.019      342.669       18.239      863.119
08/12/2014  01:54:00     -107.276       10.386      -15.667       23.520       20.916       14.851      553.198      437.477      220.564        0.654        0.061      107.777        7.970        0.005      342.659       18.224      863.109
08/12/2014  01:55:00      -94.897       -4.317       -8.935       36.578       30.113       20.279     1337.934      906.788      411.237        0.588        0.133       94.995       17.525        0.034      342.643       18.195      863.106
08/12/2014  01:56:00      -77.100      -38.134      -11.142       21.295       28.519       12.864      453.458      813.349      165.485        0.448        0.072       86.015        5.833        0.005      342.565       18.064      863.111
08/12/2014  01:57:00      -21.960        1.414       -2.377       51.514       20.984       10.717     2653.702      440.329      114.856        0.185        0.160       22.005       16.475        0.560      342.606       18.134      863.127
08/12/2014  01:58:00      -16.918       20.583       -1.005       14.914       24.772       10.060      222.436      613.633      101.205        0.082        0.047       26.643        9.572        0.129      342.674       18.248      863.149
08/12/2014  01:59:00      -15.540       64.010       -7.228       24.482       19.669       11.102      599.373      386.884      123.255        0.275        0.055       65.870        8.122        0.015      342.872       18.586      863.160
08/12/2014  02:00:00       26.452       84.879       -3.663       27.832       36.515       18.788      774.600     1333.373      352.995        0.519        0.123       88.905       23.349        0.069      342.947       18.714      863.166
08/12/2014  02:01:00       14.589       96.692      -14.552       21.361       23.592       12.087      456.280      556.567      146.085        0.547        0.058       97.787        8.549        0.008      343.013       18.826      863.158
08/12/2014  02:02:00       11.726      113.538      -16.981       21.243       26.896       14.290      451.250      723.380      204.208        0.735        0.069      114.142        8.759        0.006      343.020       18.838      863.141
08/12/2014  02:03:00      -38.652      141.593      -19.928       30.812       32.153       20.859      949.362     1033.809      435.096        1.218        0.121      146.773       19.663        0.018      342.984       18.777      863.129
08/12/2014  02:04:00      -54.571      110.656      -17.853       27.664       29.120       17.150      765.273      847.949      294.114        0.872        0.095      123.380       11.512        0.009      342.999       18.803      863.133
08/12/2014  02:05:00      -68.070       73.686      -20.715       24.110       24.954       16.591      581.276      622.704      275.275        0.599        0.074      100.316        7.445        0.006      342.974       18.760      863.127
08/12/2014  02:06:00      -31.802       24.619        1.379       18.848       21.138       13.709      355.249      446.804      187.945        0.130        0.049       40.218       10.220        0.065      342.909       18.648      863.112
08/12/2014  02:07:00      -22.848        4.118       -5.574        9.122       11.434        6.516       83.220      130.742       42.462        0.041        0.013       23.216        7.668        0.109      342.866       18.575      863.098
08/12/2014  02:08:00      -15.622       -4.913       -6.253       14.770        9.461        9.607      218.155       89.508       92.303        0.035        0.020       16.377        7.945        0.235      342.952       18.723      863.088
08/12/2014  02:09:00      -15.272      -11.518      -17.220       14.411       11.886       11.161      207.679      141.272      124.573        0.057        0.024       19.129        7.145        0.140      342.945       18.712      863.099
08/12/2014  02:10:00      -13.919      -22.535        2.931       15.669       14.548       14.313      245.509      211.634      204.868        0.069        0.033       26.487       12.056        0.207      342.950       18.718      863.100
08/12/2014  02:11:00      -34.760      -22.649       -7.309        7.172        6.308        5.056       51.437       39.791       25.562        0.095        0.006       41.487        2.188        0.003      342.865       18.573      863.095
08/12/2014  02:12:00      -46.521      -10.473       -7.538        5.507        7.867        4.724       30.330       61.891       22.314        0.122        0.006       47.685        2.651        0.003      342.845       18.540      863.085
08/12/2014  02:13:00      -46.674      -15.887       -8.576        8.131        8.131        5.690       66.112       66.110       32.381        0.133        0.008       49.304        3.254        0.004      342.822       18.499      863.063
08/12/2014  02:14:00      -56.223      -24.463       -6.584        8.341        8.843        5.871       69.572       78.203       34.468        0.199        0.009       61.314        2.987        0.002      342.826       18.511      863.032
08/12/2014  02:15:00      -33.790      -22.007       -4.762       18.690       11.418        7.825      349.321      130.376       61.238        0.109        0.027       40.325        5.620        0.019      342.758       18.389      863.013
08/12/2014  02:16:00      -11.656      -10.398       -3.304       13.275       10.300        7.994      176.233      106.085       63.908        0.030        0.017       15.620        5.064        0.105      342.680       18.261      863.011
08/12/2014  02:17:00      -16.123      -15.778       -7.880       12.050        7.271        4.939      145.198       52.865       24.395        0.040        0.011       22.559        5.310        0.055      342.716       18.322      863.007
08/12/2014  02:18:00      -20.894      -18.840       -3.557        8.832        7.670        4.753       78.007       58.832       22.596        0.048        0.008       28.134        3.350        0.014      342.771       18.410      863.004
08/12/2014  02:19:00       -3.754      -14.378       -7.576        7.917        9.877        4.561       62.680       97.557       20.802        0.023        0.009       14.860        3.881        0.068      342.745       18.368      863.005
08/12/2014  02:20:00       -0.795      -10.090       -6.765        5.401       11.572        5.726       29.175      133.917       32.792        0.017        0.010       10.122        5.348        0.279      342.750       18.377      862.997
08/12/2014  02:21:00      -21.930       -0.416       -4.951       11.112        7.123        4.141      123.467       50.731       17.150        0.035        0.010       21.934        4.803        0.048      342.781       18.432      862.979
08/12/2014  02:22:00      -52.939      -11.921       -6.710       13.372        9.037        8.702      178.799       81.669       75.720        0.166        0.017       54.265        7.264        0.018      342.667       18.237      862.947
08/12/2014  02:23:00      -96.998      -24.932       -7.079       27.178       19.335       11.772      738.639      373.836      138.581        0.567        0.063      100.151        9.661        0.009      342.501       17.954      862.907
08/12/2014  02:24:00      -86.927      -37.515      -10.990       29.304       21.246       10.875      858.720      451.394      118.270        0.526        0.071       94.676        6.131        0.004      342.355       17.706      862.887
08/12/2014  02:25:00      -80.660      -53.197       -6.570       17.671       18.259       11.189      312.272      333.388      125.183        0.507        0.039       96.622        5.328        0.003      342.261       17.546      862.891
08/12/2014  02:26:00      -71.455      -46.521       -1.208       25.389       16.993       14.456      644.600      288.760      208.976        0.421        0.057       85.264       10.764        0.016      342.258       17.544      862.901
08/12/2014  02:27:00      -81.441      -41.913       -7.027       17.463       16.387        9.798      304.957      268.540       96.004        0.455        0.033       91.594        4.240        0.002      342.286       17.588      862.909
08/12/2014  02:28:00      -91.047      -38.313       -7.342       16.737       12.068        7.812      280.122      145.642       61.026        0.515        0.024       98.780        6.793        0.005      342.272       17.562      862.906
08/12/2014  02:29:00      -74.665      -33.154       -8.774       13.141       13.265        9.904      172.674      175.968       98.090        0.360        0.022       81.695        6.664        0.007      342.213       17.466      862.909
08/12/2014  02:30:00      -68.501      -15.611       -3.782       11.841       13.942        9.712      140.219      194.368       94.316        0.269        0.021       70.257        4.948        0.005      342.203       17.449      862.909
08/12/2014  02:31:00      -57.605      -28.161       -3.489       16.618       14.182       10.107      276.147      201.124      102.147        0.235        0.029       64.120        9.141        0.020      342.225       17.487      862.921
08/12/2014  02:32:00      -51.018      -42.668        1.058       19.818       15.357       11.769      392.762      235.843      138.500        0.260        0.038       66.509        5.746        0.007      342.175       17.401      862.934
08/12/2014  02:33:00      -32.642      -24.234       -0.450       24.944       18.404       15.159      622.191      338.713      229.781        0.142        0.060       40.655       13.246        0.106      342.178       17.405      862.947
08/12/2014  02:34:00      -63.909      -52.016       -1.316       23.226       17.047       13.006      539.467      290.612      169.148        0.390        0.050       82.402        9.169        0.012      342.212       17.465      862.966
08/12/2014  02:35:00      -87.697      -63.785       -8.536       25.066       21.118       19.510      628.281      445.951      380.643        0.664        0.073      108.440       17.903        0.027      342.227       17.490      862.971
08/12/2014  02:36:00      -84.156      -58.120       -3.544       19.558       16.026       11.776      382.503      256.834      138.682        0.563        0.039      102.274        8.737        0.007      342.227       17.488      862.974
08/12/2014  02:37:00      -82.178      -37.829       -1.624       26.410       22.768       20.202      697.492      518.398      408.107        0.491        0.081       90.467       13.647        0.023      342.166       17.384      862.967
08/12/2014  02:38:00      -89.131      -43.737       -7.330       21.478       19.738       16.333      461.318      389.578      266.774        0.551        0.056       99.284        9.479        0.009      342.162       17.380      862.951
08/12/2014  02:39:00      -91.030      -46.062       -7.168       24.310       16.738       15.630      590.979      280.146      244.298        0.579        0.056      102.021       15.304        0.023      342.112       17.293      862.944
08/12/2014  02:40:00      -67.616      -19.356       -9.581       15.266        9.858        8.499      233.043       97.185       72.232        0.272        0.020       70.332        7.870        0.013      342.118       17.303      862.954
08/12/2014  02:41:00      -21.910       -3.570       -5.520        9.891        6.881        5.220       97.834       47.347       27.243        0.035        0.009       22.199        4.367        0.039      342.125       17.316      862.975
08/12/2014  02:42:00       -8.313       -6.535       -4.856        6.046       13.264        6.446       36.555      175.945       41.553        0.019        0.013       10.574        6.429        0.370      342.189       17.424      862.988
08/12/2014  02:43:00       -4.635      -31.749      -10.132        9.548       22.425        8.884       91.164      502.883       78.920        0.090        0.034       32.086       11.891        0.137      342.338       17.678      862.979
08/12/2014  02:44:00      -46.744      -21.780       -8.111       19.149       12.329        8.693      366.695      152.004       75.572        0.166        0.030       51.569        5.316        0.011      342.250       17.529      862.963
08/12/2014  02:45:00      -85.895      -19.896       -8.383       18.493       12.570       11.894      341.974      158.002      141.456        0.424        0.032       88.169        6.324        0.005      342.174       17.399      862.929
08/12/2014  02:46:00      -91.868      -12.360      -12.110       11.920        8.756        8.872      142.079       76.662       78.717        0.452        0.015       92.696        2.690        0.001      342.125       17.318      862.897
08/12/2014  02:47:00      -83.456        0.552      -12.543       13.502        7.669        8.258      182.292       58.818       68.192        0.372        0.015       83.458        8.016        0.009      342.098       17.270      862.877
08/12/2014  02:48:00      -70.182        5.553      -11.882        9.901        6.749        7.393       98.040       45.552       54.651        0.265        0.010       70.401        5.337        0.006      342.062       17.209      862.878
08/12/2014  02:49:00      -44.712       11.972       -7.738       15.181        9.124        7.226      230.451       83.246       52.216        0.128        0.018       46.287        2.883        0.004      342.139       17.339      862.869
08/12/2014  02:50:00      -32.344        8.683       -9.517        8.062        6.976        6.008       64.998       48.668       36.095        0.068        0.007       33.490        3.654        0.012      342.237       17.505      862.861
08/12/2014  02:51:00      -33.617       16.694       -8.642       10.521       11.219        4.771      110.684      125.860       22.760        0.087        0.013       37.534        3.693        0.010      342.387       17.762      862.857
08/12/2014  02:52:00      -33.119        6.746       -1.915        9.477        8.639        4.889       89.817       74.634       23.901        0.067        0.009       33.799        1.962        0.003      342.271       17.565      862.857
08/12/2014  02:53:00      -26.656        0.021       -2.049       10.070        8.340        5.702      101.403       69.550       32.514        0.046        0.010       26.656        3.251        0.015      342.239       17.511      862.861
08/12/2014  02:54:00      -42.114      -17.174      -11.600       12.713       10.337        7.244      161.623      106.853       52.478        0.126        0.016       45.481        9.198        0.041      342.194       17.432      862.863
08/12/2014  02:55:00      -64.572      -17.412      -13.758        9.561        9.844        7.387       91.404       96.906       54.568        0.245        0.012       66.878        3.134        0.002      342.106       17.283      862.874
08/12/2014  02:56:00      -75.593      -13.790      -11.743       14.810       13.543        8.540      219.345      183.422       72.933        0.326        0.024       76.841        6.603        0.007      342.036       17.167      862.866
08/12/2014  02:57:00      -80.454        5.724      -12.624       19.307       17.775       14.674      372.751      315.953      215.325        0.378        0.045       80.657       10.629        0.017      342.017       17.132      862.859
08/12/2014  02:58:00      -65.966       -3.333       -9.155       22.867       14.206       11.504      522.903      201.809      132.333        0.265        0.043       66.050        6.521        0.010      341.918       16.963      862.862
08/12/2014  02:59:00      -82.693       19.379      -13.902       38.219       33.080       20.270     1460.726     1094.307      410.867        0.519        0.148       84.934        8.631        0.010      342.120       17.306      862.870
08/12/2014  03:00:00     -126.252        5.090       -9.366       45.349       35.162       22.001     2056.502     1236.346      484.049        0.991        0.189      126.355       12.279        0.009      342.167       17.387      862.886
08/12/2014  03:01:00     -142.041       16.475      -14.667       31.248       22.925       17.791      976.446      525.576      316.522        1.124        0.091      142.993       15.581        0.012      342.182       17.412      862.907
08/12/2014  03:02:00      -60.711       -1.251       -4.127       27.317       25.544       16.229      746.197      652.475      263.389        0.268        0.083       60.724        8.928        0.022      342.056       17.199      862.904
08/12/2014  03:03:00     -116.938       14.866       -6.819       25.025       21.118       15.298      626.262      445.977      234.016        0.762        0.065      117.879       12.863        0.012      342.063       17.210      862.906
08/12/2014  03:04:00     -137.024       28.143       -6.911       24.255       23.980       13.953      588.301      575.036      194.677        1.049        0.068      139.885        5.316        0.001      342.156       17.369      862.909
08/12/2014  03:05:00     -151.011       14.328      -13.584       25.614       28.421       14.426      656.085      807.760      208.117        1.243        0.084      151.689       10.886        0.005      342.191       17.427      862.907
08/12/2014  03:06:00     -142.923      -10.049      -19.208       26.015       23.216       14.006      676.789      538.985      196.158        1.115        0.071      143.276        9.504        0.004      342.132       17.328      862.905
08/12/2014  03:07:00     -128.485      -15.754       -9.842       21.429       16.677       12.997      459.183      278.120      168.915        0.888        0.045      129.447       10.194        0.006      342.095       17.266      862.901
08/12/2014  03:08:00      -96.072      -33.098       -6.183       34.772       18.629       16.553     1209.079      347.034      273.999        0.610        0.092      101.613       14.797        0.021      342.053       17.193      862.888
08/12/2014  03:09:00     -114.993       16.366       -4.084       32.760       21.492       10.685     1073.249      461.889      114.176        0.758        0.082      116.152        9.869        0.007      342.134       17.332      862.880
08/12/2014  03:10:00     -123.087       35.853       -6.702       30.569       21.768       19.127      934.466      473.868      365.824        0.913        0.089      128.203       11.460        0.008      342.216       17.469      862.881
08/12/2014  03:11:00     -127.459       34.396       -7.928       34.781       22.743       17.321     1209.712      517.259      300.029        0.976        0.101      132.018       17.162        0.017      342.264       17.552      862.897
08/12/2014  03:12:00     -170.327       35.821      -14.908       25.832       16.680       14.271      667.296      278.226      203.662        1.583        0.057      174.053        7.930        0.002      342.369       17.731      862.924
08/12/2014  03:13:00     -110.134      -14.192       -8.283       30.969       33.154       16.189      959.063     1099.204      262.098        0.736        0.116      111.044       13.825        0.015      342.292       17.600      862.935
08/12/2014  03:14:00      -97.014      -51.340       -2.246       15.429       17.671       13.681      238.044      312.262      187.175        0.639        0.037      109.761        8.044        0.005      342.230       17.494      862.936
08/12/2014  03:15:00      -85.618      -40.754       -7.792       10.432       15.775       11.172      108.831      248.844      124.819        0.477        0.024       94.823        6.718        0.005      342.211       17.462      862.936
08/12/2014  03:16:00      -80.343      -43.271        2.052       18.312       17.169       11.967      335.330      294.789      143.209        0.455        0.039       91.254        9.030        0.010      342.227       17.491      862.923
08/12/2014  03:17:00      -80.999      -44.518       -5.828       23.474       18.436       11.756      551.021      339.875      138.192        0.480        0.051       92.427        5.750        0.004      342.248       17.524      862.913
08/12/2014  03:18:00     -103.777      -53.741       -2.436       20.838       22.359       16.734      434.224      499.915      280.011        0.744        0.061      116.867       15.004        0.016      342.240       17.511      862.902
08/12/2014  03:19:00      -92.512      -45.222       -4.081       16.200       15.675       11.358      262.438      245.694      128.998        0.563        0.032      102.973        8.696        0.007      342.263       17.549      862.898
08/12/2014  03:20:00      -62.720      -34.783       -1.736       15.632       15.826        7.928      244.368      250.472       62.850        0.285        0.028       71.719        4.693        0.004      342.281       17.581      862.891
08/12/2014  03:21:00      -55.156      -25.139       -6.600       11.122        8.327        8.305      123.702       69.333       68.975        0.199        0.013       60.615        3.915        0.004      342.249       17.526      862.883
08/12/2014  03:22:00      -55.389      -23.775       -1.953       14.548       16.146        7.414      211.650      260.699       54.973        0.208        0.026       60.276        7.880        0.017      342.262       17.550      862.868
08/12/2014  03:23:00      -18.669      -17.354        1.318       20.854       18.095        9.136      434.870      327.445       83.463        0.075        0.042       25.489        6.282        0.061      342.294       17.602      862.851
08/12/2014  03:24:00      -15.512      -18.216        4.129       24.809       23.512       14.814      615.468      552.792      219.462        0.099        0.069       23.926       16.601        0.481      342.267       17.556      862.839
08/12/2014  03:25:00      -18.144      -24.737        6.759       25.048       23.760       11.723      627.379      564.557      137.428        0.116        0.066       30.677       11.635        0.144      342.290       17.597      862.845
08/12/2014  03:26:00       -8.979      -25.645        8.464       26.415       16.749       12.461      697.737      280.527      155.265        0.097        0.057       27.171       13.963        0.264      342.262       17.549      862.865
08/12/2014  03:27:00      -50.780      -31.259        1.593       31.737       19.330       16.229     1007.250      373.655      263.394        0.260        0.082       59.630       18.340        0.095      342.225       17.486      862.871
08/12/2014  03:28:00      -88.934      -56.428        5.675       37.178       27.577       17.126     1382.169      760.487      293.292        0.678        0.122      105.325       16.694        0.025      342.213       17.467      862.878
08/12/2014  03:29:00     -110.200      -86.946        2.271       44.177       31.624       25.178     1951.568     1000.080      633.946        1.165        0.179      140.370       26.914        0.037      342.052       17.193      862.874
08/12/2014  03:30:00     -118.386      -78.863        5.185       42.526       44.163       27.726     1808.460     1950.401      768.727        1.239        0.226      142.248       29.335        0.043      342.022       17.141      862.873
08/12/2014  03:31:00      -86.917      -87.376        8.117       48.884       44.272       34.354     2389.605     1960.036     1180.223        1.039        0.276      123.245       31.717        0.066      342.052       17.192      862.883
08/12/2014  03:32:00      -93.948      -79.765        2.180       47.315       43.789       22.870     2238.708     1917.487      523.053        0.994        0.234      123.242       21.080        0.029      342.100       17.273      862.903
08/12/2014  03:33:00      -54.659      -43.857        9.593       48.253       28.914       22.094     2328.395      836.036      488.146        0.433        0.183       70.079       25.835        0.136      342.047       17.183      862.916
08/12/2014  03:34:00      -87.530      -62.105       -6.434       23.542       27.404       18.410      554.204      750.981      338.940        0.660        0.082      107.324       15.649        0.021      342.033       17.160      862.921
08/12/2014  03:35:00      -82.878      -58.927       -5.496       29.189       22.290       17.692      852.001      496.846      313.011        0.602        0.083      101.691       17.950        0.031      342.016       17.130      862.918
08/12/2014  03:36:00      -77.752      -53.994       -7.672       18.688       21.590       19.543      349.242      466.115      381.923        0.511        0.060       94.661       14.737        0.024      341.967       17.046      862.924
08/12/2014  03:37:00      -86.381      -16.903       -5.888       26.438       25.675       17.218      698.949      659.218      296.466        0.472        0.083       88.019       13.955        0.025      341.928       16.981      862.928
08/12/2014  03:38:00      -96.309      -17.908       -7.279       26.351       28.286       17.449      694.401      800.074      304.460        0.572        0.090       97.960       15.265        0.024      341.866       16.875      862.912
08/12/2014  03:39:00      -86.930       -9.875      -12.778       23.084       18.842       14.391      532.852      355.017      207.108        0.446        0.055       87.489       12.798        0.021      341.765       16.705      862.882
08/12/2014  03:40:00      -96.702      -17.939       -1.313       29.384       16.882       15.593      863.444      284.992      243.138        0.553        0.070       98.352       16.054        0.027      341.721       16.631      862.863
08/12/2014  03:41:00     -114.812      -47.770       -2.850       29.874       24.392       14.766      892.455      594.980      218.044        0.859        0.085      124.353       13.410        0.012      341.767       16.709      862.854
08/12/2014  03:42:00     -140.671      -54.586       -3.219       22.409       21.558       11.543      502.178      464.743      133.248        1.194        0.055      150.891       11.155        0.005      341.792       16.752      862.847
08/12/2014  03:43:00     -113.953      -55.673       -6.194       33.992       25.378       14.843     1155.429      644.028      220.319        0.907        0.101      126.826       13.378        0.011      341.786       16.740      862.814
08/12/2014  03:44:00       -5.210      -22.780       10.545       31.462       22.697       15.600      989.879      515.167      243.360        0.120        0.087       23.368       13.750        0.346      341.849       16.847      862.811
08/12/2014  03:45:00       -9.729      -31.375        2.648       17.585       15.456       10.535      309.226      238.896      110.989        0.087        0.033       32.849        7.808        0.056      341.849       16.848      862.842
08/12/2014  03:46:00      -13.440      -63.667       -1.619       16.018       31.902       10.666      256.591     1017.754      113.769        0.281        0.069       65.070       10.717        0.027      341.880       16.897      862.871
08/12/2014  03:47:00      -23.337      -62.113       -4.952       11.970       13.021        8.862      143.280      169.557       78.539        0.241        0.020       66.353        4.697        0.005      341.934       16.991      862.883
08/12/2014  03:48:00      -39.861       -6.870       -0.789       26.428       15.283       13.577      698.451      233.580      184.334        0.138        0.056       40.449       10.795        0.071      341.962       17.039      862.883
08/12/2014  03:49:00      -35.142      -21.544        0.919       27.657       18.205       12.769      764.902      331.412      163.039        0.148        0.063       41.220        6.693        0.026      341.969       17.050      862.883
08/12/2014  03:50:00      -92.743      -38.585       -6.278       41.245       28.698       12.516     1701.115      823.550      156.639        0.640        0.134      100.449        9.956        0.010      341.965       17.045      862.865
08/12/2014  03:51:00      -94.987      -23.514       -2.900       39.671       37.783       17.530     1573.757     1427.525      307.313        0.645        0.165       97.854       18.901        0.037      341.881       16.900      862.834
08/12/2014  03:52:00      -82.435      -29.022       -5.082       27.487       21.632       13.306      755.542      467.939      177.049        0.453        0.070       87.394        9.465        0.012      341.802       16.767      862.807
08/12/2014  03:53:00      -35.348      -14.019       -0.320       15.348       12.237       10.399      235.571      149.734      108.132        0.097        0.025       38.026       10.452        0.076      341.728       16.643      862.812
08/12/2014  03:54:00       -0.515      -38.779       -6.337       18.361       17.106       17.027      337.109      292.627      289.916        0.123        0.046       38.783        6.347        0.027      341.956       17.029      862.835
08/12/2014  03:55:00       18.676      -18.311       -0.728       20.006       23.353       19.316      400.238      545.372      373.127        0.100        0.066       26.155       19.702        0.567      342.113       17.297      862.843
08/12/2014  03:56:00      -11.607      -22.094       -6.591       13.589        9.390       10.534      184.665       88.170      110.966        0.052        0.019       24.957        6.517        0.068      342.195       17.435      862.848
08/12/2014  03:57:00       -6.750       -7.832        2.036       12.943        9.654        8.303      167.509       93.194       68.947        0.022        0.016       10.339        6.923        0.448      342.193       17.430      862.829
08/12/2014  03:58:00       -0.596       -2.010        6.652        9.098        3.912        5.897       82.769       15.303       34.769        0.009        0.007        2.097        2.778        1.756      342.087       17.254      862.836
08/12/2014  03:59:00       11.088        5.037       18.207       15.867       20.686       11.939      251.760      427.923      142.550        0.065        0.041       12.178       13.401        1.211      342.000       17.105      862.851
08/12/2014  04:00:00       28.942      -87.689      -16.158       31.572       30.812       28.700      996.799      949.369      823.689        0.578        0.138       92.342       25.306        0.075      341.974       17.059      862.895
08/12/2014  04:01:00        8.491      -44.013        0.893       51.068       50.574       22.628     2607.950     2557.720      512.032        0.384        0.284       44.824       27.327        0.372      341.925       16.973      862.912
08/12/2014  04:02:00      -68.658      -20.020        2.398       38.797       31.883       22.173     1505.189     1016.514      491.624        0.407        0.151       71.518       17.454        0.060      341.926       16.978      862.893
08/12/2014  04:03:00     -109.840      -67.579       -5.394       41.321       35.108       20.732     1707.403     1232.537      429.795        1.001        0.168      128.964       22.112        0.029      341.821       16.799      862.861
08/12/2014  04:04:00      -89.075      -49.364        9.436       42.843       28.580       25.629     1835.497      816.816      656.864        0.688        0.165      101.838       26.263        0.067      341.704       16.602      862.847
08/12/2014  04:05:00      -50.033      -44.344        1.874       28.408       29.192       17.803      807.020      852.174      316.964        0.322        0.099       66.856       17.483        0.068      341.698       16.593      862.853
08/12/2014  04:06:00      -76.563      -26.283        0.970       34.739       20.360       16.619     1206.791      414.522      276.180        0.423        0.095       80.948       16.710        0.043      341.672       16.548      862.865
08/12/2014  04:07:00      -21.445      -44.115        2.178       17.975       20.377       11.195      323.104      415.218      125.318        0.164        0.043       49.052        8.841        0.032      341.768       16.709      862.893
08/12/2014  04:08:00      -20.867      -33.572       -0.116       26.195       20.278       13.773      686.166      411.211      189.701        0.142        0.064       39.528        5.022        0.016      341.826       16.809      862.925
08/12/2014  04:09:00      -62.023      -51.987        1.939       41.763       31.844       20.835     1744.141     1014.017      434.091        0.487        0.160       80.929       19.593        0.059      341.787       16.743      862.941
08/12/2014  04:10:00     -106.442      -63.438       -2.267       42.069       24.425       14.527     1769.781      596.601      211.031        0.897        0.129      123.913       13.337        0.012      341.757       16.690      862.914
08/12/2014  04:11:00      -72.735      -12.608       -4.138       37.251       22.501       14.135     1387.626      506.309      199.792        0.378        0.105       73.820       13.086        0.031      341.725       16.638      862.874
08/12/2014  04:12:00      -73.340      -11.908       -4.937       19.078       17.535       12.542      363.989      307.460      157.307        0.319        0.041       74.300       10.325        0.019      341.701       16.595      862.858
08/12/2014  04:13:00      -72.176      -51.191       -3.502       22.930       17.064       11.166      525.801      291.196      124.676        0.439        0.047       88.486       11.359        0.016      341.694       16.586      862.889
08/12/2014  04:14:00      -74.037      -37.370       -1.205       18.081       21.076       15.703      326.933      444.214      246.597        0.395        0.051       82.934       10.146        0.015      341.658       16.524      862.930
08/12/2014  04:15:00      -52.900      -48.286        2.516       44.715       31.096       19.315     1999.452      966.955      373.053        0.424        0.167       71.624       21.315        0.089      341.672       16.547      862.929
08/12/2014  04:16:00      -86.032     -103.600       -8.355       41.371       35.936       22.798     1711.545     1291.403      519.732        1.086        0.176      134.665       22.506        0.028      341.657       16.520      862.919
08/12/2014  04:17:00     -143.204      -51.475       -3.209       40.067       31.546       22.007     1605.387      995.123      484.321        1.313        0.154      152.175       18.048        0.014      341.617       16.451      862.892
08/12/2014  04:18:00     -100.442      -62.813        4.117       45.429       32.917       21.611     2063.787     1083.554      467.021        0.883        0.181      118.465       23.446        0.039      341.567       16.367      862.889
08/12/2014  04:19:00      -98.466      -66.449        0.788       34.012       29.578       25.330     1156.810      874.886      641.606        0.839        0.134      118.789       19.999        0.028      341.547       16.335      862.907
08/12/2014  04:20:00      -59.099      -57.101        2.109       61.010       31.216       24.348     3722.267      974.422      592.830        0.602        0.264       82.178       31.883        0.151      341.581       16.393      862.911
08/12/2014  04:21:00     -109.775      -46.091        3.550       43.745       38.975       26.986     1913.593     1519.058      728.250        0.917        0.208      119.058       25.860        0.047      341.514       16.280      862.902
08/12/2014  04:22:00     -125.701      -80.745       -2.673       34.990       26.732       22.668     1224.274      714.615      513.845        1.239        0.123      149.401       19.639        0.017      341.533       16.311      862.903
08/12/2014  04:23:00     -148.175      -36.283       -2.478       32.469       28.465       20.889     1054.253      810.260      436.362        1.279        0.115      152.553       19.795        0.017      341.451       16.171      862.906
08/12/2014  04:24:00     -157.481      -36.374       -2.928       45.438       35.261       25.613     2064.581     1243.351      656.019        1.505        0.198      161.627       18.985        0.014      341.322       15.954      862.900
08/12/2014  04:25:00     -158.938      -53.742        0.515       58.398       32.781       23.029     3410.369     1074.576      530.345        1.658        0.251      167.779       24.763        0.022      341.299       15.914      862.891
08/12/2014  04:26:00     -141.903      -43.663       -0.555       32.033       29.752       22.894     1026.130      885.185      524.153        1.224        0.122      148.468       18.160        0.015      341.302       15.922      862.882
08/12/2014  04:27:00     -131.836       -4.319      -10.234       30.196       18.223       20.294      911.782      332.083      411.851        0.958        0.083      131.907       19.025        0.021      341.315       15.942      862.894
08/12/2014  04:28:00     -109.936       -0.493      -11.450       31.230       23.670       18.289      975.322      560.252      334.503        0.704        0.094      109.937       12.851        0.014      341.315       15.944      862.905
08/12/2014  04:29:00      -97.816       -0.654      -11.116       21.683       25.675       19.873      470.151      659.206      394.944        0.561        0.076       97.818       15.486        0.025      341.319       15.949      862.908
08/12/2014  04:30:00      -82.152        1.842       -7.920       29.066       19.371       12.987      844.854      375.241      168.659        0.410        0.069       82.173       12.637        0.024      341.321       15.951      862.909
08/12/2014  04:31:00      -36.327        2.568       -2.147       35.839       18.710       14.904     1284.443      350.071      222.136        0.159        0.093       36.417       17.494        0.231      341.364       16.026      862.908
08/12/2014  04:32:00        7.959      -10.425       -3.010        9.485       13.999        8.967       89.961      195.958       80.405        0.027        0.018       13.116        8.394        0.410      341.460       16.187      862.905
08/12/2014  04:33:00      -18.493       -0.522       -3.120       10.637        7.133        6.418      113.135       50.882       41.190        0.028        0.010       18.501        6.353        0.118      341.451       16.172      862.889
08/12/2014  04:34:00      -91.394      -36.846      -13.336       24.917       22.946       16.047      620.855      526.508      257.522        0.565        0.070       98.542       12.583        0.016      341.446       16.165      862.869
08/12/2014  04:35:00     -127.184      -62.612       -5.502       28.846       30.418       14.540      832.117      925.243      211.419        1.105        0.098      141.760        9.473        0.004      341.476       16.214      862.879
08/12/2014  04:36:00     -144.738      -41.477      -13.246       24.790       30.549       21.796      614.523      933.218      475.053        1.243        0.101      150.564       13.458        0.008      341.367       16.031      862.877
08/12/2014  04:37:00      -87.554      -37.182       -2.516       44.537       27.132       19.625     1983.574      736.148      385.153        0.608        0.155       95.122       13.881        0.021      341.299       15.915      862.882
08/12/2014  04:38:00      -61.293       -8.204       -0.170       38.633       25.486       15.243     1492.477      649.520      232.358        0.310        0.119       61.840       13.527        0.048      341.286       15.895      862.894
08/12/2014  04:39:00      -48.363      -11.747        2.008       33.749       37.793       16.226     1139.013     1428.318      263.281        0.266        0.142       49.769       18.861        0.144      341.283       15.889      862.911
08/12/2014  04:40:00      -67.571      -35.623      -10.899       19.291       17.741       11.763      372.126      314.733      138.358        0.339        0.041       76.386        6.813        0.008      341.308       15.931      862.932
08/12/2014  04:41:00       -6.292      -38.763       -4.640       28.466       17.260       17.000      810.334      297.922      288.999        0.148        0.070       39.270       16.252        0.171      341.360       16.021      862.937
08/12/2014  04:42:00       -7.841      -13.027        2.381        9.457        8.882        7.417       89.434       78.894       55.007        0.023        0.011       15.205        5.693        0.140      341.384       16.058      862.938
08/12/2014  04:43:00      -28.717       -3.105       -6.612        9.346       13.049        8.492       87.350      170.285       72.118        0.060        0.016       28.885        5.300        0.034      341.350       16.000      862.928
08/12/2014  04:44:00      -38.368      -18.213       -6.457       16.912       13.154        9.663      286.029      173.034       93.376        0.120        0.028       42.472        8.561        0.041      341.354       16.009      862.935
08/12/2014  04:45:00       -6.297       -0.843       -4.529       10.498       12.700        9.005      110.202      161.287       81.093        0.021        0.018        6.353        8.166        1.652      341.458       16.185      862.943
08/12/2014  04:46:00        7.032       15.037       18.495       13.617        9.057        7.669      185.435       82.030       58.820        0.047        0.016       16.600        3.260        0.039      341.530       16.307      862.948
08/12/2014  04:47:00        5.746      -32.314        4.066       13.945       27.700       14.563      194.472      767.279      212.088        0.113        0.059       32.821       14.181        0.187      341.600       16.424      862.936
08/12/2014  04:48:00       -5.436      -20.982       -4.799        8.501       15.492        5.663       72.260      239.991       32.072        0.042        0.017       21.675        4.749        0.048      341.566       16.367      862.927
08/12/2014  04:49:00      -29.656      -16.024       -0.612       14.042        9.808       10.444      197.170       96.200      109.073        0.077        0.020       33.708        9.204        0.075      341.538       16.321      862.931
08/12/2014  04:50:00      -24.763      -14.123       -4.602       14.463        9.981       10.585      209.189       99.614      112.034        0.063        0.021       28.507        4.364        0.023      341.465       16.196      862.942
08/12/2014  04:51:00      -35.362      -22.630       -4.316       21.635       12.806       12.618      468.055      163.999      159.213        0.129        0.040       41.983        9.181        0.048      341.460       16.186      862.959
08/12/2014  04:52:00      -38.726      -33.092        0.215       25.636       19.349       10.927      657.227      374.395      119.401        0.187        0.058       50.939        3.987        0.006      341.406       16.096      862.982
08/12/2014  04:53:00      -62.876      -60.181       -2.035       25.187       13.057       10.946      634.410      170.487      119.823        0.425        0.046       87.036       10.613        0.015      341.451       16.170      862.985
08/12/2014  04:54:00      -45.155      -41.635       -0.354       36.584       28.520       18.130     1338.422      813.394      328.707        0.313        0.124       61.420       22.300        0.132      341.427       16.132      862.989
08/12/2014  04:55:00      -40.753      -46.273        8.714       38.781       23.473       17.343     1503.980      550.969      300.783        0.312        0.118       61.660       15.931        0.067      341.411       16.104      862.993
08/12/2014  04:56:00      -40.547      -24.503        5.449       29.674       23.340       13.773      880.546      544.770      189.688        0.194        0.081       47.375       15.372        0.105      341.399       16.083      862.989
08/12/2014  04:57:00      -54.744      -30.363       -0.174       25.007       17.408       14.118      625.334      303.050      199.329        0.252        0.056       62.601       12.873        0.042      341.399       16.084      862.974
08/12/2014  04:58:00      -67.368      -51.344       -0.649       27.396       17.316       15.198      750.557      299.859      230.988        0.423        0.064       84.704       11.623        0.019      341.414       16.110      862.963
08/12/2014  04:59:00      -51.115      -40.371       -5.832       18.431       11.480        9.628      339.705      131.793       92.691        0.242        0.028       65.135        6.328        0.009      341.381       16.055      862.953
08/12/2014  05:00:00      -49.246      -29.639        1.816       23.329       16.633       14.448      544.236      276.666      208.733        0.217        0.051       57.477       13.411        0.054      341.384       16.059      862.940
08/12/2014  05:01:00      -37.724      -40.127        6.633       33.948       31.890       17.839     1152.449     1016.991      318.216        0.278        0.124       55.075       19.802        0.129      341.401       16.088      862.931
08/12/2014  05:02:00      -58.180      -71.400       -8.463       21.346       17.104       16.966      455.668      292.553      287.858        0.480        0.052       92.103       10.867        0.014      341.513       16.277      862.922
08/12/2014  05:03:00      -18.225      -15.520      -17.619       31.211       27.735       18.950      974.125      769.248      359.096        0.149        0.105       23.938       19.390        0.656      341.531       16.309      862.919
08/12/2014  05:04:00      -41.949        5.724       10.609       21.427       12.855       13.674      459.097      165.255      186.968        0.136        0.041       42.338       11.314        0.071      341.521       16.289      862.911
08/12/2014  05:05:00      -29.476       -5.860       -5.587        9.301        6.473        8.370       86.500       41.902       70.058        0.057        0.010       30.053        1.914        0.004      341.552       16.343      862.884
08/12/2014  05:06:00      -46.372      -22.594       -3.628       11.173       14.807        8.235      124.834      219.245       67.822        0.154        0.021       51.583        6.224        0.015      341.522       16.291      862.882
08/12/2014  05:07:00      -30.137      -17.081        8.847       27.101       20.039       15.545      734.486      401.567      241.660        0.133        0.069       34.641       13.978        0.163      341.386       16.063      862.886
08/12/2014  05:08:00      -94.568      -37.191       -0.433       45.594       21.523       11.931     2078.770      463.238      142.346        0.650        0.134      101.618       14.853        0.021      341.380       16.051      862.900
08/12/2014  05:09:00      -91.508      -24.227       -0.011       31.005       21.388       14.211      961.311      457.441      201.963        0.529        0.081       94.661       15.260        0.026      341.266       15.860      862.886
08/12/2014  05:10:00      -73.611       -9.839       -3.069       21.106       18.225       14.089      445.448      332.156      198.513        0.325        0.049       74.265       11.248        0.023      341.208       15.761      862.864
08/12/2014  05:11:00      -87.753      -19.410       -6.191       20.760       14.311       14.896      430.970      204.817      221.900        0.449        0.043       89.874       12.353        0.019      341.213       15.771      862.853
08/12/2014  05:12:00     -128.123      -37.747      -11.008       40.867       19.198       15.589     1670.089      368.573      243.032        1.012        0.114      133.568       14.800        0.012      341.252       15.837      862.830
08/12/2014  05:13:00     -122.599      -36.186       -5.595       21.585       26.323       17.659      465.909      692.885      311.834        0.892        0.074      127.828       13.193        0.011      341.223       15.788      862.816
08/12/2014  05:14:00      -70.917      -11.943        0.853       43.333       30.158       21.052     1877.727      909.495      443.205        0.420        0.162       71.915       20.473        0.081      341.169       15.695      862.822
08/12/2014  05:15:00      -75.925      -15.862       -1.635       47.978       28.544       27.283     2301.899      814.764      744.388        0.494        0.193       77.564       30.501        0.155      341.162       15.683      862.833
08/12/2014  05:16:00      -89.697      -11.250        4.040       52.318       35.279       22.785     2737.166     1244.623      519.151        0.634        0.225       90.399       26.214        0.084      341.154       15.671      862.848
08/12/2014  05:17:00     -106.851      -42.127       -0.798       45.225       33.436       22.608     2045.270     1117.937      511.117        0.843        0.184      114.856       24.457        0.045      341.212       15.768      862.846
08/12/2014  05:18:00     -134.338      -31.657       -4.016       36.258       29.630       20.689     1314.657      877.966      428.017        1.084        0.131      138.017       16.618        0.014      341.259       15.848      862.826
08/12/2014  05:19:00      -90.335      -45.509        7.325       48.652       27.508       22.399     2367.062      756.665      501.702        0.695        0.181      101.151       24.020        0.056      341.253       15.837      862.808
08/12/2014  05:20:00     -133.794      -51.833       -1.277       31.014       27.564       15.817      961.852      759.753      250.189        1.128        0.099      143.483       14.978        0.011      341.248       15.829      862.782
08/12/2014  05:21:00     -120.856      -45.465       -9.628       17.754       29.307       14.120      315.219      858.879      199.361        0.907        0.069      129.125        7.347        0.003      341.302       15.919      862.762
08/12/2014  05:22:00     -124.327      -60.005      -12.637       19.791       18.029       14.255      391.677      325.027      203.211        1.007        0.046      138.050       11.537        0.007      341.319       15.948      862.753
08/12/2014  05:23:00     -127.264      -43.256       -6.658       27.654       27.451       16.834      764.755      753.553      283.379        0.996        0.090      134.414       13.695        0.010      341.336       15.978      862.740
08/12/2014  05:24:00     -140.681      -44.241      -14.307       27.977       39.659       17.810      782.695     1572.829      317.180        1.231        0.134      147.473       14.091        0.009      341.312       15.937      862.735
08/12/2014  05:25:00     -133.126      -49.110       -7.174       36.501       21.359       18.300     1332.300      456.210      334.898        1.115        0.106      141.895       20.342        0.021      341.266       15.861      862.740
08/12/2014  05:26:00     -104.621      -44.856        0.557       34.533       25.672       15.746     1192.494      659.028      247.935        0.753        0.105      113.831       17.272        0.023      341.264       15.857      862.747
08/12/2014  05:27:00      -74.670      -48.713        0.622       33.896       33.915       16.682     1148.951     1150.203      278.294        0.526        0.129       89.155       18.005        0.041      341.311       15.935      862.757
08/12/2014  05:28:00      -80.212      -57.013       -0.220       17.865       20.834       13.328      319.147      434.059      177.635        0.531        0.047       98.409        6.621        0.005      341.310       15.934      862.764
08/12/2014  05:29:00      -54.487      -34.154        4.429       30.190       22.453       18.301      911.420      504.124      334.943        0.295        0.088       64.307       12.703        0.039      341.306       15.928      862.773
08/12/2014  05:30:00      -41.674      -39.133        6.162       31.562       31.557       24.052      996.146      995.874      578.479        0.294        0.129       57.167       18.878        0.109      341.295       15.909      862.773
08/12/2014  05:31:00      -67.037      -48.331       -2.468       44.187       30.289       20.884     1952.454      917.399      436.125        0.507        0.165       82.643       25.719        0.097      341.299       15.914      862.776
08/12/2014  05:32:00      -59.419      -60.809        5.119       30.452       22.726       18.185      927.314      516.483      330.712        0.451        0.089       85.020       14.529        0.029      341.287       15.895      862.778
08/12/2014  05:33:00      -79.114      -72.329       -6.743       37.495       33.396       20.950     1405.846     1115.263      438.888        0.725        0.148      107.194       20.298        0.036      341.284       15.891      862.777
08/12/2014  05:34:00      -75.367      -69.311       -1.315       45.838       29.548       23.373     2101.139      873.087      546.287        0.700        0.176      102.392       23.861        0.054      341.245       15.824      862.784
08/12/2014  05:35:00      -55.294      -64.378        1.493       41.055       36.201       22.065     1685.478     1310.505      486.881        0.534        0.174       84.865       22.964        0.073      341.266       15.860      862.777
08/12/2014  05:36:00      -45.857      -49.437        9.947       37.822       26.683       20.625     1430.519      712.003      425.379        0.361        0.128       67.431       22.948        0.116      341.290       15.901      862.767
08/12/2014  05:37:00      -75.856      -63.709       -4.377       36.026       26.476       24.459     1297.861      700.964      598.232        0.621        0.130       99.061       19.810        0.040      341.265       15.859      862.757
08/12/2014  05:38:00     -106.277      -66.700       -3.223       36.507       30.497       21.674     1332.747      930.075      469.771        0.924        0.137      125.474       21.119        0.028      341.285       15.892      862.748
08/12/2014  05:39:00     -107.115      -56.818        0.283       23.667       24.826       16.937      560.121      616.320      286.849        0.808        0.073      121.252       14.905        0.015      341.276       15.876      862.736
08/12/2014  05:40:00      -85.904      -50.649        0.389       24.761       21.484       18.188      613.123      461.570      330.811        0.567        0.070       99.724       15.559        0.024      341.295       15.909      862.725
08/12/2014  05:41:00      -68.435      -47.370       -0.520       22.947       13.145       15.976      526.585      172.794      255.219        0.394        0.048       83.230       15.474        0.035      341.296       15.910      862.716
08/12/2014  05:42:00      -55.530      -47.480       -3.325       26.887       19.915       13.269      722.912      396.596      176.065        0.332        0.065       73.061       14.372        0.039      341.310       15.934      862.706
08/12/2014  05:43:00       -2.525      -25.282       15.319       34.142       26.801       19.360     1165.676      718.305      374.805        0.157        0.113       25.408       17.517        0.475      341.317       15.946      862.708
08/12/2014  05:44:00      -78.793      -80.200       -0.492       38.335       35.055       22.277     1469.610     1228.854      496.270        0.792        0.160      112.429       20.947        0.035      341.254       15.839      862.718
08/12/2014  05:45:00     -123.341      -79.748       -6.133       33.292       18.645       18.618     1108.345      347.635      346.633        1.171        0.090      146.876       11.865        0.007      341.309       15.931      862.716
08/12/2014  05:46:00      -56.452      -48.957        2.841       41.696       29.685       22.126     1738.561      881.194      489.571        0.435        0.155       74.724       22.368        0.090      341.267       15.861      862.723
08/12/2014  05:47:00      -50.441      -54.196        2.930       28.251       28.750       17.659      798.115      826.589      311.846        0.371        0.097       74.037       18.362        0.062      341.332       15.972      862.743
08/12/2014  05:48:00      -46.923      -69.460        2.705       34.053       36.329       21.648     1159.584     1319.767      468.624        0.499        0.147       83.824       25.279        0.091      341.313       15.938      862.783
08/12/2014  05:49:00      -67.019      -81.600       -6.953       32.758       46.037       19.148     1073.078     2119.387      366.635        0.738        0.178      105.594       21.934        0.043      341.339       15.985      862.814
08/12/2014  05:50:00      -70.738      -44.720        0.297       36.278       28.810       24.912     1316.058      830.015      620.610        0.488        0.138       83.689       20.451        0.060      341.429       16.135      862.844
08/12/2014  05:51:00      -73.912      -49.515        0.782       34.446       27.972       18.467     1186.546      782.459      341.015        0.511        0.116       88.965       15.123        0.029      341.378       16.050      862.863
08/12/2014  05:52:00      -64.557      -60.360        1.956       32.108       30.356       21.153     1030.952      921.501      447.460        0.511        0.120       88.379       10.376        0.014      341.360       16.018      862.884
08/12/2014  05:53:00      -39.066      -50.453        2.164       32.841       33.550       20.733     1078.561     1125.632      429.877        0.335        0.132       63.810       19.750        0.096      341.404       16.094      862.886
08/12/2014  05:54:00      -37.777      -41.321        6.020       29.564       22.804       22.511      874.006      520.006      506.744        0.254        0.095       55.987       19.082        0.116      341.296       15.911      862.888
08/12/2014  05:55:00      -31.681      -46.814        5.397       32.439       25.450       21.679     1052.284      647.681      469.966        0.270        0.108       56.527       19.041        0.113      341.258       15.844      862.883
08/12/2014  05:56:00      -57.936      -60.609       -4.791       20.972       15.310       18.958      439.835      234.402      359.390        0.404        0.052       83.845       15.840        0.036      341.212       15.768      862.894
08/12/2014  05:57:00      -91.022      -35.422      -11.870       17.439       24.941       14.407      304.129      622.064      207.553        0.541        0.057       97.672       13.593        0.019      341.219       15.780      862.923
08/12/2014  05:58:00      -58.260      -27.473        3.231       50.212       19.102       16.108     2521.277      364.905      259.483        0.365        0.157       64.413       16.184        0.063      341.234       15.805      862.961
08/12/2014  05:59:00      -39.974      -47.708        6.729       47.317       43.660       23.633     2238.890     1906.189      558.510        0.431        0.235       62.242       24.897        0.160      341.220       15.782      863.007
08/12/2014  06:00:00      -71.073      -86.325       -2.750       44.527       38.050       26.508     1982.664     1447.826      702.664        0.832        0.207      111.818       27.296        0.060      341.143       15.650      863.040
08/12/2014  06:01:00     -104.470      -78.604       -0.260       31.753       24.921       19.289     1008.234      621.052      372.064        0.955        0.100      130.739       13.522        0.011      341.172       15.701      863.052
08/12/2014  06:02:00      -93.929      -58.785        3.179       46.979       27.708       22.526     2207.041      767.738      507.430        0.788        0.174      110.807       23.792        0.046      341.254       15.839      863.051
08/12/2014  06:03:00      -39.637      -56.137        2.133       27.659       22.739       16.013      765.002      517.067      256.419        0.313        0.077       68.720       13.146        0.037      341.303       15.921      863.046
08/12/2014  06:04:00      -64.268      -55.262       -4.448       30.536       35.818       20.570      932.468     1282.907      423.111        0.492        0.132       84.760       13.624        0.026      341.270       15.865      863.044
08/12/2014  06:05:00      -45.037      -40.017        1.848       21.696       18.226       13.995      470.712      332.194      195.872        0.232        0.050       60.247       11.580        0.037      341.266       15.859      863.060
08/12/2014  06:06:00      -38.802      -36.338        1.582       29.932       15.672       14.791      895.907      245.615      218.776        0.209        0.068       53.161       16.849        0.100      341.310       15.935      863.088
08/12/2014  06:07:00      -42.116      -56.034        4.382       29.004       33.773       15.549      841.222     1140.626      241.779        0.358        0.111       70.097       17.354        0.061      341.503       16.261      863.113
08/12/2014  06:08:00       -1.147      -19.209        5.900       16.001       18.417       13.915      256.042      339.196      193.626        0.060        0.039       19.243        7.503        0.152      341.396       16.079      863.117
08/12/2014  06:09:00       20.421       21.088        8.456       26.800       24.228       19.930      718.245      586.976      397.211        0.132        0.085       29.355       18.686        0.405      341.340       15.985      863.115
08/12/2014  06:10:00       71.984       46.714       -3.583       29.699       31.825       27.240      882.018     1012.844      742.004        0.501        0.132       85.813       15.136        0.031      341.071       15.528      863.123
08/12/2014  06:11:00      135.015       74.873       10.170       36.839       26.878       28.190     1357.079      722.453      794.693        1.341        0.144      154.386       20.893        0.018      340.868       15.187      863.122
08/12/2014  06:12:00       76.294       66.151       19.703       37.286       30.104       30.012     1390.244      906.276      900.709        0.689        0.160      100.979       17.983        0.032      340.850       15.155      863.133
08/12/2014  06:13:00       49.831       54.655       46.583       45.591       29.623       22.419     2078.524      877.496      502.632        0.555        0.173       73.962        8.250        0.012      340.969       15.356      863.147
08/12/2014  06:14:00        6.202        0.593       39.167       18.697       23.257       16.155      349.567      540.892      260.993        0.136        0.058        6.230       10.960        3.095      341.085       15.553      863.162
08/12/2014  06:15:00       26.327      -23.322        7.614       27.509       27.637       23.789      756.759      763.829      565.924        0.169        0.104       35.171       23.245        0.437      341.167       15.691      863.182
08/12/2014  06:16:00       11.175       -7.688       20.346       16.725       19.342       18.282      279.722      374.098      334.246        0.079        0.049       13.564        6.843        0.254      341.126       15.622      863.207
08/12/2014  06:17:00      -26.005      -33.422       -2.167       28.017       32.919       12.089      784.973     1083.693      146.152        0.191        0.101       42.347       11.194        0.070      341.183       15.719      863.230
08/12/2014  06:18:00      -38.491      -16.646       -2.664       29.056       14.209       10.452      844.268      201.900      109.246        0.146        0.058       41.936        6.369        0.023      341.169       15.696      863.234
08/12/2014  06:19:00      -51.872      -32.365        3.117       30.546       20.528       12.502      933.040      421.382      156.305        0.263        0.076       61.141       13.423        0.048      341.191       15.732      863.226
08/12/2014  06:20:00      -81.348      -45.263        2.922       31.208       41.281       24.070      973.943     1704.084      579.367        0.597        0.163       93.093       20.059        0.046      341.291       15.902      863.208
08/12/2014  06:21:00      -97.658      -45.269       -1.647       33.499       33.247       15.314     1122.158     1105.382      234.513        0.703        0.123      107.640       14.929        0.019      341.307       15.929      863.191
08/12/2014  06:22:00      -76.754      -51.820        3.455       41.497       31.354       26.000     1722.024      983.057      676.008        0.598        0.169       92.610       23.469        0.064      341.258       15.846      863.199
08/12/2014  06:23:00      -58.816      -58.354       -1.653       22.298       20.316       13.626      497.187      412.735      185.679        0.398        0.055       82.853       12.156        0.022      341.320       15.952      863.200
08/12/2014  06:24:00      -49.617      -34.745       -1.098       16.004       14.008       10.298      256.119      196.219      106.047        0.211        0.028       60.573        7.717        0.016      341.312       15.937      863.200
08/12/2014  06:25:00      -59.871      -48.495        1.650       20.937       16.357       13.054      438.347      267.543      170.400        0.341        0.044       77.047       12.565        0.027      341.413       16.106      863.193
08/12/2014  06:26:00      -59.572      -52.011       -2.301       17.973       17.663       12.093      323.041      311.978      146.242        0.352        0.039       79.082       11.297        0.020      341.441       16.156      863.185
08/12/2014  06:27:00      -50.295      -28.492       -2.660       32.024       19.724       12.465     1025.517      389.020      155.388        0.246        0.078       57.805        6.271        0.012      341.401       16.088      863.170
08/12/2014  06:28:00      -56.574      -33.168       -6.124       44.130       24.255       18.098     1947.484      588.318      327.554        0.360        0.143       65.581       21.567        0.108      341.384       16.059      863.159
08/12/2014  06:29:00      -38.487      -45.534       10.171       33.163       25.910       20.373     1099.794      671.333      415.055        0.292        0.109       59.620       19.734        0.110      341.377       16.047      863.146
08/12/2014  06:30:00      -38.590      -41.313        6.422       27.474       32.525       17.631      754.838     1057.875      310.856        0.268        0.106       56.533       14.932        0.070      341.357       16.013      863.132
08/12/2014  06:31:00      -59.654      -56.715       -5.767       38.842       26.333       18.268     1508.692      693.417      333.737        0.467        0.127       82.312       18.915        0.053      341.364       16.024      863.107
08/12/2014  06:32:00      -56.167      -60.546       -2.139       35.270       33.556       15.440     1243.957     1126.025      238.381        0.472        0.130       82.586       10.418        0.016      341.327       15.963      863.087
08/12/2014  06:33:00      -91.161      -60.898       -9.450       25.759       22.388       16.685      663.545      501.210      278.385        0.678        0.072      109.631       13.660        0.016      341.238       15.812      863.068
08/12/2014  06:34:00     -109.027      -38.688      -11.673       30.160       23.570       20.685      909.598      555.559      427.870        0.771        0.095      115.687       19.886        0.030      341.209       15.763      863.042
08/12/2014  06:35:00     -103.051      -10.307       -1.571       29.817       22.478       16.708      889.079      505.275      279.144        0.620        0.084      103.565       13.543        0.017      341.091       15.565      863.028
08/12/2014  06:36:00     -104.609      -30.620       -0.824       36.181       35.128       22.876     1309.090     1233.961      523.290        0.747        0.153      108.999       18.324        0.028      341.053       15.501      863.023
08/12/2014  06:37:00     -151.712      -56.466        1.464       41.637       40.476       23.710     1733.633     1638.341      562.167        1.507        0.197      161.879       14.734        0.008      341.041       15.478      863.026
08/12/2014  06:38:00     -130.602      -38.873        2.755       53.555       38.396       24.330     2868.156     1474.289      591.968        1.175        0.247      136.264       25.784        0.036      340.982       15.378      863.032
08/12/2014  06:39:00     -112.954      -21.812        3.498       45.249       33.636       23.843     2047.454     1131.394      568.484        0.850        0.187      115.040       27.780        0.058      340.984       15.384      863.034
08/12/2014  06:40:00     -132.801      -44.174      -11.694       23.068       23.017       17.907      532.132      529.785      320.676        1.055        0.069      139.955        6.052        0.002      341.017       15.434      863.040
08/12/2014  06:41:00      -70.899      -52.552        1.372       33.801       40.935       21.654     1142.488     1675.690      468.874        0.554        0.164       88.252       20.034        0.052      341.007       15.420      863.043
08/12/2014  06:42:00     -101.300      -12.314       -7.053       21.041       18.142       15.617      442.744      329.121      243.880        0.574        0.051      102.046       14.789        0.021      341.049       15.489      863.046
08/12/2014  06:43:00     -141.694      -67.886       -8.918       28.127       35.173       18.530      791.155     1237.113      343.378        1.357        0.119      157.117       10.543        0.005      341.063       15.516      863.045
08/12/2014  06:44:00     -139.371      -61.778       -3.641       36.656       30.445       17.902     1343.648      926.878      320.488        1.292        0.130      152.449       14.711        0.009      341.070       15.529      863.036
08/12/2014  06:45:00      -88.106      -19.162       -4.434       26.246       25.112       19.832      688.832      630.622      393.292        0.493        0.086       90.166       13.928        0.024      341.065       15.520      863.022
08/12/2014  06:46:00      -87.325      -44.773       -5.381       52.603       27.423       17.275     2767.094      752.009      298.430        0.674        0.191       98.134       17.366        0.031      341.136       15.639      863.020
08/12/2014  06:47:00     -132.477      -61.806       -1.454       35.977       39.454       19.325     1294.374     1556.645      373.457        1.230        0.161      146.185       14.057        0.009      341.186       15.726      863.027
08/12/2014  06:48:00     -115.186      -63.014      -12.720       25.342       21.566       16.279      642.206      465.089      265.013        0.939        0.069      131.296        7.592        0.003      341.208       15.761      863.035
08/12/2014  06:49:00      -87.655      -46.103        2.427       42.553       25.305       19.470     1810.734      640.322      379.073        0.632        0.142       99.040       18.910        0.036      341.183       15.720      863.033
08/12/2014  06:50:00      -34.473      -51.974        7.227       37.178       38.817       26.387     1382.179     1506.737      696.252        0.376        0.179       62.368       27.129        0.189      341.219       15.779      863.042
08/12/2014  06:51:00      -11.184      -24.827       15.971       32.565       22.746       19.894     1060.492      517.387      395.790        0.148        0.099       27.230       18.255        0.449      341.255       15.841      863.050
08/12/2014  06:52:00      -46.443      -52.912        7.318       44.326       35.605       25.307     1964.817     1267.685      640.426        0.444        0.194       70.404       29.690        0.178      341.275       15.874      863.061
08/12/2014  06:53:00      -45.091      -58.658        3.229       32.675       32.577       18.369     1067.654     1061.271      337.411        0.397        0.123       73.987       18.965        0.066      341.303       15.922      863.064
08/12/2014  06:54:00      -60.468      -38.302       -0.711       19.985       18.896       12.481      399.389      357.059      155.765        0.302        0.046       71.578        9.125        0.016      341.323       15.957      863.052
08/12/2014  06:55:00      -46.013      -42.874       -4.640       19.321       13.658        9.193      373.296      186.533       84.516        0.231        0.032       62.892        1.546        0.001      341.317       15.946      863.044
08/12/2014  06:56:00      -40.524      -29.930       -2.064       15.170       12.295        7.454      230.133      151.160       55.558        0.149        0.022       50.379        5.443        0.012      341.334       15.974      863.022
08/12/2014  06:57:00      -37.079       -2.808        0.712        9.906       13.687        6.046       98.134      187.329       36.554        0.085        0.016       37.186        4.979        0.018      341.309       15.934      863.016
08/12/2014  06:58:00      -81.133       -3.539       -9.237       16.803       10.930        7.495      282.333      119.454       56.170        0.357        0.023       81.210        6.655        0.007      341.316       15.945      863.010
08/12/2014  06:59:00      -77.652      -15.636       -7.059       18.470       15.475       11.265      341.130      239.488      126.890        0.352        0.035       79.211       10.514        0.018      341.324       15.958      863.020
08/12/2014  07:00:00      -62.998       -0.748       -3.458       27.496       21.757       12.914      756.038      473.351      166.773        0.269        0.070       63.003       14.608        0.054      341.360       16.018      863.031
08/12/2014  07:01:00      -36.604      -33.427       -0.349       12.315       12.161        6.968      151.664      147.891       48.548        0.140        0.017       49.571        2.386        0.002      341.382       16.054      863.058
08/12/2014  07:02:00      -59.121      -40.342       -3.703       24.889       15.599       12.338      619.459      243.316      152.215        0.308        0.051       71.573        9.042        0.016      341.349       15.999      863.078
08/12/2014  07:03:00      -40.079      -28.218        6.062       40.266       24.212       22.771     1621.363      586.233      518.536        0.258        0.136       49.017       22.236        0.206      341.349       15.999      863.098
08/12/2014  07:04:00      -63.210      -60.798       10.399       58.744       44.981       26.758     3450.844     2023.328      715.990        0.699        0.310       87.703       30.906        0.124      341.373       16.039      863.133
08/12/2014  07:05:00      -94.891      -58.290        0.204       29.384       42.221       19.172      863.431     1782.620      367.566        0.771        0.151      111.365       15.381        0.019      341.395       16.075      863.152
08/12/2014  07:06:00      -60.552      -56.335        0.702       41.846       33.467       25.101     1751.108     1120.073      630.083        0.517        0.175       82.705       17.006        0.042      341.366       16.029      863.164
08/12/2014  07:07:00      -16.910      -35.111       14.838       35.085       25.490       20.684     1230.949      649.756      427.828        0.202        0.115       38.971       21.907        0.316      341.367       16.030      863.171
08/12/2014  07:08:00      -64.120      -48.640        0.816       40.283       24.321       16.879     1622.724      591.491      284.909        0.449        0.125       80.481       10.355        0.017      341.266       15.860      863.180
08/12/2014  07:09:00      -70.891      -66.423       -3.796       29.888       22.199       22.034      893.315      492.801      485.514        0.566        0.094       97.147       13.117        0.018      341.239       15.813      863.197
08/12/2014  07:10:00      -55.375      -62.074       -2.184       29.623       30.884       19.594      877.493      953.806      383.936        0.457        0.111       83.184       13.848        0.028      341.251       15.835      863.228
08/12/2014  07:11:00      -36.171      -49.939        3.087       43.365       26.086       22.002     1880.536      680.497      484.108        0.343        0.152       61.663       21.696        0.124      341.234       15.804      863.249
08/12/2014  07:12:00      -18.615      -51.731       10.921       38.038       34.263       23.355     1446.923     1173.980      545.472        0.315        0.158       54.978       13.493        0.060      341.261       15.850      863.269
08/12/2014  07:13:00      -52.857      -62.926        2.518       48.448       41.196       27.523     2347.231     1697.104      757.531        0.578        0.240       82.180       14.525        0.031      341.210       15.765      863.282
08/12/2014  07:14:00      -81.942      -53.911       -2.108       61.097       42.796       29.682     3732.815     1831.464      881.049        0.803        0.322       98.086       30.473        0.097      341.177       15.709      863.285
08/12/2014  07:15:00     -118.452      -97.785       -5.092       48.643       40.388       30.638     2366.119     1631.157      938.673        1.428        0.247      153.600       28.044        0.033      341.148       15.659      863.291
08/12/2014  07:16:00     -118.794      -91.933       -5.425       45.813       30.791       26.845     2098.858      948.098      720.676        1.318        0.188      150.212       28.044        0.035      341.181       15.715      863.300
08/12/2014  07:17:00     -101.339      -98.201       -4.812       32.410       37.326       16.629     1050.376     1393.240      276.513        1.133        0.136      141.114       11.530        0.007      341.228       15.796      863.303
08/12/2014  07:18:00      -70.574      -43.209       -4.061       22.189       27.818       19.804      492.336      773.843      392.190        0.426        0.083       82.750       16.236        0.038      341.269       15.863      863.293
08/12/2014  07:19:00      -74.291      -60.963       -5.359       22.503       18.614       16.319      506.402      346.482      266.304        0.519        0.056       96.102       13.202        0.019      341.302       15.919      863.279
08/12/2014  07:20:00      -66.244      -41.197       -3.053       14.589       11.022        7.083      212.833      121.486       50.172        0.324        0.019       78.010        4.586        0.003      341.381       16.057      863.268
08/12/2014  07:21:00      -48.078      -28.253       -9.658       14.072       12.352        8.169      198.012      152.563       66.731        0.181        0.021       55.765        6.804        0.015      341.418       16.117      863.270
08/12/2014  07:22:00      -55.417      -22.049       -0.035       20.484       14.695        9.178      419.578      215.948       84.245        0.214        0.036       59.642        6.229        0.011      341.414       16.111      863.263
08/12/2014  07:23:00      -38.577      -19.996       -2.312       13.641       12.895        6.911      186.090      166.270       47.766        0.115        0.020       43.452        4.658        0.011      341.458       16.183      863.267
08/12/2014  07:24:00      -33.694      -12.166       -5.503       10.429       13.231        7.347      108.755      175.069       53.983        0.083        0.017       35.823        4.656        0.017      341.464       16.193      863.275
08/12/2014  07:25:00      -26.966       -7.958       -1.280       11.988       12.064        6.336      143.721      145.541       40.149        0.056        0.016       28.115        5.768        0.042      341.502       16.257      863.283
08/12/2014  07:26:00      -13.426        3.721       -2.699        6.838       10.384        9.813       46.764      107.821       96.303        0.023        0.013       13.932        5.516        0.157      341.646       16.504      863.312
08/12/2014  07:27:00       -8.492      -12.065        1.198        6.877        7.000        6.876       47.300       48.999       47.281        0.018        0.007       14.754        4.689        0.101      341.630       16.477      863.343
08/12/2014  07:28:00      -24.231       -2.259       -4.468        9.989        8.154        7.118       99.779       66.492       50.662        0.041        0.011       24.336        6.191        0.065      341.698       16.591      863.371
08/12/2014  07:29:00      -44.157       -6.881        7.190        9.282       13.587        9.393       86.153      184.614       88.227        0.120        0.018       44.690        7.953        0.032      341.759       16.695      863.379
08/12/2014  07:30:00      -27.644       -2.867       -0.621        6.740        8.844        7.369       45.424       78.223       54.297        0.048        0.009       27.792        6.620        0.057      341.807       16.776      863.369
08/12/2014  07:31:00      -43.008        1.137       -7.309       15.391        5.799        5.630      236.896       33.626       31.695        0.110        0.015       43.023        5.103        0.014      341.740       16.664      863.359
08/12/2014  07:32:00      -68.792      -10.055       -6.367        6.724        7.448        5.127       45.218       55.477       26.285        0.250        0.006       69.522        2.962        0.002      341.734       16.655      863.328
08/12/2014  07:33:00      -59.269      -18.766       -0.362       17.309       13.249        8.870      299.605      175.537       78.683        0.221        0.028       62.169        8.147        0.017      341.754       16.687      863.315
08/12/2014  07:34:00      -69.289      -16.630        3.383       27.401       30.748       14.434      750.838      945.415      208.331        0.350        0.095       71.257       17.335        0.059      341.830       16.815      863.320
08/12/2014  07:35:00      -66.072      -11.493       -3.478       16.845       18.355       10.077      283.742      336.919      101.536        0.262        0.036       67.064        8.290        0.015      341.899       16.933      863.312
08/12/2014  07:36:00      -48.297        0.414       -2.211       28.877       23.279       14.568      833.870      541.912      212.214        0.196        0.079       48.299       14.230        0.087      342.092       17.260      863.314
08/12/2014  07:37:00      -41.134      -27.154       -3.028       15.297        7.349        6.099      233.984       54.008       37.203        0.138        0.016       49.288        7.336        0.022      341.997       17.099      863.305
08/12/2014  07:38:00      -15.983      -30.099        3.298        9.383       12.161        7.792       88.036      147.900       60.710        0.073        0.015       34.079        6.588        0.037      342.046       17.182      863.302
08/12/2014  07:39:00      -21.389      -32.235       -2.156       12.628       13.720       11.790      159.470      188.238      138.993        0.099        0.024       38.686        7.374        0.036      342.040       17.171      863.311
08/12/2014  07:40:00      -13.702      -33.923        0.083        8.416        9.993        8.857       70.821       99.853       78.444        0.079        0.012       36.585        5.679        0.024      342.056       17.202      863.319
08/12/2014  07:41:00      -15.824      -16.230       -1.832       12.873       13.956       11.186      165.705      194.765      125.132        0.050        0.024       22.667        8.383        0.137      342.191       17.427      863.329
08/12/2014  07:42:00      -30.796       -2.305       -2.334       10.913        5.765        7.982      119.102       33.235       63.717        0.059        0.011       30.882        3.525        0.013      342.146       17.351      863.302
08/12/2014  07:43:00      -20.550       10.619       10.602       14.429       13.522       16.281      208.195      182.833      265.064        0.065        0.033       23.132       11.405        0.243      342.652       18.212      863.258
08/12/2014  07:44:00      -20.224       13.113       -0.314        8.890        6.858       11.533       79.030       47.026      133.012        0.042        0.013       24.103        5.265        0.048      342.227       17.490      863.220
08/12/2014  07:45:00      -26.547       13.860       -4.612        7.082        6.080        5.587       50.157       36.966       31.212        0.052        0.006       29.948        3.399        0.013      342.157       17.373      863.178
08/12/2014  07:46:00      -22.802       26.986      -11.107       17.708       13.677       17.550      313.578      187.074      308.016        0.109        0.040       35.330       12.347        0.122      342.365       17.724      863.173
08/12/2014  07:47:00      -15.851       14.366       24.717       13.471       13.737       11.850      181.481      188.697      140.415        0.079        0.026       21.392        9.326        0.190      343.071       18.926      863.192
08/12/2014  07:48:00       -5.253        4.747       26.124        9.346       11.218        7.198       87.342      125.854       51.816        0.050        0.013        7.080        5.591        0.623      343.182       19.114      863.200
08/12/2014  07:49:00       16.022       20.353       35.622       20.204       13.006        8.381      408.210      169.147       70.249        0.129        0.032       25.903        8.477        0.107      342.822       18.500      863.213
08/12/2014  07:50:00       14.351       19.823       21.754       14.211       18.739       11.789      201.962      351.167      138.976        0.088        0.035       24.472       12.151        0.247      342.660       18.224      863.226
08/12/2014  07:51:00      -21.701      -16.771        1.421        7.682        7.152        8.205       59.013       51.155       67.323        0.047        0.009       27.426        5.626        0.042      342.466       17.895      863.227
08/12/2014  07:52:00      -22.136       -4.775       -0.915        9.170        7.738        7.448       84.097       59.873       55.470        0.036        0.010       22.645        5.037        0.049      342.511       17.972      863.212
08/12/2014  07:53:00       -8.461        0.590       20.976       10.515       30.970       20.893      110.576      959.126      436.515        0.101        0.075        8.482       23.323        7.561      342.990       18.787      863.210
08/12/2014  07:54:00        6.986      -12.453       35.802       17.132       43.667       19.107      293.520     1906.808      365.080        0.203        0.128       14.279       25.370        3.157      343.348       19.397      863.213
08/12/2014  07:55:00       27.624       -8.225       34.410       33.959       43.106       36.690     1153.197     1858.139     1346.150        0.319        0.218       28.822       37.117        1.658      343.133       19.031      863.225
08/12/2014  07:56:00       22.046        5.050       35.463       24.682       25.368       21.177      609.178      643.516      448.475        0.173        0.085       22.618       13.906        0.378      342.992       18.789      863.234
08/12/2014  07:57:00       25.260        2.682       33.678       34.058       53.454       29.588     1159.919     2857.279      875.479        0.334        0.245       25.402       37.073        2.130      342.976       18.764      863.256
08/12/2014  07:58:00       45.132      -48.541        3.495       29.238       29.275       27.785      854.865      857.042      772.015        0.344        0.124       66.281       21.990        0.110      342.799       18.462      863.273
08/12/2014  07:59:00       19.419      -46.459        6.510       21.738       31.972       33.450      472.547     1022.224     1118.888        0.260        0.131       50.354       23.991        0.227      343.093       18.962      863.288
08/12/2014  08:00:00      -10.498      -30.089       14.370       19.730       33.163       23.967      389.271     1099.802      574.406        0.164        0.103       31.868       21.910        0.473      343.095       18.966      863.285
08/12/2014  08:01:00      -23.174       10.353       25.724       21.078       20.024       19.740      444.290      400.941      389.659        0.127        0.062       25.381       17.810        0.492      343.162       19.081      863.269
08/12/2014  08:02:00      -12.022       -3.363        8.362       24.563       16.487       17.868      603.364      271.814      319.268        0.071        0.060       12.483       13.192        1.117      342.928       18.682      863.249
08/12/2014  08:03:00      -43.851      -18.235       -4.476       30.451       23.903       26.411      927.237      571.364      697.535        0.224        0.110       47.491       26.164        0.304      343.023       18.846      863.240
08/12/2014  08:04:00      -22.918       -0.844       28.485       21.559       25.648       18.566      464.799      657.796      344.706        0.140        0.073       22.933       19.643        0.734      343.537       19.720      863.244
08/12/2014  08:05:00       -4.798       25.252       49.959        8.595       20.831        9.345       73.876      433.921       87.327        0.188        0.030       25.704        5.671        0.049      343.598       19.823      863.244
08/12/2014  08:06:00        3.846      -36.338       31.649       20.668       49.849       20.980      427.175     2484.904      440.152        0.284        0.168       36.541       25.108        0.472      343.492       19.641      863.257
08/12/2014  08:07:00       38.661      -42.044       16.909       28.257       53.805       28.652      798.464     2894.942      820.952        0.403        0.226       57.117       27.332        0.229      343.115       18.999      863.283
08/12/2014  08:08:00        9.708      -56.560       24.126       21.148       36.532       26.432      447.232     1334.606      698.675        0.318        0.124       57.387       15.467        0.073      343.293       19.301      863.315
08/12/2014  08:09:00       15.038      -37.157       20.559       18.816       38.228       24.396      354.057     1461.377      595.179        0.222        0.121       40.085       20.478        0.261      343.282       19.284      863.331
08/12/2014  08:10:00       -7.887       13.521       30.460       10.085       26.761       24.781      101.698      716.159      614.112        0.130        0.072       15.653       21.160        1.827      343.449       19.568      863.338
08/12/2014  08:11:00      -19.167        5.040       16.300       19.584       25.562       22.753      383.551      653.425      517.682        0.111        0.078       19.818       20.599        1.080      343.100       18.975      863.334
08/12/2014  08:12:00      -10.094      -37.509       -0.211       29.129       29.454       22.638      848.477      867.515      512.465        0.187        0.111       38.844       10.008        0.066      342.885       18.608      863.327
08/12/2014  08:13:00      -64.711      -50.162       -3.215       25.149       22.752       16.868      632.475      517.648      284.516        0.407        0.072       81.876       11.855        0.021      342.665       18.232      863.334
08/12/2014  08:14:00      -81.546      -80.802       -4.249       35.716       23.787       20.899     1275.646      565.810      436.778        0.774        0.114      114.799       19.901        0.030      342.653       18.213      863.357
08/12/2014  08:15:00      -72.797      -39.905        5.239       50.656       31.046       22.131     2566.079      963.848      489.790        0.547        0.201       83.016       22.138        0.071      342.637       18.186      863.369
08/12/2014  08:16:00      -68.844      -90.012        7.200       48.298       48.624       26.709     2332.681     2364.301      713.359        0.915        0.271      113.321       24.893        0.048      342.654       18.214      863.383
08/12/2014  08:17:00      -91.554      -38.199        9.155       34.875       32.762       18.657     1216.266     1073.320      348.095        0.628        0.132       99.203       14.173        0.020      342.632       18.176      863.392
08/12/2014  08:18:00      -69.397      -76.108        0.230       25.324       30.714       14.533      641.313      943.346      211.203        0.620        0.090      102.997       12.737        0.015      342.648       18.204      863.386
08/12/2014  08:19:00      -66.332     -103.166       -5.967       29.545       32.755       16.685      872.919     1072.870      278.400        0.865        0.111      122.650       14.208        0.013      342.665       18.233      863.396
08/12/2014  08:20:00       -0.959      -13.340       26.929       24.463       22.282       14.034      598.456      496.469      196.941        0.110        0.065       13.374       10.393        0.604      343.006       18.814      863.395
08/12/2014  08:21:00      -43.182      -42.359        9.763       31.045       26.215       18.153      963.783      687.216      329.516        0.287        0.099       60.489       13.526        0.050      342.863       18.570      863.386
08/12/2014  08:22:00      -60.530      -61.914        1.529       38.236       35.369       19.796     1461.956     1250.934      391.865        0.530        0.155       86.587       23.615        0.074      342.788       18.444      863.377
08/12/2014  08:23:00      -53.237      -52.998        5.985       33.035       42.610       21.579     1091.318     1815.651      465.666        0.453        0.169       75.120       24.269        0.104      342.866       18.577      863.375
08/12/2014  08:24:00      -47.249      -45.136        5.920       30.922       42.825       18.777      956.160     1834.016      352.570        0.372        0.157       65.343       22.330        0.117      342.941       18.704      863.366
08/12/2014  08:25:00      -67.404      -36.980       -3.391       25.882       31.829       18.773      669.878     1013.075      352.442        0.398        0.102       76.882       15.106        0.039      342.808       18.476      863.350
08/12/2014  08:26:00      -76.479      -76.795      -11.400       14.680       18.678       12.151      215.517      348.854      147.643        0.629        0.036      108.381        5.313        0.002      342.776       18.423      863.346
08/12/2014  08:27:00      -49.080      -65.231       -4.865       18.324       26.767       12.802      335.756      716.480      163.902        0.395        0.061       81.633       12.237        0.022      342.839       18.528      863.357
08/12/2014  08:28:00      -75.389      -54.695       -7.463       21.953       25.064       13.077      481.935      628.187      171.013        0.501        0.064       93.140       10.904        0.014      342.871       18.584      863.359
08/12/2014  08:29:00      -74.521      -32.911       -8.651       16.655       15.847       15.326      277.405      251.120      234.882        0.374        0.038       81.465       13.016        0.026      342.904       18.642      863.356
08/12/2014  08:30:00      -64.550      -67.662       -2.919       24.429       40.351       18.890      596.786     1628.243      356.827        0.567        0.129       93.514       10.547        0.013      343.002       18.807      863.350
08/12/2014  08:31:00      -37.326     -109.423       -3.440       33.935       27.815       15.355     1151.558      773.646      235.786        0.777        0.108      115.614       12.327        0.011      342.970       18.751      863.325
08/12/2014  08:32:00      -42.733       22.522       14.558       37.864       29.458       22.617     1433.648      867.788      511.550        0.268        0.141       48.305       20.974        0.189      343.556       19.752      863.294
08/12/2014  08:33:00      -62.964       30.403       -0.386       28.845       27.100       27.164      832.055      734.429      737.890        0.360        0.115       69.920       19.074        0.074      343.289       19.296      863.273
08/12/2014  08:34:00      -65.391       12.220       -5.072       29.310       18.064       18.870      859.082      326.309      356.067        0.300        0.077       66.523       13.508        0.041      343.066       18.916      863.272
08/12/2014  08:35:00      -49.201       11.053       -5.226        6.704       10.882       10.081       44.947      118.409      101.631        0.142        0.013       50.428        4.395        0.008      343.044       18.878      863.295
08/12/2014  08:36:00      -56.361       15.344       -3.725       16.340       16.019       10.879      267.002      256.599      118.361        0.203        0.032       58.412        3.661        0.004      343.099       18.972      863.318
08/12/2014  08:37:00      -78.896       26.534       -6.561       20.664       13.199       10.645      427.001      174.226      113.309        0.384        0.036       83.239        8.382        0.010      343.166       19.086      863.336
08/12/2014  08:38:00      -19.733        7.371       10.906       25.398       16.212       20.860      645.057      262.830      435.159        0.095        0.067       21.064       17.578        0.696      344.138       20.745      863.331
08/12/2014  08:39:00      -35.418       16.282      -13.165       16.436       14.674       12.880      270.135      215.336      165.882        0.117        0.033       38.981       10.198        0.068      343.411       19.504      863.332
08/12/2014  08:40:00      -20.162       16.003       13.911       19.529       17.929       28.990      381.388      321.435      840.394        0.120        0.077       25.741       15.257        0.351      343.952       20.426      863.331
08/12/2014  08:41:00       57.585       40.492       33.369       29.043       25.065       25.078      843.470      628.236      628.885        0.408        0.105       70.397       11.073        0.025      343.735       20.056      863.322
08/12/2014  08:42:00       24.167       28.633       27.166       18.932       23.470       20.049      358.427      550.846      401.951        0.173        0.066       37.469       11.059        0.087      344.001       20.509      863.321
08/12/2014  08:43:00       -6.265        0.096       19.253       16.986       18.421       22.099      288.524      339.341      488.378        0.076        0.056        6.265       13.019        4.318      344.504       21.370      863.293
08/12/2014  08:44:00      -32.201       41.778       -3.233       22.878       34.959       21.298      523.406     1222.122      453.620        0.250        0.110       52.748        7.617        0.021      343.750       20.081      863.255
08/12/2014  08:45:00       -8.596       49.639        6.701       22.179       31.772       23.253      491.926     1009.440      540.689        0.231        0.102       50.377       14.100        0.078      344.378       21.154      863.223
08/12/2014  08:46:00      -20.780       51.797        9.660       29.410       45.599       26.003      864.972     2079.287      676.167        0.341        0.181       55.810       29.037        0.271      344.240       20.919      863.207
08/12/2014  08:47:00      -20.358       90.780        4.390       20.574       25.352       25.315      423.272      642.714      640.862        0.519        0.085       93.034       15.246        0.027      344.072       20.633      863.184
08/12/2014  08:48:00       -1.326       23.924       16.892       19.042       41.344       24.473      362.581     1709.305      598.905        0.176        0.134       23.961       20.810        0.754      344.369       21.138      863.167
08/12/2014  08:49:00       12.758       92.794       -5.612       31.535       51.722       29.988      994.484     2675.156      899.271        0.669        0.228       93.667       32.078        0.117      344.039       20.575      863.165
08/12/2014  08:50:00       18.511       61.348        2.944       27.998       44.581       23.792      783.905     1987.497      566.040        0.373        0.167       64.080       15.904        0.062      344.108       20.692      863.166
08/12/2014  08:51:00        1.034       63.741       13.743       39.651       47.708       28.311     1572.172     2276.068      801.499        0.445        0.232       63.749       32.663        0.263      343.989       20.489      863.163
08/12/2014  08:52:00       14.643       29.620       12.774       21.132       37.135       26.355      446.542     1379.030      694.570        0.189        0.126       33.042       27.067        0.671      344.206       20.860      863.169
08/12/2014  08:53:00      -33.059       46.464       -1.303       24.188       32.953       28.518      585.060     1085.924      813.260        0.287        0.124       57.025       23.681        0.172      344.205       20.860      863.161
08/12/2014  08:54:00      -59.651       17.576       -6.159       37.740       33.517       15.458     1424.308     1123.399      238.943        0.335        0.139       62.186       17.050        0.075      343.814       20.191      863.150
08/12/2014  08:55:00      -85.602      -54.317       -0.047       32.441       50.126       16.692     1052.417     2512.583      278.608        0.706        0.192      101.381       15.965        0.025      343.765       20.107      863.154
08/12/2014  08:56:00      -94.991      -19.896       -4.136       22.408       32.392       21.015      502.116     1049.266      441.625        0.571        0.100       97.052       16.689        0.030      343.773       20.120      863.163
08/12/2014  08:57:00      -91.381       18.673       -7.640       26.479       16.241       15.371      701.161      263.758      236.255        0.498        0.060       93.269       10.519        0.013      343.643       19.898      863.172
08/12/2014  08:58:00      -37.386      -16.649       -0.795       18.885       20.183       11.290      356.633      407.334      127.466        0.128        0.045       40.925        9.914        0.059      343.748       20.077      863.158
08/12/2014  08:59:00      -56.511       11.201        0.181       34.901       30.724       18.729     1218.094      943.972      350.760        0.292        0.126       57.610        9.965        0.030      343.958       20.435      863.121
08/12/2014  09:00:00      -45.096       -5.037       -8.315       17.545       12.511       12.125      307.829      156.516      147.014        0.137        0.031       45.376        7.089        0.024      343.997       20.502      863.099
08/12/2014  09:01:00        4.282      -19.943       11.427       29.371       13.629       10.878      862.676      185.754      118.341        0.086        0.058       20.398        9.127        0.200      344.137       20.742      863.079
08/12/2014  09:02:00        6.262       -6.139       24.565       20.650       35.923       13.125      426.429     1290.439      172.277        0.128        0.094        8.769       10.752        1.503      344.549       21.447      863.078
08/12/2014  09:03:00       41.928       57.732       -0.429       34.741       26.803       25.918     1206.918      718.394      671.759        0.384        0.130       71.351        8.604        0.015      344.490       21.345      863.079
08/12/2014  09:04:00       17.892       41.228        5.369       58.041       24.828       20.223     3368.751      616.434      408.956        0.322        0.220       44.943       10.781        0.058      344.613       21.556      863.085
08/12/2014  09:05:00      -18.335      -25.661        5.562       32.455       38.143       17.728     1053.353     1454.872      314.281        0.192        0.141       31.539       16.882        0.287      344.507       21.376      863.101
08/12/2014  09:06:00      -24.404      -75.883      -11.398       42.797       34.797       28.592     1831.584     1210.844      817.504        0.517        0.193       79.711       22.763        0.082      344.210       20.868      863.106
08/12/2014  09:07:00      -87.571      -53.138       -2.391       36.106       29.643       20.053     1303.674      878.715      402.110        0.654        0.129      102.433       20.510        0.040      344.238       20.916      863.092
08/12/2014  09:08:00      -61.019      -29.004       -6.740       17.424       26.519       15.274      303.590      703.251      233.282        0.292        0.062       67.562       14.553        0.046      344.180       20.815      863.067
08/12/2014  09:09:00      -22.603       -7.898       -2.082       17.575       22.156       12.900      308.891      490.899      166.411        0.077        0.048       23.944       13.184        0.303      344.360       21.122      863.052
08/12/2014  09:10:00      -45.842       -2.093        0.691       40.188       28.975       17.375     1615.063      839.577      301.879        0.243        0.138       45.890       13.131        0.082      344.588       21.513      863.048
08/12/2014  09:11:00      -73.552        3.240       -4.055       37.891       28.826       17.098     1435.763      830.912      292.333        0.400        0.128       73.624       13.189        0.032      344.233       20.906      863.052
08/12/2014  09:12:00      -57.567      -26.738       -1.311       26.228       18.813       16.141      687.914      353.931      260.519        0.267        0.065       63.473       10.113        0.025      344.239       20.915      863.051
08/12/2014  09:13:00      -56.622      -58.860        1.555       19.581       18.360       11.765      383.415      337.088      138.412        0.377        0.043       81.673        7.698        0.009      344.237       20.914      863.043
08/12/2014  09:14:00      -20.454      -46.150        3.449       26.590       24.624       25.872      707.045      606.341      669.361        0.227        0.099       50.479        8.232        0.027      344.397       21.186      863.044
08/12/2014  09:15:00      -28.951      -18.161      -11.165       14.784       13.422       14.132      218.565      180.146      199.720        0.095        0.030       34.176        5.576        0.027      344.343       21.094      863.042
08/12/2014  09:16:00      -16.456       -0.984        1.535        9.671       15.064       15.707       93.522      226.910      246.717        0.042        0.028       16.485        9.682        0.345      344.675       21.661      863.035
08/12/2014  09:17:00      -23.350      -69.630       -5.596       21.151       28.803       17.833      447.383      829.606      318.004        0.351        0.080       73.441       10.085        0.019      344.553       21.453      863.032
08/12/2014  09:18:00      -32.785      -35.926       -0.532       23.477       19.797       15.786      551.193      391.921      249.184        0.178        0.060       48.637        9.988        0.042      344.660       21.637      863.053
08/12/2014  09:19:00      -43.475      -23.358       10.501       57.290       35.207       32.894     3282.151     1239.536     1082.026        0.407        0.280       49.352       23.694        0.230      344.731       21.757      863.072
08/12/2014  09:20:00      -83.789      -75.053       -2.151       57.162       50.114       27.960     3267.537     2511.407      781.775        0.961        0.328      112.488       26.078        0.054      344.501       21.364      863.078
08/12/2014  09:21:00      -79.442      -87.815       -9.070       32.192       58.225       20.670     1036.297     3390.157      427.248        0.948        0.243      118.417       15.013        0.016      344.334       21.079      863.062
08/12/2014  09:22:00      -58.822      -36.374       -2.713       29.497       42.139       19.970      870.086     1775.679      398.810        0.392        0.152       69.160       18.345        0.070      344.413       21.214      863.025
08/12/2014  09:23:00      -24.786       25.643        5.706       24.083       24.223       25.171      579.994      586.755      633.569        0.155        0.090       35.664       12.225        0.117      344.843       21.949      862.994
08/12/2014  09:24:00      -46.091      -10.062       -1.468       25.433       24.238       13.060      646.816      587.482      170.557        0.182        0.070       47.177       11.534        0.060      344.494       21.352      862.996
08/12/2014  09:25:00        0.179      -19.277       18.205       31.175       25.244       20.856      971.901      637.240      434.978        0.137        0.102       19.277       17.954        0.867      344.947       22.128      863.026
08/12/2014  09:26:00      -57.196      -41.938       10.675       41.971       27.142       19.868     1761.555      736.663      394.738        0.402        0.145       70.924       24.909        0.123      344.697       21.700      863.039
08/12/2014  09:27:00      -45.553      -26.108       -4.406       20.831       18.559       16.440      433.949      344.431      270.273        0.191        0.052       52.504       14.749        0.079      344.663       21.643      863.026
08/12/2014  09:28:00      -46.856      -15.206       -6.844       12.433       21.818        7.527      154.580      476.045       56.654        0.158        0.034       49.262        3.107        0.004      344.552       21.451      863.007
08/12/2014  09:29:00      -69.236       31.494        2.199       25.533       21.442       22.457      651.943      459.747      504.323        0.370        0.081       76.063       13.382        0.031      344.541       21.433      862.984
08/12/2014  09:30:00      -54.117       25.703      -17.680       13.926       19.816       11.693      193.941      392.687      136.715        0.231        0.036       59.911        8.004        0.018      344.640       21.601      862.952
08/12/2014  09:31:00      -34.412      -10.399       -5.781        9.407       10.071        5.068       88.499      101.425       25.689        0.077        0.011       35.949        4.797        0.018      344.598       21.531      862.929
08/12/2014  09:32:00      -37.559      -18.323       -0.473       27.032       19.749       17.327      730.702      390.017      300.219        0.158        0.071       41.790       12.881        0.095      344.907       22.058      862.931
08/12/2014  09:33:00      -19.584       -7.446       -2.647       24.043       17.183       14.327      578.048      295.242      205.263        0.076        0.054       20.952        8.757        0.175      345.176       22.521      862.939
08/12/2014  09:34:00       -3.196       16.241       32.542       52.541       42.277       54.600     2760.558     1787.360     2981.205        0.443        0.376       16.553       43.028        6.757      345.248       22.647      862.949
08/12/2014  09:35:00       93.431       98.356       80.214       68.659       54.087       53.858     4714.087     2925.380     2900.640        1.769        0.527      135.659       45.638        0.113      344.810       21.894      862.922
08/12/2014  09:36:00      106.943       71.694       34.670       39.504       33.352       36.442     1560.574     1112.382     1327.995        1.089        0.200      128.751       26.172        0.041      344.707       21.716      862.919
08/12/2014  09:37:00       12.792      -40.449      -10.636       22.135       66.942       22.086      489.971     4481.168      487.775        0.368        0.273       42.423       32.145        0.574      344.706       21.715      862.919
08/12/2014  09:38:00        3.206      -24.819       25.949       37.423       44.924       25.148     1400.460     2018.148      632.422        0.267        0.203       25.026       25.119        1.008      345.399       22.903      862.933
08/12/2014  09:39:00       25.612      -56.104       31.428       44.324       79.663       34.645     1964.624     6346.141     1200.296        0.715        0.476       61.674       28.403        0.212      345.435       22.964      862.933
08/12/2014  09:40:00       43.775       57.073       44.496       48.130       41.738       35.389     2316.539     1742.065     1252.395        0.623        0.266       71.928       24.801        0.119      345.646       23.327      862.922
08/12/2014  09:41:00       32.796       44.336       40.023       49.705       44.670       47.746     2470.592     1995.424     2279.636        0.569        0.337       55.147       29.961        0.295      345.405       22.912      862.913
08/12/2014  09:42:00      117.922       38.325       39.730       45.453       53.504       42.900     2065.985     2862.709     1840.442        1.186        0.338      123.994       22.501        0.033      344.880       22.014      862.912
08/12/2014  09:43:00       68.955       29.354       29.287       54.557       38.476       44.057     2976.426     1480.392     1941.054        0.643        0.320       74.943       36.471        0.237      345.179       22.525      862.910
08/12/2014  09:44:00      106.155       70.778       36.266       42.986       30.306       41.922     1847.832      918.477     1757.438        1.106        0.226      127.587       34.135        0.072      344.860       21.980      862.917
08/12/2014  09:45:00       17.769       29.469       65.732       30.334       42.021       32.149      920.128     1765.757     1033.562        0.461        0.186       34.412       25.948        0.569      345.483       23.045      862.904
08/12/2014  09:46:00       15.843       39.645       40.709       42.864       51.517       32.866     1837.319     2653.981     1080.196        0.452        0.279       42.694       29.337        0.472      345.621       23.282      862.858
08/12/2014  09:47:00      132.131       71.666       17.745       70.459       41.004       55.209     4964.453     1681.292     3048.070        1.630        0.485      150.315       41.011        0.074      345.100       22.389      862.843
08/12/2014  09:48:00       53.977       51.806        0.611       37.720       34.257       27.870     1422.812     1173.530      776.739        0.448        0.169       74.815       19.377        0.067      345.272       22.684      862.869
08/12/2014  09:49:00       54.141       47.109       10.068       37.630       30.341       27.026     1416.027      920.554      730.407        0.416        0.153       71.767       23.947        0.111      345.230       22.611      862.919
08/12/2014  09:50:00       -1.041       22.705      -10.681       36.315       43.368       17.238     1318.744     1880.798      297.156        0.206        0.175       22.729       15.521        0.466      345.048       22.300      862.962
08/12/2014  09:51:00      -28.938       -8.643       -3.686       17.064       29.402       24.458      291.192      864.494      598.200        0.134        0.088       30.201       13.884        0.211      345.310       22.749      863.026
08/12/2014  09:52:00       42.610      -49.713       -6.193       43.098       36.441       33.556     1857.403     1327.979     1126.037        0.432        0.216       65.475       26.190        0.160      345.549       23.158      863.058
08/12/2014  09:53:00       -6.261       31.468       58.897       14.605       30.562       24.461      213.301      934.057      598.339        0.312        0.087       32.085       24.182        0.568      346.226       24.322      863.047
08/12/2014  09:54:00       31.145      -28.797       20.316       31.870       41.889       31.073     1015.677     1754.695      965.504        0.297        0.187       42.418       30.808        0.528      345.738       23.484      863.027
08/12/2014  09:55:00        3.827        1.287       22.500       27.969       27.390       32.718      782.275      750.190     1070.498        0.156        0.130        4.038       27.278       45.644      346.270       24.399      863.019
08/12/2014  09:56:00      -30.260       -2.707       22.234       33.323       30.889       24.828     1110.396      954.138      616.434        0.205        0.134       30.381       22.015        0.525      345.943       23.834      863.005
08/12/2014  09:57:00        9.694      -52.597       21.346       41.962       39.205       30.668     1760.772     1537.030      940.506        0.378        0.212       53.483       12.261        0.053      345.680       23.384      862.966
08/12/2014  09:58:00        7.144      -99.534       -1.635       26.313       16.200       14.513      692.378      262.426      210.641        0.556        0.058       99.790        6.962        0.005      344.969       22.166      862.950
08/12/2014  09:59:00       -0.367       -3.206       20.900       20.646       49.348       23.314      426.246     2435.220      543.552        0.193        0.170        3.227       26.414       67.013      345.992       23.920      862.893
08/12/2014  10:00:00       21.408       65.253       30.540       51.042       28.256       32.503     2605.296      798.381     1056.468        0.505        0.223       68.675       25.396        0.137      346.001       23.935      862.854
08/12/2014  10:01:00       -3.601       35.776        9.875       27.596       34.922       33.095      761.533     1219.548     1095.304        0.223        0.154       35.957       22.745        0.400      345.890       23.744      862.864
08/12/2014  10:02:00       -5.739        6.481       31.748       23.591       26.313       21.924      556.545      692.367      480.646        0.141        0.086        8.657       10.011        1.337      346.226       24.320      862.885
08/12/2014  10:03:00       22.807      -49.919       28.625       41.398       33.572       33.694     1713.763     1127.081     1135.299        0.390        0.199       54.882       26.948        0.241      345.819       23.623      862.904
08/12/2014  10:04:00       39.400      -67.576       14.469       47.937       60.652       33.106     2297.968     3678.664     1096.027        0.670        0.354       78.223       27.314        0.122      345.913       23.785      862.902
08/12/2014  10:05:00       33.028      -26.412       12.646       30.909       47.208       26.356      955.358     2228.603      694.657        0.291        0.194       42.290       20.334        0.231      345.915       23.788      862.909
08/12/2014  10:06:00       21.374      -60.870       16.327       34.960       57.887       40.514     1222.189     3350.851     1641.402        0.532        0.311       64.514       40.831        0.401      345.819       23.623      862.900
08/12/2014  10:07:00        7.070       20.618       63.065       29.437       65.615       43.738      866.553     4305.363     1913.003        0.577        0.354       21.796       44.063        4.087      346.043       24.006      862.910
08/12/2014  10:08:00       26.901       50.801       52.748       39.137       34.839       25.431     1531.729     1213.733      646.744        0.474        0.170       57.484       21.780        0.144      345.825       23.633      862.925
08/12/2014  10:09:00       10.084       16.776       49.392       38.350       28.992       27.878     1470.730      840.549      777.166        0.295        0.154       19.574       27.425        1.963      346.170       24.226      862.933
08/12/2014  10:10:00      -29.662       15.628       30.384       30.034       23.610       16.929      902.024      557.428      286.605        0.190        0.087       33.528       16.205        0.234      346.245       24.355      862.904
08/12/2014  10:11:00      -14.776       38.075       -8.279       28.061       24.154       30.013      787.425      583.403      900.763        0.200        0.114       40.842       10.384        0.065      345.836       23.651      862.879
08/12/2014  10:12:00      -50.511      -23.704       -1.726       37.598       19.238       24.430     1413.626      370.107      596.818        0.275        0.119       55.796       23.025        0.170      345.425       22.946      862.868
08/12/2014  10:13:00        3.718       11.315       18.216       35.169       26.701       28.020     1236.859      712.948      785.094        0.160        0.137       11.910       17.885        2.255      345.879       23.726      862.852
08/12/2014  10:14:00       64.366       54.794        7.015       42.471       36.997       33.095     1803.812     1368.812     1095.246        0.573        0.213       84.530       20.863        0.061      345.838       23.653      862.810
08/12/2014  10:15:00      116.449       79.365       27.986       58.576       40.090       44.037     3431.147     1607.244     1939.296        1.381        0.349      140.923       24.024        0.029      345.691       23.403      862.841
08/12/2014  10:16:00       12.314      -31.193       56.044       39.710       75.576       32.347     1576.913     5711.710     1046.299        0.630        0.417       33.535       40.021        1.424      346.314       24.472      862.873
08/12/2014  10:17:00        8.084       23.622       30.980       35.358       39.887       27.288     1250.194     1590.937      744.628        0.258        0.179       24.967       16.728        0.449      346.731       25.190      862.866
08/12/2014  10:18:00       86.379       60.578       43.899       71.700       49.623       58.057     5140.926     2462.465     3370.655        1.201        0.549      105.503       55.306        0.275      345.903       23.769      862.839
08/12/2014  10:19:00       95.603       24.210       13.602       44.097       45.653       37.378     1944.556     2084.209     1397.124        0.767        0.271       98.621       24.250        0.060      345.871       23.710      862.825
08/12/2014  10:20:00        5.649       36.388       16.553       45.979       40.032       42.741     2114.034     1602.557     1826.785        0.359        0.277       36.824       32.800        0.793      346.426       24.665      862.797
08/12/2014  10:21:00       17.448       67.431       89.613       52.105       45.942       38.257     2714.909     2110.688     1463.586        0.958        0.314       69.651       29.279        0.177      346.608       24.978      862.763
08/12/2014  10:22:00       32.602       37.679       80.095       76.008       74.331       41.307     5777.173     5525.058     1706.303        1.095        0.650       49.825       34.735        0.486      346.338       24.515      862.747
08/12/2014  10:23:00       71.154       77.073       60.518       60.496       45.838       43.654     3659.819     2101.165     1905.712        1.116        0.383      104.896       33.467        0.102      345.898       23.756      862.769
08/12/2014  10:24:00        5.285       35.866       51.485       25.001       32.080       26.956      625.060     1029.131      726.607        0.317        0.119       36.253       19.416        0.287      346.743       25.212      862.786
08/12/2014  10:25:00       79.421       70.413       46.877       87.313       39.834       40.999     7623.484     1586.744     1680.932        1.217        0.545      106.140       50.576        0.227      346.208       24.292      862.805
08/12/2014  10:26:00      102.219       43.026       15.482       41.649       33.969       45.652     1734.607     1153.920     2084.140        0.876        0.249      110.905       31.983        0.083      345.932       23.816      862.772
08/12/2014  10:27:00       99.264       76.910       20.237       65.614       39.086       39.684     4305.206     1527.680     1574.831        1.179        0.370      125.573       22.574        0.032      345.989       23.914      862.746
08/12/2014  10:28:00      102.663       57.985       14.393       56.823       43.576       39.711     3228.826     1898.843     1576.941        1.041        0.335      117.906       30.408        0.067      346.094       24.094      862.718
08/12/2014  10:29:00       48.015      -86.338        0.668       51.017       42.651       29.585     2602.710     1819.078      875.261        0.753        0.265       98.791       26.711        0.073      346.027       23.979      862.768
08/12/2014  10:30:00       17.655       -2.727       36.033       26.574       32.146       26.213      706.166     1033.394      687.108        0.202        0.121       17.864       15.165        0.721      346.771       25.260      862.772
08/12/2014  10:31:00       -3.693       77.627      108.263       31.408       52.363       32.085      986.436     2741.932     1029.458        1.126        0.238       77.715       32.882        0.179      346.449       24.705      862.770
08/12/2014  10:32:00       22.937       67.036       83.856       38.955       59.761       44.506     1517.458     3571.404     1980.784        0.956        0.353       70.852       42.227        0.355      346.174       24.230      862.785
08/12/2014  10:33:00        0.981       24.541       38.044       27.922       38.950       25.985      779.652     1517.121      675.195        0.251        0.149       24.561       26.266        1.144      346.628       25.014      862.799
08/12/2014  10:34:00      -40.660      -24.735       10.172       52.912       29.957       25.325     2799.718      897.402      641.347        0.335        0.217       47.593       23.501        0.244      346.287       24.427      862.787
08/12/2014  10:35:00      -68.304      -29.112        1.011       45.084       30.060       20.892     2032.577      903.584      436.476        0.444        0.169       74.249        9.178        0.015      346.082       24.073      862.768
08/12/2014  10:36:00       -9.045      -74.786       -8.872       70.442       67.183       25.596     4962.073     4513.530      655.156        0.794        0.507       75.331       37.817        0.252      346.012       23.954      862.768
08/12/2014  10:37:00        9.237      -65.604       -3.227       45.662       37.789       48.322     2084.988     1428.042     2334.998        0.512        0.292       66.251       26.227        0.157      346.315       24.474      862.779
08/12/2014  10:38:00       -0.324       61.742       92.946       28.201       55.248       41.047      795.315     3052.290     1684.864        0.899        0.277       61.742       36.952        0.358      346.729       25.187      862.728
08/12/2014  10:39:00        5.240      111.502      135.192       42.818       61.467       37.794     1833.385     3778.217     1428.378        1.889        0.352      111.625       40.713        0.133      346.227       24.322      862.688
08/12/2014  10:40:00       21.210       92.699      109.107       52.516       50.649       34.744     2757.979     2565.298     1207.175        1.374        0.327       95.095       35.716        0.141      346.212       24.297      862.662
08/12/2014  10:41:00       89.123      109.441       87.352       96.237       43.709       55.900     9261.528     1910.448     3124.857        2.092        0.715      141.139       55.161        0.153      346.189       24.255      862.605
08/12/2014  10:42:00       12.968       24.163       36.146       45.218       46.045       21.454     2044.647     2120.128      460.280        0.334        0.231       27.423       23.695        0.747      346.322       24.486      862.678
08/12/2014  10:43:00       11.108      -42.750       11.469       34.529       46.873       32.245     1192.221     2197.077     1039.740        0.325        0.221       44.170       28.131        0.406      346.654       25.056      862.700
08/12/2014  10:44:00       22.307       47.764       52.124       35.548       38.084       20.758     1263.645     1450.395      430.882        0.432        0.157       52.717       15.567        0.087      346.870       25.431      862.697
08/12/2014  10:45:00       37.668      -28.917       33.293       48.646       77.073       36.444     2366.417     5940.171     1328.137        0.650        0.482       47.487       35.272        0.552      346.956       25.577      862.723
08/12/2014  10:46:00       50.298     -133.850      -12.637       62.486       76.599       45.668     3904.459     5867.378     2085.550        1.623        0.593      142.989       32.929        0.053      346.469       24.738      862.733
08/12/2014  10:47:00       31.750       44.790       56.644       26.814       25.856       17.348      718.973      668.558      300.958        0.396        0.084       54.902        8.512        0.024      346.775       25.265      862.673
08/12/2014  10:48:00       78.022       62.689       10.309       49.640       39.716       34.102     2464.110     1577.397     1162.954        0.766        0.260      100.086       12.984        0.017      346.675       25.094      862.611
08/12/2014  10:49:00       25.845       11.504       56.666       70.733       67.190       51.304     5003.186     4514.537     2632.138        0.808        0.607       28.290       45.703        2.610      347.114       25.850      862.561
08/12/2014  10:50:00       70.410      -35.317       49.071       88.544       89.726       64.174     7840.062     8050.750     4118.276        1.431        1.000       78.771       57.079        0.525      347.042       25.724      862.554
08/12/2014  10:51:00       64.574      116.909      138.684       70.520       83.151       51.627     4973.038     6914.140     2665.366        2.581        0.728      133.557       43.438        0.106      346.771       25.255      862.597
08/12/2014  10:52:00       88.712      133.035       85.916       87.137       62.064       51.734     7592.807     3851.989     2676.453        2.353        0.706      159.900       43.692        0.075      346.693       25.122      862.585
08/12/2014  10:53:00       67.749      -45.486       42.407       74.509      120.305       57.332     5551.636    14473.266     3286.983        1.588        1.166       81.602       66.724        0.669      347.126       25.871      862.545
08/12/2014  10:54:00       60.739     -152.732       22.261       61.985      128.206       75.996     3842.153    16436.663     5775.322        2.678        1.303      164.366       89.023        0.293      346.607       24.973      862.517
08/12/2014  10:55:00       -2.092       28.878       71.420       30.851       43.175       31.391      951.787     1864.084      985.394        0.487        0.190       28.954       31.153        1.158      347.401       26.344      862.458
08/12/2014  10:56:00       53.586       76.601       83.512       70.848       62.013       42.576     5019.498     3845.551     1812.703        1.319        0.534       93.484       28.832        0.095      347.084       25.797      862.468
08/12/2014  10:57:00       58.328      -51.962       40.230       93.384      132.324       57.810     8720.535    17509.703     3342.036        1.864        1.479       78.116       70.610        0.817      347.221       26.031      862.504
08/12/2014  10:58:00      148.133     -202.034      -39.734      113.188      148.882       68.115    12811.600    22165.850     4639.654        5.197        1.981      250.522       58.653        0.055      346.757       25.232      862.534
08/12/2014  10:59:00       40.708     -145.162       -8.397       98.507      129.158       71.030     9703.562    16681.777     5045.241        2.711        1.572      150.762       47.401        0.099      346.879       25.443      862.530
08/12/2014  11:00:00      158.414     -330.991      -16.800      103.077      119.819       77.928    10624.863    14356.653     6072.811        8.299        1.553      366.947       66.706        0.033      346.811       25.323      862.512
08/12/2014  11:01:00       77.764      -46.485       44.616       80.027      147.400       79.707     6404.394    21726.737     6353.132        2.233        1.724       90.598       98.780        1.189      347.198       25.990      862.501
08/12/2014  11:02:00      125.321     -164.709      -21.703       81.418       93.551       66.235     6628.824     8751.770     4387.050        3.153        0.988      206.964       60.144        0.084      347.190       25.977      862.481
08/12/2014  11:03:00       53.122     -146.574      -23.725      131.154       89.898       63.484    17201.390     8081.634     4030.240        2.709        1.466      155.904       60.492        0.151      346.843       25.380      862.477
08/12/2014  11:04:00       48.200     -126.226       12.155       84.712       86.039       59.306     7176.056     7402.679     3517.238        1.825        0.905      135.116       55.292        0.167      347.168       25.939      862.463
08/12/2014  11:05:00       64.444       57.899       66.309       87.326      113.428       61.930     7625.768    12865.915     3835.366        1.811        1.216       86.633       53.185        0.377      347.280       26.134      862.435
08/12/2014  11:06:00       12.176      -72.742       32.288       45.160       73.950       38.522     2039.457     5468.648     1483.932        0.774        0.450       73.754       41.297        0.314      347.584       26.659      862.438
08/12/2014  11:07:00       70.401      -16.247       53.731      112.482      105.029       59.529    12652.185    11030.986     3543.723        1.766        1.361       72.251       61.514        0.725      347.678       26.821      862.420
08/12/2014  11:08:00      163.006     -225.361       -4.877       94.376      149.120       75.878     8906.893    22236.817     5757.514        5.713        1.845      278.134       80.200        0.083      347.256       26.091      862.412
08/12/2014  11:09:00      262.668     -277.647      -26.724       87.671      167.931       67.448     7686.226    28200.765     4549.200        9.361        2.022      382.207       65.409        0.029      347.027       25.695      862.441
08/12/2014  11:10:00       96.547     -257.256      -15.799      139.735      134.667       94.084    19526.007    18135.247     8851.804        6.112        2.326      274.776       80.834        0.087      347.037       25.713      862.436
08/12/2014  11:11:00      131.333     -281.136      -41.645      126.859      119.338       73.272    16093.140    14241.572     5368.853        6.685        1.785      310.300       74.426        0.058      346.977       25.608      862.402
08/12/2014  11:12:00       99.718     -172.758       18.511      102.943      136.092       60.135    10597.188    18521.028     3616.161        3.643        1.637      199.472       69.478        0.121      347.143       25.897      862.398
08/12/2014  11:13:00       46.881     -119.682        9.929      110.549      115.641       58.565    12220.987    13372.783     3429.861        2.282        1.451      128.537       74.251        0.334      347.338       26.234      862.427
08/12/2014  11:14:00      146.468     -125.460       14.439      106.081      104.405       74.566    11253.128    10900.415     5560.099        3.255        1.386      192.855       73.897        0.147      347.011       25.670      862.423
08/12/2014  11:15:00       31.794      -94.717       23.829       89.072       94.151       60.594     7933.805     8864.479     3671.640        1.551        1.023       99.910       60.177        0.363      347.269       26.114      862.404
08/12/2014  11:16:00       60.233      -56.954       77.868      106.002      134.148      121.095    11236.417    17995.613    14663.920        2.841        2.195       82.896       95.247        1.320      347.259       26.096      862.383
08/12/2014  11:17:00        3.410      106.383      211.035       86.239      124.610       84.810     7437.218    15527.750     7192.787        4.301        1.508      106.438       83.717        0.619      347.305       26.174      862.343
08/12/2014  11:18:00      184.338     -159.848       21.951      152.257      129.632       97.940    23182.208    16804.510     9592.213        5.479        2.479      243.991       90.317        0.137      347.091       25.805      862.408
08/12/2014  11:19:00       93.564     -193.396       -5.215      148.504      159.496       92.909    22053.392    25439.054     8632.171        5.114        2.806      214.840       90.985        0.179      347.156       25.919      862.404
08/12/2014  11:20:00      -84.202     -105.984      -16.352       67.272       94.017       61.236     4525.531     8839.221     3749.840        1.785        0.856      135.361       43.141        0.102      347.050       25.738      862.320
08/12/2014  11:21:00      -10.448     -220.310        9.347      150.209      169.279      116.000    22562.672    28655.234    13456.106        5.669        3.234      220.557       75.373        0.117      347.042       25.723      862.304
08/12/2014  11:22:00      -16.104     -142.832       25.665      125.400      132.987       74.502    15725.223    17685.614     5550.505        3.013        1.948      143.737       59.201        0.170      347.160       25.926      862.367
08/12/2014  11:23:00       10.654     -242.071       24.785      143.587      187.208       88.288    20617.366    35046.791     7794.840        6.138        3.173      242.305       90.254        0.139      347.048       25.731      862.351
08/12/2014  11:24:00       23.178     -181.636       14.646      112.413      152.288       74.031    12636.761    23191.516     5480.573        3.752        2.065      183.109       79.382        0.188      347.268       26.113      862.354
08/12/2014  11:25:00        0.895     -114.492       20.918       94.082      118.018       60.278     8851.414    13928.264     3633.483        1.997        1.321      114.496       49.046        0.183      347.475       26.470      862.336
08/12/2014  11:26:00       15.498     -165.910       14.707      130.095      138.756       88.572    16924.692    19253.227     7845.030        3.599        2.201      166.632       65.604        0.155      347.399       26.337      862.283
08/12/2014  11:27:00       55.751     -264.878       -0.584      190.551      169.768       83.625    36309.651    28821.280     6993.112        7.268        3.606      270.681       74.290        0.075      347.264       26.104      862.277
08/12/2014  11:28:00      -14.584     -228.696        4.405       93.358      127.568       63.394     8715.682    16273.719     4018.850        4.077        1.450      229.161       52.172        0.052      347.226       26.040      862.249
08/12/2014  11:29:00       10.241     -102.777      -21.292       57.112       76.234       41.670     3261.757     5811.610     1736.430        1.096        0.540      103.286       30.528        0.087      347.426       26.385      862.244
08/12/2014  11:30:00      -55.329     -100.904       10.567       70.810       92.091       48.728     5013.989     8480.722     2374.395        1.461        0.793      115.078       49.487        0.185      347.422       26.378      862.247
08/12/2014  11:31:00      -75.047     -101.712       -3.999      106.611       94.928       50.445    11365.914     9011.349     2544.747        1.945        1.146      126.402       34.653        0.075      347.373       26.295      862.233
08/12/2014  11:32:00      -50.880     -110.094       -3.901      102.974      126.420       61.960    10603.585    15981.909     3839.091        2.257        1.521      121.282       64.361        0.282      347.610       26.702      862.239
08/12/2014  11:33:00        9.068       13.252       74.099       81.397      111.657       76.376     6625.424    12467.395     5833.315        1.533        1.246       16.058       72.779       20.542      348.070       27.498      862.267
08/12/2014  11:34:00       -1.416      -78.408        3.127      128.896      101.173       53.870    16614.060    10236.037     2901.941        1.795        1.488       78.421       49.424        0.397      347.768       26.976      862.280
08/12/2014  11:35:00       80.652     -203.331        5.797      153.835      131.244       80.749    23665.138    17224.982     6520.397        4.764        2.371      218.742       76.641        0.123      347.652       26.774      862.199
08/12/2014  11:36:00       93.549       22.580      146.888      129.568      212.257      119.122    16787.759    45053.210    14190.044        5.342        3.802       96.235      151.745        2.486      347.712       26.876      862.135
08/12/2014  11:37:00       94.476     -104.664       48.215      108.257      125.773      101.454    11719.669    15818.905    10292.826        3.001        1.892      140.998       90.709        0.414      347.887       27.179      862.163
08/12/2014  11:38:00       46.740      -92.956       24.346      101.062      111.477       69.896    10213.460    12427.146     4885.495        1.947        1.376      104.045       51.051        0.241      347.904       27.210      862.199
08/12/2014  11:39:00       36.550     -204.970        2.199      140.667      168.427       85.433    19787.189    28367.667     7298.772        4.939        2.773      208.203       94.166        0.205      347.702       26.862      862.202
08/12/2014  11:40:00      -42.732     -288.334       25.127      128.994      278.352      120.985    16639.359    77479.981    14637.351        9.715        5.438      291.483      145.563        0.249      347.498       26.507      862.200
08/12/2014  11:41:00      -17.255     -261.410       -0.952      168.021      153.125       89.130    28230.998    23447.264     7944.092        6.412        2.981      261.979       75.216        0.082      347.668       26.799      862.167
08/12/2014  11:42:00       94.693     -316.417      -14.860      179.862      208.951      123.155    32350.271    43660.540    15167.116       10.022        4.559      330.282      103.103        0.097      347.652       26.773      862.207
08/12/2014  11:43:00        4.855     -133.256        1.280      111.915      110.204       81.145    12525.058    12144.827     6584.550        2.451        1.563      133.345       55.488        0.173      347.760       26.960      862.133
08/12/2014  11:44:00       28.966      -92.754        9.930       81.148      105.048       70.483     6584.920    11035.162     4967.783        1.606        1.129       97.171       63.011        0.420      347.851       27.118      862.092
08/12/2014  11:45:00       34.598     -138.804       -8.465       82.428       66.388       49.557     6794.308     4407.366     2455.851        1.709        0.683      143.051       31.905        0.050      347.869       27.149      862.079
08/12/2014  11:46:00       37.524      -63.451       28.264      127.657       98.816       72.745    16296.406     9764.589     5291.764        1.879        1.568       73.716       67.512        0.839      348.130       27.600      862.082
08/12/2014  11:47:00      -75.162      -71.435       -5.112      111.631       65.830       40.065    12461.439     4333.551     1605.244        1.459        0.920      103.693       34.078        0.108      348.035       27.436      862.061
08/12/2014  11:48:00       17.461     -127.565       33.172      169.409      133.646       81.797    28699.293    17861.235     6690.730        3.545        2.663      128.755       71.782        0.311      348.011       27.394      862.044
08/12/2014  11:49:00      -59.422     -219.575      -14.201      124.534      134.634       75.679    15508.796    18126.406     5727.364        4.565        1.968      227.473       60.728        0.071      347.831       27.081      862.026
08/12/2014  11:50:00        9.289     -133.089      122.167      194.831      336.434      204.066    37959.124   113188.136    41643.059       11.272        9.640      133.413      238.302        3.191      347.633       26.740      861.959
08/12/2014  11:51:00      -20.284     -136.065        0.489      122.416      125.177       69.086    14985.705    15669.340     4772.876        2.717        1.771      137.569       64.184        0.218      347.720       26.892      862.046
08/12/2014  11:52:00     -111.400     -203.039       18.870      252.908      213.963       88.321    63962.585    45780.357     7800.546        8.574        5.877      231.592       81.937        0.125      347.612       26.705      862.001
08/12/2014  11:53:00     -148.609     -305.861        0.606      194.438      211.228      101.833    37805.968    44617.187    10369.879       10.420        4.640      340.053       86.288        0.064      347.552       26.599      861.964
08/12/2014  11:54:00     -167.166     -338.163       -5.489      222.371      191.121       92.870    49449.035    36527.087     8624.747       11.845        4.730      377.225       71.677        0.036      347.670       26.803      861.991
08/12/2014  11:55:00      -71.823     -160.533        3.259       88.238       67.230       60.857     7785.914     4519.876     3703.563        2.347        0.800      175.868       40.145        0.052      348.025       27.417      862.022
08/12/2014  11:56:00     -123.311     -189.200       -8.700      164.886      110.422       71.940    27187.234    12192.973     5175.315        4.781        2.228      225.837       44.227        0.038      348.035       27.434      862.020
08/12/2014  11:57:00     -260.832     -287.273      -11.705      194.420      238.721       94.757    37799.043    56987.667     8978.797       12.721        5.188      388.019       94.207        0.059      347.898       27.198      862.076
08/12/2014  11:58:00     -250.039     -377.216      -26.658      186.032      252.183       88.561    34607.971    63596.283     7843.007       15.576        5.302      452.561      103.962        0.053      347.688       26.835      862.032
08/12/2014  11:59:00     -136.564     -302.732       -6.782      164.181      173.122       81.515    26955.248    29971.345     6644.668        8.694        3.179      332.109       68.203        0.042      347.759       26.957      862.036
08/12/2014  12:00:00       44.244      -78.563       40.669      135.489      138.776       72.743    18357.357    19258.670     5291.541        2.634        2.145       90.165       76.932        0.728      348.259       27.824      862.020
08/12/2014  12:01:00      -45.651     -207.924        1.786      114.998      240.449       71.589    13224.537    57815.754     5124.976        6.073        3.808      212.876       90.523        0.181      348.021       27.410      862.050
08/12/2014  12:02:00     -233.998     -164.563       21.265      207.262      193.593       93.483    42957.685    37478.295     8739.140        8.571        4.459      286.070       89.476        0.098      347.939       27.269      861.942
08/12/2014  12:03:00     -190.857     -318.674       -2.448      187.866      235.351       92.914    35293.817    55389.979     8633.043       11.863        4.966      371.456       88.223        0.056      347.858       27.128      861.999
08/12/2014  12:04:00       -4.075     -173.752      -14.685       84.578      114.684       72.468     7153.470    13152.352     5251.665        2.798        1.278      173.799       59.790        0.118      348.016       27.401      862.035
08/12/2014  12:05:00       13.058     -308.578      -15.034      264.873      197.630      112.738    70157.751    39057.672    12709.851       10.875        6.096      308.854      109.425        0.126      347.823       27.070      861.977
08/12/2014  12:06:00      -93.941     -237.941       13.490      124.807      111.450       75.405    15576.891    12421.041     5685.861        4.965        1.684      255.814       45.444        0.032      347.804       27.035      861.941
08/12/2014  12:07:00       11.872     -390.893        3.827      177.574      275.039       88.932    31532.645    75646.495     7908.932       13.400        5.754      391.073       90.306        0.053      347.962       27.309      862.054
08/12/2014  12:08:00       50.050     -272.966       49.927      199.180      298.770      160.321    39672.480    89263.669    25702.745       11.704        7.732      277.517      177.692        0.410      347.840       27.098      862.018
08/12/2014  12:09:00       68.020     -298.060       11.348      251.375      224.869      123.659    63189.496    50565.937    15291.643       11.130        6.452      305.723      120.418        0.155      347.734       26.916      862.012
08/12/2014  12:10:00     -192.666     -226.020       -5.778      231.397      169.434       83.646    53544.453    28707.822     6996.710        8.873        4.462      296.994       78.147        0.069      347.791       27.012      862.001
08/12/2014  12:11:00     -195.045     -218.460        8.704      199.314      245.737       96.013    39725.898    60386.754     9218.577        9.757        5.467      292.861       90.286        0.095      347.878       27.162      861.947
08/12/2014  12:12:00     -288.592     -253.566      -19.667      256.354      196.893       81.954    65717.168    38766.671     6716.446       12.956        5.560      384.162       24.892        0.004      347.731       26.910      861.889
08/12/2014  12:13:00     -316.293     -289.898       25.753      298.317      273.014      125.273    88993.181    74536.593    15693.421       18.195        8.961      429.048      120.799        0.079      347.843       27.103      861.844
08/12/2014  12:14:00      -51.300     -261.962       -6.823      143.476      144.512       73.278    20585.346    20883.623     5369.692        5.906        2.342      266.938       40.393        0.023      347.777       26.989      861.928
08/12/2014  12:15:00     -114.183     -110.538       16.418      159.395      121.993       69.202    25406.662    14882.239     4788.970        3.529        2.254      158.923       61.514        0.150      347.884       27.173      861.857
08/12/2014  12:16:00       -8.470      -21.004       19.372       94.971       88.685       57.716     9019.555     7865.045     3331.133        1.055        1.011       22.647       52.075        5.287      348.273       27.850      861.871
08/12/2014  12:17:00     -157.068     -213.809       25.285      256.403      178.951      109.837    65742.280    32023.570    12064.241        9.041        5.492      265.301      119.275        0.202      348.013       27.397      861.830
08/12/2014  12:18:00        7.830     -253.328      -23.066      153.005      168.874       81.978    23410.546    28518.322     6720.336        6.170        2.932      253.449       57.974        0.052      347.962       27.308      861.831
08/12/2014  12:19:00       34.232     -300.706      -19.695      227.496      224.544       81.723    51754.491    50420.035     6678.575       10.040        5.443      302.649       69.547        0.053      347.859       27.131      861.831
08/12/2014  12:20:00      -91.378     -172.937       16.123       93.663      164.530       61.675     8772.666    27070.094     3803.787        3.907        1.982      195.594       67.516        0.119      348.165       27.661      861.832
08/12/2014  12:21:00      -59.752     -199.268       25.013      151.980      199.695      105.768    23097.985    39878.226    11186.775        5.902        3.708      208.034      115.452        0.308      348.139       27.614      861.845
08/12/2014  12:22:00      107.325     -166.078       59.176      166.820      260.844      141.121    27828.837    68039.633    19915.095        7.917        5.789      197.739      165.013        0.696      348.281       27.858      861.833
08/12/2014  12:23:00       63.131     -263.331       24.975      267.239      271.215      128.205    71416.931    73557.416    16436.638       11.765        8.071      270.793      120.206        0.197      348.075       27.504      861.854
08/12/2014  12:24:00       36.811     -477.804        6.849      228.876      262.050      156.178    52384.343    68670.156    24391.644       18.754        7.272      479.220      125.405        0.068      347.834       27.089      861.796
08/12/2014  12:25:00       40.063     -430.205        1.314      216.617      293.248      101.580    46922.735    85994.669    10318.496       16.493        7.162      432.066      116.241        0.072      347.855       27.125      861.816
08/12/2014  12:26:00      -52.419     -453.818      -15.678      231.602      293.764      108.977    53639.316    86297.206    11875.894       18.035        7.591      456.836      114.858        0.063      347.780       26.994      861.908
08/12/2014  12:27:00     -168.462     -152.307       15.768      162.072      152.908       78.861    26267.365    23380.849     6219.074        5.384        2.793      227.105       74.685        0.108      347.818       27.061      861.846
08/12/2014  12:28:00     -121.583     -201.243        9.175      163.586      133.655       64.001    26760.385    17863.650     4096.140        5.203        2.436      235.120       50.338        0.046      347.810       27.046      861.801
08/12/2014  12:29:00      -18.840     -180.686       -2.194      118.081      131.063       87.599    13943.137    17177.493     7673.624        3.589        1.940      181.665       81.913        0.203      348.230       27.772      861.786
08/12/2014  12:30:00      -79.128     -177.131      -19.405      134.494      116.809       71.189    18088.582    13644.253     5067.809        3.740        1.840      194.002       34.734        0.032      348.262       27.828      861.761
08/12/2014  12:31:00     -117.656     -185.979      -16.868      156.796       87.277       55.365    24585.121     7617.290     3065.319        4.198        1.763      220.071       31.770        0.021      348.146       27.626      861.829
08/12/2014  12:32:00      -62.270     -121.594       16.184      128.980      124.294       59.180    16635.966    15448.939     3502.241        2.725        1.779      136.611       63.712        0.218      348.168       27.665      861.798
08/12/2014  12:33:00     -246.910     -203.451        1.549      165.269      175.549       79.054    27313.707    30817.478     6249.585        8.336        3.219      319.932       85.175        0.071      348.013       27.397      861.796
08/12/2014  12:34:00     -115.011      -85.341        6.381      137.879      115.526       58.295    19010.718    13346.237     3398.356        2.815        1.788      143.215       62.376        0.190      348.286       27.868      861.796
08/12/2014  12:35:00     -303.199     -285.187      -15.042      176.600      223.947       97.998    31187.566    50152.188     9603.521       13.220        4.547      416.246      118.455        0.081      347.890       27.183      861.785
08/12/2014  12:36:00     -112.845     -114.608       20.193      116.605      118.315       61.613    13596.839    13998.451     3796.201        2.883        1.570      160.838       53.756        0.112      348.067       27.491      861.743
08/12/2014  12:37:00     -140.736     -153.767       -5.188       86.422      100.427       67.167     7468.834    10085.680     4511.458        3.277        1.103      208.449       43.192        0.043      347.982       27.342      861.743
08/12/2014  12:38:00       -7.260     -110.064        4.849      127.680      126.422       61.460    16302.103    15982.562     3777.325        2.412        1.803      110.303       61.099        0.307      348.280       27.859      861.754
08/12/2014  12:39:00        1.634     -170.528       36.832      112.627      179.549       99.259    12684.882    32237.822     9852.369        4.260        2.739      170.536      102.451        0.361      348.493       28.226      861.648
08/12/2014  12:40:00      -34.688     -149.904       -1.464       90.685      129.731       69.319     8223.744    16830.151     4805.164        2.676        1.493      153.865       70.801        0.212      348.388       28.046      861.735
08/12/2014  12:41:00       64.889     -302.304       10.123      229.273      228.394      147.345    52566.110    52163.591    21710.560       11.104        6.322      309.189      134.687        0.190      348.061       27.478      861.761
08/12/2014  12:42:00       55.427     -169.789       30.022      174.554      216.448      100.798    30469.002    46849.688    10160.245        6.012        4.374      178.607      112.501        0.397      348.147       27.629      861.717
08/12/2014  12:43:00     -170.966     -154.977       -6.045      142.663      127.506       76.501    20352.625    16257.870     5852.360        4.787        2.123      230.754       75.015        0.106      348.131       27.601      861.746
08/12/2014  12:44:00     -169.035     -140.969        9.723      250.273      133.825       85.717    62636.649    17909.005     7347.386        6.820        4.395      220.103       97.416        0.196      348.154       27.640      861.715
08/12/2014  12:45:00     -142.374      -71.168        5.109      108.968       89.443       50.197    11874.050     8000.065     2519.713        2.387        1.120      159.170       29.873        0.035      348.426       28.111      861.715
08/12/2014  12:46:00        5.646     -123.672       61.718      145.668      222.022      134.212    21219.273    49293.835    18012.782        5.381        4.426      123.801       99.798        0.650      348.296       27.886      861.659
08/12/2014  12:47:00      -83.958     -352.130      -12.456      177.648      161.089       93.882    31558.844    25949.506     8813.851        9.875        3.316      362.001       37.855        0.011      348.041       27.444      861.664
08/12/2014  12:48:00       -6.970     -271.223       14.014      161.439      193.135      108.223    26062.575    37301.054    11712.326        7.443        3.754      271.313       78.913        0.085      348.101       27.548      861.669
08/12/2014  12:49:00      -12.203     -334.355        5.856      162.928      214.118      103.744    26545.694    45846.387    10762.812        9.755        4.158      334.577       96.299        0.083      348.060       27.478      861.677
08/12/2014  12:50:00        0.276     -244.662       52.399      178.374      163.925      112.291    31817.177    26871.252    12609.277        6.694        3.565      244.662       96.734        0.156      348.192       27.707      861.594
08/12/2014  12:51:00       53.223     -546.375      -10.464      244.930      321.024      122.970    59990.493   103056.320    15121.715       23.978        8.908      548.962      103.752        0.036      348.025       27.417      861.659
08/12/2014  12:52:00      -50.130     -380.883       12.485      142.487      237.081      101.237    20302.432    56207.189    10249.028       11.723        4.338      384.168      101.355        0.070      348.048       27.457      861.705
08/12/2014  12:53:00       50.126     -366.473       -9.560      151.665      190.658       97.712    23002.237    36350.472     9547.570       10.289        3.445      369.885       84.661        0.052      348.020       27.408      861.664
08/12/2014  12:54:00       78.290     -135.149       50.484      113.200      219.825      119.053    12814.154    48323.077    14173.553        5.111        3.766      156.187      136.095        0.759      348.116       27.574      861.637
08/12/2014  12:55:00      -35.156     -223.314      -20.650      149.199      119.858       77.103    22260.255    14365.974     5944.885        4.704        2.129      226.064       52.768        0.054      348.138       27.612      861.629
08/12/2014  12:56:00       31.796     -215.854       -6.029      132.428      141.266       81.990    17537.060    19956.127     6722.338        4.592        2.211      218.184       76.071        0.122      348.111       27.568      861.623
08/12/2014  12:57:00     -101.858     -109.854       14.319      184.060      148.943       70.258    33878.117    22183.999     4936.215        4.181        3.050      149.810       67.760        0.205      348.248       27.803      861.646
08/12/2014  12:58:00       17.426     -274.879      -32.620      134.766      160.218       86.846    18161.742    25669.906     7542.254        6.414        2.569      275.431       84.413        0.094      348.357       27.992      861.665
08/12/2014  12:59:00      -59.291     -169.982        8.785      176.374      116.833       89.017    31107.625    13649.923     7924.006        4.257        2.634      180.026       63.496        0.124      348.241       27.791      861.675
08/12/2014  13:00:00      -85.307      -74.088       27.537      155.480      141.306       67.242    24173.963    19967.508     4521.435        3.108        2.433      112.988       77.556        0.471      348.342       27.967      861.644
08/12/2014  13:01:00      -39.127      -89.095        6.134      112.444      132.285       71.855    12643.709    17499.418     5163.073        2.240        1.765       97.308       26.487        0.074      348.378       28.028      861.642
08/12/2014  13:02:00     -151.000      -94.451       14.164      135.531      131.890       58.627    18368.582    17394.991     3437.182        3.555        1.960      178.107       57.687        0.105      348.227       27.767      861.603
08/12/2014  13:03:00     -154.152     -249.919      -17.808      121.869      117.965       61.016    14852.097    13915.626     3722.975        5.951        1.625      293.637       47.915        0.027      347.977       27.332      861.588
08/12/2014  13:04:00        6.815     -340.535       -7.226      220.907      235.458      120.214    48799.870    55440.388    14451.383       11.735        5.935      340.603      122.677        0.130      348.201       27.720      861.641
08/12/2014  13:05:00      118.540     -325.606       -1.632      228.876      213.639      113.586    52384.170    45641.653    12901.867       11.548        5.546      346.513      118.810        0.118      348.126       27.592      861.589
08/12/2014  13:06:00      -44.642     -320.738       -9.853      198.572      164.092       91.655    39430.703    26926.024     8400.588        8.985        3.738      323.830       58.890        0.033      348.246       27.797      861.639
08/12/2014  13:07:00     -105.584     -136.143       -7.986      172.083      139.817       71.055    29612.519    19548.870     5048.830        4.197        2.711      172.287       72.325        0.176      348.396       28.060      861.640
08/12/2014  13:08:00     -142.073     -139.375       12.161      163.599      142.815       69.501    26764.574    20396.058     4830.435        4.586        2.600      199.023       66.254        0.111      348.336       27.954      861.597
08/12/2014  13:09:00       15.409     -240.294      -30.871      117.496      145.923       88.025    13805.377    21293.647     7748.330        5.088        2.142      240.788       74.712        0.096      348.447       28.147      861.593
08/12/2014  13:10:00       -5.950     -188.661        7.430      140.729      160.400       68.392    19804.722    25728.031     4677.532        4.294        2.511      188.755       72.092        0.146      348.501       28.242      861.566
08/12/2014  13:11:00     -236.992     -303.431        5.427      206.641      174.804       97.756    42700.460    30556.302     9556.243       11.552        4.141      385.014       95.170        0.061      348.252       27.809      861.517
08/12/2014  13:12:00      -67.841     -192.002       -3.756      161.007      121.593       80.059    25923.135    14784.886     6409.425        4.429        2.356      203.635       58.726        0.083      348.264       27.831      861.592
08/12/2014  13:13:00        6.069     -121.446       16.729       96.218      106.691       70.929     9257.950    11382.866     5030.939        2.036        1.284      121.597       58.232        0.229      348.341       27.966      861.571
08/12/2014  13:14:00       42.388     -174.638       22.166      111.235      186.918      126.885    12373.259    34938.216    16099.738        4.809        3.171      179.709      128.209        0.509      348.335       27.954      861.516
08/12/2014  13:15:00      -72.292      -95.620       22.829      107.614      122.339       80.145    11580.800    14966.905     6423.141        2.392        1.649      119.872       73.105        0.372      348.626       28.457      861.487
08/12/2014  13:16:00      -41.778     -311.788      -26.331      206.572      165.843      105.548    42671.905    27504.018    11140.321        9.047        4.066      314.575       88.107        0.078      348.235       27.779      861.504
08/12/2014  13:17:00      -33.210     -202.344      -21.712      118.318      147.574       78.638    13999.143    21778.074     6183.945        4.223        2.098      205.051       72.582        0.125      348.490       28.221      861.495
08/12/2014  13:18:00     -135.091     -178.550       -7.144      124.017      125.350       44.829    15380.133    15712.538     2009.609        4.163        1.655      223.896       50.084        0.050      348.386       28.043      861.486
08/12/2014  13:19:00      -91.211      -68.653       27.357      143.290       95.793       54.106    20532.090     9176.214     2927.461        2.320        1.632      114.160       22.400        0.039      348.609       28.428      861.481
08/12/2014  13:20:00       59.756     -156.232       26.603      141.349      165.156       70.394    19979.551    27276.392     4955.291        4.044        2.611      167.270       68.895        0.170      348.558       28.341      861.487
08/12/2014  13:21:00      -75.980     -132.494       50.637      195.131      225.266       90.424    38076.245    50744.831     8176.554        6.143        4.850      152.734       90.658        0.352      348.413       28.089      861.457
08/12/2014  13:22:00       31.605     -237.447       -6.890      178.161      226.901       77.222    31741.176    51484.184     5963.261        7.329        4.459      239.541       86.893        0.132      348.359       27.994      861.431
08/12/2014  13:23:00       66.777     -313.388        3.039      219.297      231.158      114.252    48091.359    53434.173    13053.418       10.861        5.729      320.424      115.427        0.130      348.468       28.183      861.425
08/12/2014  13:24:00      -67.444     -276.032      -12.558      111.626      135.766       80.998    12460.400    18432.353     6560.687        5.917        1.873      284.152       69.921        0.061      348.541       28.309      861.511
08/12/2014  13:25:00     -139.538     -141.411       10.959      111.192      104.976       65.442    12363.611    11020.000     4282.599        3.362        1.383      198.665       59.105        0.089      348.575       28.369      861.557
08/12/2014  13:26:00       -0.123      -67.953       28.544       79.888       91.028       52.466     6382.028     8286.150     2752.680        1.142        0.871       67.953       39.552        0.339      348.878       28.895      861.514
08/12/2014  13:27:00      -71.599      -52.222        8.075       61.908       77.975       58.089     3832.618     6080.145     3374.311        1.060        0.664       88.620       58.341        0.433      348.828       28.809      861.471
08/12/2014  13:28:00      -43.324     -126.374       -8.012      129.779       91.766       69.236    16842.525     8421.034     4793.693        2.398        1.503      133.594       57.038        0.182      348.662       28.520      861.511
08/12/2014  13:29:00       87.002     -159.809       33.116      132.375      217.361      130.511    17523.036    47245.929    17033.173        5.799        4.090      181.957      155.669        0.732      348.312       27.914      861.451
08/12/2014  13:30:00      -90.019     -182.355       -6.817      135.772      115.350       69.202    18433.958    13305.621     4788.977        3.896        1.826      203.363       37.894        0.035      348.337       27.956      861.478
08/12/2014  13:31:00      -89.264      -86.599       -2.166      132.423       72.477       67.843    17535.729     5252.892     4602.664        2.143        1.370      124.368       48.766        0.154      348.325       27.937      861.492
08/12/2014  13:32:00     -104.384     -133.384       13.176      167.276      123.252       70.097    27981.156    15190.934     4913.579        3.846        2.404      169.374       67.338        0.158      348.358       27.993      861.497
08/12/2014  13:33:00      -57.850     -240.998        7.076      108.993      109.324       81.028    11879.376    11951.696     6565.464        4.593        1.520      247.844       50.802        0.042      348.155       27.643      861.477
08/12/2014  13:34:00        3.769     -242.312      -11.300      119.409      192.640       84.939    14258.562    37110.121     7214.652        5.871        2.929      242.341       77.305        0.102      348.093       27.536      861.449
08/12/2014  13:35:00      -85.570     -195.738        7.593      100.157      163.719       51.436    10031.394    26803.811     2645.629        4.258        1.974      213.625       38.139        0.032      348.253       27.811      861.406
08/12/2014  13:36:00      -46.112     -108.191        7.025       83.134      108.043       53.320     6911.253    11673.219     2843.008        1.765        1.071      117.608       46.475        0.156      348.451       28.154      861.396
08/12/2014  13:37:00      141.485     -266.527       -2.473      144.640      173.210       87.214    20920.651    30001.808     7606.267        7.478        2.926      301.753       88.651        0.086      348.436       28.127      861.385
08/12/2014  13:38:00       -8.693     -327.690      -17.709      178.949      158.298       87.193    32022.760    25058.396     7602.552        8.621        3.234      327.805       61.774        0.036      348.405       28.073      861.401
08/12/2014  13:39:00       11.206     -220.857       16.092      132.248      185.803       89.430    17489.415    34522.784     7997.765        5.457        3.000      221.141       89.995        0.166      348.498       28.235      861.342
08/12/2014  13:40:00       74.935     -354.089      -24.956      154.615      176.472       93.302    23905.697    31142.377     8705.301        9.767        3.188      361.932       68.461        0.036      348.405       28.073      861.341
08/12/2014  13:41:00       28.879     -341.013      -22.410      178.675      207.913       90.114    31924.604    43227.964     8120.525       10.043        4.164      342.234       68.047        0.040      348.303       27.896      861.393
08/12/2014  13:42:00       30.309     -290.092        7.405      221.305      150.001       81.987    48975.880    22500.254     6721.923        8.165        3.910      291.671       88.983        0.093      348.321       27.929      861.358
08/12/2014  13:43:00      126.055     -292.795       -1.736      162.938      187.789       80.959    26548.895    35264.631     6554.387        8.498        3.418      318.777       76.335        0.057      348.456       28.163      861.380
08/12/2014  13:44:00        3.484     -172.145       -9.789      121.377      154.630       90.339    14732.266    23910.511     8161.137        3.826        2.340      172.181       64.710        0.141      348.577       28.371      861.385
08/12/2014  13:45:00      -29.035     -175.572       -0.916      109.242      103.105       72.096    11933.768    10630.567     5197.881        2.971        1.388      177.956       53.189        0.089      348.499       28.237      861.331
08/12/2014  13:46:00      -87.146     -158.712      -19.542      116.242      108.725       59.266    13512.217    11821.228     3512.442        3.100        1.442      181.063       59.113        0.107      348.461       28.171      861.338
08/12/2014  13:47:00       27.555      -78.580       22.725      127.742       97.921       61.979    16317.954     9588.425     3841.399        1.859        1.487       83.272       50.561        0.369      348.630       28.465      861.344
08/12/2014  13:48:00       71.824     -167.851        2.570      116.658      101.274       60.237    13609.048    10256.343     3628.504        3.041        1.375      182.572       52.172        0.082      348.436       28.127      861.297
08/12/2014  13:49:00       91.645     -209.520        4.101      140.901       93.411       66.288    19853.039     8725.591     4394.093        4.264        1.649      228.686       45.222        0.039      348.310       27.909      861.289
08/12/2014  13:50:00       33.887     -252.167      -11.989      119.371       91.301       55.164    14249.518     8335.951     3043.106        4.525        1.281      254.434       34.120        0.018      348.334       27.949      861.275
08/12/2014  13:51:00      -48.591     -189.570        2.135      100.736      122.594       61.842    10147.830    15029.380     3824.410        3.365        1.450      195.699       48.998        0.063      348.593       28.400      861.278
08/12/2014  13:52:00       10.471     -275.354      -18.773      163.747      155.130       73.108    26813.043    24065.411     5344.825        6.624        2.811      275.553       69.535        0.064      348.572       28.362      861.241
08/12/2014  13:53:00      -60.847     -199.099       -2.157      127.187      127.441       84.902    16176.655    16241.316     7208.339        4.148        1.981      208.190       73.230        0.124      348.816       28.786      861.300
08/12/2014  13:54:00       -9.372     -201.461       -3.012      151.619      166.740       69.323    22988.223    27802.305     4805.695        4.813        2.780      201.679       53.865        0.071      348.880       28.899      861.336
08/12/2014  13:55:00     -107.624      -89.023       11.567      129.230       93.699       60.748    16700.475     8779.457     3690.354        2.440        1.459      139.671       67.014        0.230      349.181       29.419      861.321
08/12/2014  13:56:00     -170.827     -204.473       -6.275      124.228      150.145       65.471    15432.475    22543.648     4286.474        5.664        2.113      266.441       56.099        0.044      348.770       28.705      861.290
08/12/2014  13:57:00     -124.378     -201.360       12.276      144.306      124.559       61.170    20824.344    15515.018     3741.816        4.812        2.004      236.677       52.582        0.049      348.815       28.783      861.298
08/12/2014  13:58:00      -95.480     -232.207        7.727       97.934       91.883       57.718     9591.059     8442.421     3331.404        4.223        1.068      251.070       60.530        0.058      348.437       28.129      861.340
08/12/2014  13:59:00      -99.337      -67.333       18.422       84.669       89.216       51.483     7168.859     7959.416     2650.522        1.626        0.889      120.006       57.076        0.226      348.808       28.774      861.278
08/12/2014  14:00:00     -409.958     -174.273      -14.002      202.192      195.426       83.825    40881.777    38191.385     7026.591       14.235        4.305      445.462       99.809        0.050      348.471       28.186      861.280
08/12/2014  14:01:00     -299.664     -198.822       11.402      189.138      179.403       97.998    35773.366    32185.297     9603.649       10.350        3.878      359.623      108.234        0.091      348.400       28.066      861.237
08/12/2014  14:02:00     -433.977     -126.830       -8.029      276.777      237.769      121.484    76605.612    56534.141    14758.465       17.616        7.395      452.131      135.490        0.090      348.270       27.839      861.199
08/12/2014  14:03:00     -230.832     -128.842       18.180      214.921      198.989       73.889    46191.113    39596.501     5459.535        8.071        4.562      264.356       99.283        0.141      348.569       28.359      861.238
08/12/2014  14:04:00     -290.981     -373.123       -8.500      156.679      247.385       82.332    24548.159    61199.511     6778.617       15.823        4.626      473.171       82.092        0.030      348.266       27.832      861.243
08/12/2014  14:05:00      -87.180     -141.468       14.861      178.292      117.292       63.825    31787.884    13757.500     4073.648        3.872        2.481      166.173       79.978        0.232      348.696       28.579      861.255
08/12/2014  14:06:00       53.246      -13.480       42.544       85.710       82.788       68.692     7346.209     6853.846     4718.583        1.187        0.946       54.926       59.781        1.185      349.016       29.135      861.253
08/12/2014  14:07:00      -34.064      -43.346       -3.632      105.636       94.891       63.819    11158.973     9004.288     4072.812        1.364        1.212       55.129       46.715        0.718      348.896       28.925      861.229
08/12/2014  14:08:00       13.466     -155.443       21.803       98.177      113.725       57.685     9638.789    12933.437     3327.536        2.535        1.295      156.025       23.495        0.023      348.638       28.479      861.237
08/12/2014  14:09:00      -40.158     -230.159      -21.870      139.165      167.820       77.098    19366.916    28163.713     5944.082        5.426        2.674      233.637       52.418        0.050      348.625       28.456      861.239
08/12/2014  14:10:00       94.689     -235.447      -10.537      129.220      114.605       75.994    16697.853    13134.345     5775.072        5.005        1.780      253.775       65.790        0.067      348.526       28.283      861.239
08/12/2014  14:11:00     -139.988     -157.400      -16.140      141.057      123.736       66.891    19896.964    15310.671     4474.451        4.215        1.984      210.646       66.660        0.100      348.753       28.677      861.255
08/12/2014  14:12:00     -137.780     -156.453       -5.112      132.739      121.621       58.432    17619.574    14791.651     3414.304        3.965        1.791      208.473       55.228        0.070      348.657       28.509      861.266
08/12/2014  14:13:00     -133.400     -223.719       -3.710      166.461       95.844       75.951    27709.219     9186.045     5768.528        5.525        2.133      260.472       64.034        0.060      348.618       28.444      861.266
08/12/2014  14:14:00      -47.002      -98.659       17.440      128.222      120.142       67.456    16440.754    14434.054     4550.266        2.383        1.771      109.283       65.515        0.359      348.915       28.958      861.262
08/12/2014  14:15:00      -35.295       -6.425       37.642      110.462       67.493       52.845    12201.805     4555.344     2792.548        1.112        0.977       35.875       46.515        1.681      349.066       29.221      861.267
08/12/2014  14:16:00     -112.462     -100.839       14.055      125.266       99.191       49.940    15691.503     9838.832     2493.956        2.551        1.401      151.051       39.604        0.069      348.912       28.951      861.253
08/12/2014  14:17:00      -22.352     -113.253        5.680       63.674       84.144       45.070     4054.399     7080.202     2031.303        1.326        0.658      115.437       41.651        0.130      348.892       28.919      861.244
08/12/2014  14:18:00     -191.848     -172.041        2.478      119.187      119.805       48.496    14205.654    14353.281     2351.888        4.865        1.546      257.689       55.432        0.046      348.894       28.919      861.249
08/12/2014  14:19:00     -168.922      -77.339       10.804      132.415      107.764       71.207    17533.773    11612.982     5070.501        3.442        1.711      185.785       61.130        0.108      349.000       29.103      861.265
08/12/2014  14:20:00      -69.805     -184.573        5.197      124.611      156.276       61.214    15528.021    24422.052     3747.198        4.132        2.185      197.332       47.516        0.058      348.653       28.504      861.249
08/12/2014  14:21:00     -265.885     -209.243       12.665      240.204      197.113       99.597    57698.049    38853.658     9919.623       11.053        5.324      338.345      106.531        0.099      348.676       28.543      861.235
08/12/2014  14:22:00     -382.945     -212.114      -10.517      236.801      180.526       96.898    56074.813    32589.578     9389.197       14.488        4.903      437.766      121.079        0.076      348.421       28.101      861.237
08/12/2014  14:23:00     -424.644     -330.011       -1.229      251.222      189.677      100.179    63112.465    35977.488    10035.829       19.916        5.456      537.801      122.705        0.052      348.204       27.725      861.199
08/12/2014  14:24:00     -252.855     -392.930      -12.032      142.632      250.679       85.377    20343.832    62840.069     7289.243       15.446        4.524      467.258       74.811        0.026      348.325       27.934      861.184
08/12/2014  14:25:00     -305.443     -283.117       -8.398      179.044      154.072       81.406    32056.644    23738.048     6626.999       11.796        3.121      416.474       71.771        0.030      348.494       28.227      861.211
08/12/2014  14:26:00     -334.293     -270.497       -2.339      203.711      191.095       91.776    41498.047    36517.121     8422.854       13.566        4.322      430.024      100.601        0.055      348.294       27.881      861.206
08/12/2014  14:27:00     -186.040     -330.980      -27.312      168.091      127.494       79.891    28254.442    16254.642     6382.594        9.789        2.545      379.682       82.163        0.047      348.341       27.963      861.219
08/12/2014  14:28:00     -116.838     -177.847       14.247      161.789       93.910       72.156    26175.708     8819.006     5206.484        4.283        2.010      212.793       42.095        0.039      348.582       28.380      861.165
08/12/2014  14:29:00      -45.803     -147.805      -13.867      112.796       94.634       76.435    12723.039     8955.629     5842.373        2.582        1.376      154.740       51.160        0.109      348.738       28.651      861.168
08/12/2014  14:30:00      -46.536     -153.421       -5.545      230.220      154.326      118.672    53001.293    23816.627    14083.026        5.830        4.545      160.324       97.406        0.369      348.639       28.479      861.165
08/12/2014  14:31:00      -46.035     -331.074      -17.175      167.438      204.821       76.926    28035.418    41951.734     5917.659        9.395        3.795      334.259       53.867        0.026      348.235       27.779      861.162
08/12/2014  14:32:00     -173.623     -224.608      -15.168      142.264      218.408       85.339    20238.950    47702.067     7282.797        7.801        3.761      283.890       88.542        0.097      348.417       28.094      861.152
08/12/2014  14:33:00     -353.154     -430.059      -31.810      200.642      235.924       83.911    40257.041    55660.193     7041.008       20.680        5.148      556.479       85.481        0.024      348.202       27.722      861.176
08/12/2014  14:34:00     -110.369      -95.357        6.091       98.681       94.531       45.129     9737.883     8936.115     2036.661        2.101        1.036      145.856       46.551        0.102      348.582       28.381      861.137
08/12/2014  14:35:00     -181.132      -94.849       -2.472      115.939      103.643       54.445    13441.882    10741.805     2964.264        3.447        1.357      204.463       46.227        0.051      348.707       28.596      861.113
08/12/2014  14:36:00     -379.642     -312.342      -15.570      182.020      187.347       89.861    33131.382    35099.036     8075.078       15.910        3.815      491.616       82.121        0.028      348.523       28.276      861.086
08/12/2014  14:37:00     -351.024     -253.313       -4.483      207.344      210.785      109.456    42991.614    44430.120    11980.555       14.338        4.970      432.880      118.866        0.075      348.418       28.097      861.062
08/12/2014  14:38:00     -440.950     -270.902       17.478      282.594      168.858      111.504    79859.198    28513.138    12433.114       19.444        6.040      517.518      135.628        0.069      348.453       28.157      861.004
08/12/2014  14:39:00     -578.085     -371.439      -17.613      311.964      228.092      139.400    97321.414    52025.949    19432.330       32.059        8.439      687.131      156.499        0.052      348.300       27.891      860.964
08/12/2014  14:40:00     -488.559     -279.391        1.141      336.814      227.866      131.168   113443.918    51922.900    17204.990       24.963        9.129      562.805      156.094        0.077      348.308       27.907      860.937
08/12/2014  14:41:00     -397.992     -480.920       -4.385      256.279      216.557      115.497    65678.924    46896.875    13339.669       25.778        6.296      624.245      121.779        0.038      348.148       27.628      860.981
08/12/2014  14:42:00     -269.192     -354.447      -22.221      173.212      139.339       97.336    30002.321    19415.412     9474.273       12.873        2.945      445.081       90.191        0.041      348.158       27.648      860.999
08/12/2014  14:43:00     -246.092     -223.311       -3.431      179.042      136.483       78.722    32056.109    18627.613     6197.095        8.365        2.844      332.309       88.809        0.071      348.351       27.978      860.996
08/12/2014  14:44:00     -156.304     -232.247       -6.097      140.455      109.160       74.208    19727.477    11915.828     5506.885        5.777        1.858      279.946       78.438        0.079      348.396       28.058      860.996
08/12/2014  14:45:00     -368.484     -325.555      -25.531      183.344      148.269       98.017    33615.189    21983.570     9607.237       15.380        3.260      491.698       90.556        0.034      348.521       28.274      860.951
08/12/2014  14:46:00     -308.033     -208.327       -8.272      165.879      172.923       89.902    27515.929    29902.382     8082.372       10.191        3.275      371.866       98.262        0.070      348.654       28.504      860.925
08/12/2014  14:47:00     -327.177     -241.537        6.778      201.878      179.491       91.845    40754.872    32216.978     8435.584       12.340        4.070      406.675       99.616        0.060      348.537       28.302      860.908
08/12/2014  14:48:00     -276.344     -142.704       -8.501      156.115      114.691       73.841    24371.990    13154.076     5452.436        6.988        2.149      311.015       70.878        0.052      348.567       28.353      860.894
08/12/2014  14:49:00      -93.202      -82.123       22.562      146.495       93.627       68.498    21460.685     8766.077     4692.010        2.542        1.746      124.221       53.523        0.186      348.771       28.708      860.874
08/12/2014  14:50:00      -84.840     -340.867      -17.260      214.881      133.972       88.149    46173.736    17948.482     7770.261        9.777        3.595      351.266       58.069        0.027      348.587       28.388      860.912
08/12/2014  14:51:00     -195.797     -195.942       -7.114      189.141      187.955       80.394    35774.293    35327.024     6463.132        7.716        3.878      277.002       92.330        0.111      348.530       28.290      860.897
08/12/2014  14:52:00     -395.159     -211.682      -27.336      197.372      163.163       86.265    38955.728    26622.276     7441.579       13.735        3.651      448.285       72.135        0.026      348.493       28.227      860.853
08/12/2014  14:53:00     -313.550     -111.935       24.425      202.923      187.741       93.133    41177.714    35246.680     8673.699        9.825        4.255      332.931       94.943        0.081      348.555       28.333      860.836
08/12/2014  14:54:00     -417.769     -144.792      -12.435      214.714      170.484      104.295    46101.986    29064.878    10877.538       14.083        4.302      442.149       99.087        0.050      348.411       28.084      860.849
08/12/2014  14:55:00     -233.585     -178.958       22.672      247.884      213.577      115.025    61446.430    45615.149    13230.809       10.367        6.015      294.258      139.972        0.226      348.526       28.282      860.834
08/12/2014  14:56:00     -418.788     -227.908      -13.979      247.849      180.256      101.006    61428.985    32492.183    10202.182       16.580        5.206      476.787      102.570        0.046      348.382       28.034      860.850
08/12/2014  14:57:00     -314.623     -114.439       -2.021      198.931      161.367       82.529    39573.456    26039.302     6811.008        9.224        3.621      334.789       97.182        0.084      348.423       28.106      860.825
08/12/2014  14:58:00     -409.137     -298.283      -28.099      240.046      200.531      100.220    57621.862    40212.665    10044.114       18.250        5.394      506.326      100.834        0.040      348.297       27.887      860.804
08/12/2014  14:59:00     -327.499     -353.681        9.450      239.023      244.308      111.857    57132.042    59686.515    12511.931       18.086        6.467      482.023      118.582        0.061      348.215       27.745      860.771
08/12/2014  15:00:00     -275.520     -273.059        2.930      186.012      192.565       88.759    34600.293    37081.216     7878.143       11.500        3.978      387.907       65.996        0.029      348.266       27.832      860.754
08/12/2014  15:01:00     -109.376     -146.416        1.426      151.967      164.542       85.264    23093.843    27074.214     7269.880        4.541        2.872      182.759       81.163        0.197      348.539       28.306      860.746
08/12/2014  15:02:00      -61.770     -162.529      -15.754      114.829       98.075       58.303    13185.731     9618.773     3399.260        2.834        1.310      173.871       48.648        0.078      348.501       28.239      860.720
08/12/2014  15:03:00     -197.112     -248.679       -8.789      205.756      161.053       75.057    42335.522    25937.998     5633.491        8.732        3.695      317.324       82.025        0.067      348.643       28.485      860.726
08/12/2014  15:04:00     -163.119     -322.149       24.056      236.345      240.937       91.979    55859.062    58050.582     8460.109       12.664        6.118      361.093       70.163        0.038      348.618       28.443      860.713
08/12/2014  15:05:00     -526.917     -270.809       -7.936      280.932      204.124      110.256    78923.063    41666.763    12156.336       24.187        6.637      592.435      141.972        0.057      348.424       28.107      860.634
08/12/2014  15:06:00     -501.955     -271.503      -24.604      255.923      214.694       99.283    65496.433    46093.413     9857.142       22.384        6.072      570.678      111.076        0.038      348.361       27.997      860.567
08/12/2014  15:07:00     -388.876     -285.568       -4.000      239.793      196.003       93.930    57500.827    38417.159     8822.931       16.874        5.237      482.466      120.434        0.062      348.464       28.176      860.619
08/12/2014  15:08:00     -306.101     -389.577      -28.874      208.527      148.796       92.540    43483.400    22140.380     8563.735       16.023        3.709      495.447       78.806        0.025      348.558       28.339      860.633
08/12/2014  15:09:00     -228.937     -267.033       -6.189      155.783      148.580       74.249    24268.237    22076.031     5512.862        8.780        2.593      351.737       76.143        0.047      348.686       28.560      860.603
08/12/2014  15:10:00     -201.494     -184.474       -9.185      148.068      151.505       71.274    21924.128    22953.898     5080.051        6.233        2.498      273.186       73.919        0.073      348.735       28.644      860.593
08/12/2014  15:11:00     -118.381     -200.212       -5.173      143.996      179.784       79.169    20734.934    32322.348     6267.789        5.671        2.966      232.592       88.418        0.145      348.967       29.048      860.626
08/12/2014  15:12:00     -108.950     -376.617      -15.191      228.929      170.322      100.672    52408.326    29009.712    10134.763       12.273        4.578      392.059       39.675        0.010      348.636       28.474      860.668
08/12/2014  15:13:00     -141.599     -229.001       20.354      193.771      167.885       82.813    37547.203    28185.206     6858.066        7.273        3.630      269.243       72.241        0.072      348.817       28.787      860.622
08/12/2014  15:14:00     -208.778     -245.195       15.872      223.794      208.871       87.526    50083.555    43627.216     7660.798       10.265        5.069      322.039      102.432        0.101      348.565       28.349      860.606
08/12/2014  15:15:00     -492.461     -145.399      -13.570      249.478      196.907      107.164    62239.238    38772.533    11484.173       18.815        5.625      513.477      119.599        0.054      348.559       28.339      860.528
08/12/2014  15:16:00     -407.863     -244.778       13.797      275.130      252.508      116.286    75696.614    63760.139    13522.407       18.969        7.649      475.677      103.679        0.048      348.504       28.245      860.513
08/12/2014  15:17:00     -382.586     -218.262       17.580      260.207      194.284      114.427    67707.723    37746.362    13093.546       15.641        5.927      440.466      132.345        0.090      348.540       28.306      860.522
08/12/2014  15:18:00     -299.761     -162.604      -11.172      184.874      128.067       85.629    34178.371    16401.223     7332.380        8.716        2.896      341.023       80.909        0.056      348.484       28.210      860.561
08/12/2014  15:19:00     -199.430     -202.228       11.883      151.078      139.674       80.919    22824.697    19508.728     6547.943        6.484        2.444      284.022       74.785        0.069      348.615       28.436      860.557
08/12/2014  15:20:00     -331.589     -301.922      -12.864      184.244      188.570       97.143    33945.933    35558.457     9436.727       14.009        3.947      448.451       96.971        0.047      348.460       28.169      860.554
08/12/2014  15:21:00     -205.431     -470.963       -7.235      155.441      215.008       88.622    24161.939    46228.286     7853.939       17.114        3.912      513.817       89.912        0.031      348.340       27.961      860.589
08/12/2014  15:22:00     -225.927     -229.628       -5.401      138.465      141.846       67.953    19172.693    20120.278     4617.553        7.385        2.196      322.137       73.631        0.052      348.551       28.325      860.550
08/12/2014  15:23:00      -89.094     -222.138       10.482      116.460      120.331       59.030    13562.906    14479.591     3484.592        4.445        1.576      239.338       39.640        0.027      348.614       28.435      860.529
08/12/2014  15:24:00     -245.015     -338.364      -18.860      172.422      154.937       74.158    29729.259    24005.438     5499.449       11.704        2.962      417.759       63.653        0.023      348.555       28.331      860.511
08/12/2014  15:25:00      -84.694     -174.166       23.224      187.492      145.408       88.284    35153.198    21143.406     7794.016        5.106        3.205      193.667       94.188        0.237      348.690       28.567      860.528
08/12/2014  15:26:00      -71.318     -141.485      -21.250      130.203       96.340       63.382    16952.870     9281.433     4017.244        2.790        1.513      158.444       47.489        0.090      348.735       28.645      860.497
08/12/2014  15:27:00     -149.623     -195.945       -7.631       85.756      114.136       55.599     7354.063    13027.036     3091.284        4.215        1.174      246.539       41.599        0.028      348.692       28.570      860.513
08/12/2014  15:28:00     -303.040     -175.727       -2.977      168.730      174.842       74.743    28469.701    30569.601     5586.498        9.366        3.231      350.305       82.593        0.056      348.507       28.252      860.472
08/12/2014  15:29:00     -377.098     -214.858      -22.060      186.135      121.274       56.033    34646.094    14707.455     3139.667       12.066        2.625      434.013       41.668        0.009      348.318       27.922      860.451
08/12/2014  15:30:00     -203.757     -124.790        4.461      150.881      126.520       71.140    22765.061    16007.330     5060.911        5.046        2.192      238.934       80.988        0.115      348.624       28.454      860.455
08/12/2014  15:31:00     -120.810     -201.925       21.652      181.059      169.467       73.012    32782.324    28718.957     5330.811        6.132        3.342      235.305       86.505        0.135      348.747       28.665      860.498
08/12/2014  15:32:00     -209.299     -259.250       -2.391      150.191      207.062       81.048    22557.360    42874.807     6568.734        9.150        3.600      333.192       90.498        0.074      348.710       28.602      860.491
08/12/2014  15:33:00     -376.427     -257.791      -10.392      192.391      177.073       95.552    37014.285    31354.755     9130.191       14.286        3.875      456.238       75.744        0.028      348.346       27.972      860.457
08/12/2014  15:34:00     -419.419     -208.721      -13.251      234.356      149.463       79.302    54922.710    22339.061     6288.734       15.158        4.178      468.483       97.565        0.043      348.518       28.268      860.460
08/12/2014  15:35:00     -215.411     -151.941       14.854      218.837      112.509       83.526    47889.586    12658.270     6976.567        6.860        3.376      263.605      102.038        0.150      348.582       28.380      860.468
08/12/2014  15:36:00     -237.192     -102.031        4.255      216.026      132.617       71.014    46667.394    17587.231     5042.978        6.798        3.465      258.206       85.095        0.109      348.524       28.282      860.447
08/12/2014  15:37:00     -233.742     -161.366        4.278      200.190      145.296       74.124    40076.074    21111.066     5494.368        7.367        3.334      284.032       84.254        0.088      348.649       28.498      860.465
08/12/2014  15:38:00     -180.095     -161.976       -2.624      164.562      102.306       69.692    27080.784    10466.501     4856.955        5.053        2.120      242.220       72.387        0.089      348.798       28.753      860.479
08/12/2014  15:39:00     -238.250     -260.851       14.506      270.781      277.285       94.116    73322.212    76886.943     8857.782       14.201        7.953      353.279      122.275        0.120      348.678       28.546      860.483
08/12/2014  15:40:00     -384.417     -338.931        8.814      257.334      223.691      123.995    66220.726    50037.677    15374.859       19.716        6.582      512.495      118.567        0.054      348.535       28.299      860.467
08/12/2014  15:41:00     -347.179     -339.931       -7.453      227.370      169.624       95.145    51696.945    28772.352     9052.493       16.281        4.476      485.888       96.864        0.040      348.490       28.220      860.496
08/12/2014  15:42:00     -314.595     -363.677      -19.965      210.455      235.822      107.818    44291.277    55612.124    11624.812       17.156        5.576      480.865       91.211        0.036      348.403       28.070      860.483
08/12/2014  15:43:00     -443.117     -343.558      -29.727      285.113      234.926      115.481    81289.277    55190.439    13335.842       23.251        7.491      560.701      138.899        0.061      348.376       28.024      860.460
08/12/2014  15:44:00     -235.279     -333.879       22.029      209.650      247.088      109.165    43953.253    61052.299    11917.076       14.210        5.846      408.450      116.737        0.082      348.441       28.136      860.457
08/12/2014  15:45:00     -158.562     -261.324      -18.647      202.341      156.467       79.415    40941.904    24481.891     6306.712        8.274        3.587      305.666       54.849        0.032      348.741       28.655      860.471
08/12/2014  15:46:00     -204.774     -319.442        1.233      184.099      159.429       94.796    33892.333    25417.609     8986.315       10.612        3.415      379.441       71.482        0.035      348.611       28.429      860.585
08/12/2014  15:47:00     -436.020     -314.592        8.494      250.344      169.692       97.036    62672.049    28795.258     9416.049       19.500        5.044      537.663      111.670        0.043      348.301       27.894      860.523
08/12/2014  15:48:00     -317.867     -170.415       -6.965      182.926      119.325       73.505    33461.829    14238.363     5402.986        9.161        2.655      360.667       83.292        0.053      348.348       27.975      860.495
08/12/2014  15:49:00     -184.321     -246.851       -8.759      196.235      156.436       87.169    38508.339    24472.229     7598.506        8.277        3.529      308.074       77.254        0.063      348.398       28.060      860.489
08/12/2014  15:50:00     -201.919     -162.659       -1.731      162.656      129.404       77.101    26456.841    16745.309     5944.602        5.818        2.457      259.286       51.557        0.040      348.504       28.245      860.452
08/12/2014  15:51:00     -210.479     -236.335       20.285      150.467      143.753       70.008    22640.301    20664.919     4901.074        7.438        2.410      316.474       58.050        0.034      348.515       28.262      860.426
08/12/2014  15:52:00      -46.793     -150.916       17.365      193.885      192.440       89.019    37591.551    37033.088     7924.415        5.389        4.127      158.004      100.656        0.406      348.794       28.747      860.421
08/12/2014  15:53:00     -277.633     -271.962      -24.163      182.340      227.397       82.353    33247.923    51709.540     6781.983       12.167        4.587      388.643       91.721        0.056      348.657       28.510      860.445
08/12/2014  15:54:00     -200.510     -185.054       18.281      221.226      160.029       88.827    48941.101    25609.405     7890.265        7.860        4.122      272.854       81.336        0.089      348.786       28.733      860.448
08/12/2014  15:55:00     -140.354     -318.816      -21.003      147.521      148.313       87.995    21762.434    21996.677     7743.197        8.663        2.575      348.343       60.750        0.030      348.501       28.241      860.446
08/12/2014  15:56:00     -148.625     -298.264        8.451      149.342      128.416       83.703    22303.008    16490.634     7006.109        7.845        2.290      333.243       54.083        0.026      348.580       28.375      860.447
08/12/2014  15:57:00     -145.483     -311.661      -12.040      226.673      142.623       89.325    51380.765    20341.301     7978.931        9.906        3.985      343.945       76.964        0.050      348.511       28.257      860.480
08/12/2014  15:58:00     -319.114     -254.820        5.668      184.538      229.955       93.570    34054.409    52879.457     8755.393       13.123        4.784      408.371       98.381        0.058      348.371       28.014      860.479
08/12/2014  15:59:00     -161.013     -157.813        3.023      174.520      129.706       84.439    30457.114    16823.683     7129.898        5.261        2.721      225.455       67.905        0.091      348.603       28.416      860.468
08/12/2014  16:00:00     -212.611     -284.196      -16.541      160.505      172.472       73.794    25761.749    29746.612     5445.553        9.359        3.048      354.923       70.388        0.039      348.316       27.918      860.516
08/12/2014  16:01:00     -164.507     -271.874      -17.421      118.302      134.488       66.049    13995.456    18086.944     4362.522        6.886        1.822      317.770       57.910        0.033      348.216       27.747      860.485
08/12/2014  16:02:00     -138.160     -134.075        2.169      115.095      108.143       56.320    13246.853    11694.926     3171.965        3.259        1.406      192.520       46.645        0.059      348.454       28.159      860.459
08/12/2014  16:03:00     -196.687     -141.558        4.001      189.176      131.266       66.346    35787.595    17230.747     4401.735        5.807        2.871      242.331       86.154        0.126      348.645       28.491      860.457
08/12/2014  16:04:00     -406.036     -279.789      -25.354      212.059      155.712       85.326    44968.919    24246.279     7280.537       16.013        3.825      493.100       93.923        0.036      348.450       28.152      860.457
08/12/2014  16:05:00     -365.086     -183.871       -2.281      204.559      139.976       78.987    41844.403    19593.296     6238.930       11.738        3.384      408.774       88.850        0.047      348.418       28.097      860.429
08/12/2014  16:06:00     -338.164     -384.150      -20.213      166.686      167.399       99.489    27784.278    28022.437     9897.967       16.401        3.285      511.788       94.927        0.034      348.405       28.072      860.454
08/12/2014  16:07:00     -219.172     -363.709      -25.036      181.850      199.276      101.610    33069.379    39711.114    10324.641       13.201        4.155      424.642       82.196        0.037      348.312       27.912      860.472
08/12/2014  16:08:00     -195.540     -257.446        7.285      158.564      173.358      103.408    25142.654    30052.918    10693.253        8.522        3.294      323.287       98.134        0.092      348.383       28.035      860.466
08/12/2014  16:09:00     -148.728     -269.758        0.687      210.437      186.701       97.083    44283.593    34857.344     9425.125        9.171        4.428      308.041      100.285        0.106      348.305       27.902      860.454
08/12/2014  16:10:00     -255.680     -321.097        9.048      183.281      255.092       92.743    33591.910    65071.722     8601.308       13.789        5.363      410.458      109.218        0.071      348.398       28.060      860.460
08/12/2014  16:11:00     -347.399     -399.689       -1.124      194.563      227.867      107.807    37854.804    51923.546    11622.332       19.090        5.070      529.563      102.419        0.037      348.294       27.881      860.438
08/12/2014  16:12:00     -455.091     -259.124      -19.303      234.655      152.583       96.948    55062.962    23281.557     9399.010       18.117        4.387      523.691      104.520        0.040      348.259       27.819      860.410
08/12/2014  16:13:00     -322.977     -195.274       -4.964      182.070      165.855       86.169    33149.571    27507.993     7425.091       10.526        3.404      377.420       97.420        0.067      348.347       27.974      860.399
08/12/2014  16:14:00     -416.096     -244.445       -3.707      196.107      130.955       99.767    38457.992    17149.118     9953.436       14.922        3.278      482.587      105.729        0.048      348.344       27.968      860.382
08/12/2014  16:15:00     -233.594     -310.448      -23.517      155.428      126.992       77.237    24157.793    16126.863     5965.579        9.886        2.313      388.516       82.475        0.045      348.425       28.107      860.352
08/12/2014  16:16:00     -249.222     -151.443       -2.771      191.446      126.182       65.054    36651.729    15921.913     4231.991        7.092        2.840      291.627       75.279        0.067      348.600       28.410      860.355
08/12/2014  16:17:00     -590.193     -353.263      -28.864      286.233      234.450      121.883    81929.235    54966.781    14855.397       31.282        7.588      687.839      124.882        0.033      348.359       27.993      860.268
08/12/2014  16:18:00     -197.323     -199.970       -7.230      193.639      178.044       88.775    37495.891    31699.638     7880.982        7.801        3.854      280.934       83.324        0.088      348.511       28.257      860.338
08/12/2014  16:19:00     -314.781     -337.037       -4.726      191.137      246.922       91.336    36533.280    60970.404     8342.282       15.925        5.292      461.174       85.163        0.034      348.344       27.968      860.309
08/12/2014  16:20:00     -146.532     -221.641        5.216      221.449      195.965      110.160    49039.545    38402.295    12135.313        8.508        4.979      265.700      102.792        0.150      348.475       28.195      860.294
08/12/2014  16:21:00     -184.115     -262.267      -13.288      260.051      143.626       99.801    67626.513    20628.374     9960.308       10.052        4.911      320.441       89.988        0.079      348.575       28.369      860.272
08/12/2014  16:22:00     -263.524     -414.767        4.950      276.000      220.383      130.513    76175.847    48568.660    17033.689       19.161        7.089      491.403      107.986        0.048      348.515       28.262      860.335
08/12/2014  16:23:00      -97.672     -254.396      -13.941      214.864      216.568      115.680    46166.363    46901.708    13381.943        9.043        5.323      272.502       85.641        0.099      348.645       28.489      860.311
08/12/2014  16:24:00     -219.003     -287.687       14.298      223.307      174.694      102.537    49866.102    30518.057    10513.889       11.090        4.545      361.560       94.219        0.068      348.510       28.255      860.349
08/12/2014  16:25:00     -180.005     -262.198       10.523      165.444      170.438       81.569    27371.659    29049.166     6653.450        8.215        3.154      318.040       61.003        0.037      348.466       28.179      860.349
08/12/2014  16:26:00     -268.460     -268.833       -7.990      200.325      219.229       98.178    40130.300    48061.522     9638.831       12.110        4.892      379.924      108.472        0.082      348.256       27.817      860.333
08/12/2014  16:27:00     -158.630     -115.689       13.147      200.364      174.277      102.140    40145.658    30372.357    10432.600        5.982        4.048      196.334       79.656        0.165      348.437       28.131      860.231
08/12/2014  16:28:00     -149.238      -63.592       -3.495      136.822      115.205       58.321    18720.212    13272.132     3401.323        3.085        1.770      162.222       52.347        0.104      348.658       28.512      860.232
08/12/2014  16:29:00     -166.032     -219.370        2.379      207.190      136.253       73.651    42927.692    18564.785     5424.444        7.129        3.346      275.118       38.633        0.020      348.559       28.339      860.254
08/12/2014  16:30:00      -29.489     -113.875        8.256       85.333      141.199       66.595     7281.801    19937.095     4434.904        2.277        1.583      117.631       50.803        0.187      348.681       28.553      860.265
08/12/2014  16:31:00     -162.624     -154.784      -11.019      150.662      123.205       56.232    22698.964    15179.543     3162.046        4.578        2.052      224.510       50.439        0.050      348.674       28.540      860.218
08/12/2014  16:32:00      -27.289     -201.846       25.715      171.811      193.666       78.107    29519.185    37506.624     6100.647        5.762        3.656      203.682      105.934        0.270      348.616       28.440      860.216
08/12/2014  16:33:00     -255.619     -272.719       -8.021      148.600      194.032       79.389    22081.966    37648.530     6302.632       10.289        3.302      373.787       64.873        0.030      348.405       28.074      860.232
08/12/2014  16:34:00      -32.593     -161.035       18.724      110.250      142.451       67.957    12155.133    20292.212     4618.144        3.220        1.853      164.300       48.331        0.087      348.433       28.125      860.210
08/12/2014  16:35:00      -74.954     -110.917        5.441       83.060       89.868       49.897     6898.902     8076.269     2489.728        1.770        0.873      133.868       50.847        0.144      348.549       28.324      860.191
08/12/2014  16:36:00      -49.923     -113.574       -0.538       85.202       81.038       52.944     7259.438     6567.237     2803.065        1.601        0.831      124.062       40.445        0.106      348.619       28.446      860.200
08/12/2014  16:37:00      -18.366      -30.359       14.155      107.020       99.106       56.490    11453.386     9822.092     3191.159        1.296        1.223       35.482       56.839        2.566      348.749       28.670      860.188
08/12/2014  16:38:00     -228.186     -177.553        7.300      125.477      115.141       54.063    15744.379    13257.366     2922.813        5.778        1.596      289.126       37.720        0.017      348.580       28.378      860.181
08/12/2014  16:39:00      -99.091     -122.156        0.822      139.472       92.069       53.595    19452.365     8476.722     2872.415        2.777        1.540      157.293       51.373        0.107      348.618       28.443      860.191
08/12/2014  16:40:00       52.001     -166.725       -3.762      112.082      111.193       65.459    12562.389    12363.889     4284.875        2.986        1.461      174.646       52.160        0.089      348.610       28.429      860.196
08/12/2014  16:41:00        5.264     -254.712      -12.634      197.930      140.768       78.107    39176.381    19815.715     6100.744        6.507        3.255      254.767       76.997        0.091      348.415       28.092      860.202
08/12/2014  16:42:00      -56.648     -138.067       32.566      128.397      139.416       66.373    16485.847    19436.814     4405.344        3.182        2.016      149.237       55.254        0.137      348.425       28.109      860.238
08/12/2014  16:43:00       78.704     -230.678      -21.181      133.928      128.678       59.825    17936.804    16558.075     3578.998        4.896        1.904      243.735       53.569        0.048      348.311       27.911      860.215
08/12/2014  16:44:00     -106.062     -208.093      -19.092      135.327      160.225       69.216    18313.500    25672.153     4790.819        5.184        2.439      233.563       50.672        0.047      348.378       28.027      860.209
08/12/2014  16:45:00      -17.917     -109.363        0.598       82.149       93.178       54.909     6748.464     8682.053     3014.998        1.536        0.922      110.821       55.313        0.249      348.453       28.159      860.196
08/12/2014  16:46:00      -95.744     -102.420      -14.150      180.228       66.488       44.931    32482.239     4420.692     2018.798        2.938        1.946      140.203       42.099        0.090      348.444       28.142      860.199
08/12/2014  16:47:00     -107.558      -99.637        7.815      126.458       66.309       47.775    15991.522     4396.938     2282.442        2.211        1.134      146.616       44.195        0.091      348.629       28.463      860.204
08/12/2014  16:48:00      -95.109      -87.418        7.373      125.544      128.678       71.920    15761.255    16558.133     5172.417        2.711        1.875      129.181       65.704        0.259      348.644       28.488      860.217
08/12/2014  16:49:00     -130.600     -162.166       18.456      135.550      127.842       64.391    18373.906    16343.453     4146.141        4.127        1.943      208.216       70.006        0.113      348.541       28.310      860.224
08/12/2014  16:50:00     -146.217     -149.691        4.049      120.189       71.817       50.386    14445.451     5157.737     2538.734        3.297        1.107      209.253       40.440        0.037      348.579       28.374      860.211
08/12/2014  16:51:00     -115.749     -197.119       -8.151      100.949       76.454       44.802    10190.605     5845.272     2007.230        3.518        0.902      228.590       37.105        0.026      348.442       28.137      860.226
08/12/2014  16:52:00     -300.013     -204.281      -10.179      154.720      132.702       73.968    23938.151    17609.778     5471.337        8.942        2.351      362.958       66.404        0.033      348.470       28.186      860.229
08/12/2014  16:53:00     -423.707     -230.092      -13.518      230.229      217.143       90.176    53005.453    47150.872     8131.789       17.045        5.414      482.152      101.225        0.044      348.330       27.944      860.214
08/12/2014  16:54:00     -404.541     -242.733       -9.908      243.625      209.808      103.479    59352.924    44019.509    10707.951       16.835        5.704      471.776      101.811        0.047      348.376       28.023      860.245
08/12/2014  16:55:00     -492.150     -403.856      -19.004      239.532      274.797      124.395    57375.513    75513.452    15474.007       27.699        7.418      636.641      128.374        0.041      348.281       27.859      860.243
08/12/2014  16:56:00     -413.240      -85.033      -30.575      191.868      144.521       79.915    36813.153    20886.452     6386.405       12.150        3.204      421.898       89.492        0.045      348.213       27.741      860.257
08/12/2014  16:57:00     -356.820     -257.945      -15.556      217.438      174.921       76.633    47279.131    30597.396     5872.678       13.891        4.187      440.291       87.438        0.039      348.090       27.528      860.294
08/12/2014  16:58:00     -128.884      -88.773       15.612      109.973       84.686       54.631    12093.982     7171.647     2984.531        2.349        1.113      156.499       33.181        0.045      348.331       27.947      860.315
08/12/2014  16:59:00     -172.591     -126.388       16.538      172.570      164.647       74.320    29780.263    27108.680     5523.502        5.421        3.121      213.920       70.201        0.108      348.324       27.933      860.327
08/12/2014  17:00:00     -134.104      -90.228       31.422      137.286      118.441       67.158    18847.495    14028.274     4510.167        3.224        1.869      161.632       60.187        0.139      348.458       28.165      860.325
08/12/2014  17:01:00     -361.710     -168.480       12.408      217.020      160.177       95.946    47097.627    25656.552     9205.653       12.065        4.098      399.023       91.620        0.053      348.348       27.975      860.300
08/12/2014  17:02:00     -416.768     -234.799        2.312      212.469      158.503       90.292    45143.109    25123.151     8152.713       15.361        3.921      478.358       95.652        0.040      348.195       27.709      860.295
08/12/2014  17:03:00     -456.797     -229.928       -1.867      284.155      179.741      107.328    80744.010    32306.768    11519.231       19.303        6.229      511.401      116.153        0.052      348.118       27.577      860.290
08/12/2014  17:04:00     -281.752     -310.620       -5.593      167.388      177.575       82.295    28018.671    31532.815     6772.511       12.110        3.316      419.368       84.237        0.040      348.152       27.635      860.321
08/12/2014  17:05:00     -280.327     -405.262       -9.406      191.956      213.341       89.531    36847.035    45514.320     8015.863       16.662        4.519      492.768       86.759        0.031      348.108       27.561      860.348
08/12/2014  17:06:00     -276.838     -158.086      -10.158      145.517      220.945       71.705    21175.108    48816.630     5141.579        8.842        3.757      318.795       78.230        0.060      348.129       27.596      860.342
08/12/2014  17:07:00     -135.483     -146.218        2.133       86.265      115.285       66.344     7441.630    13290.628     4401.500        3.243        1.257      199.337       61.308        0.095      348.164       27.658      860.315
08/12/2014  17:08:00      -86.964      -97.087        6.029      125.002      114.024       50.950    15625.395    13001.485     2595.916        2.412        1.561      130.341       30.499        0.055      348.242       27.794      860.309
08/12/2014  17:09:00     -229.657     -200.002       12.120      138.646      180.719       62.833    19222.635    32659.351     3948.043        7.435        2.792      304.537       67.872        0.050      348.189       27.700      860.351
08/12/2014  17:10:00     -224.109     -142.489        7.252      171.276      173.479       78.478    29335.445    30094.812     6158.741        6.807        3.279      265.571       91.403        0.118      348.177       27.679      860.302
08/12/2014  17:11:00     -176.436      -73.153       39.390      173.812      187.537       81.388    30210.544    35170.031     6624.009        5.500        3.600      191.000       82.253        0.185      348.213       27.743      860.310
08/12/2014  17:12:00     -411.961     -330.150      -28.335      208.513      192.804       98.151    43477.633    37173.379     9633.683       18.488        4.514      527.930      100.328        0.036      347.985       27.348      860.291
08/12/2014  17:13:00     -220.068     -191.574        2.498      160.259      140.039       74.580    25683.065    19611.036     5562.221        6.799        2.543      291.771       82.147        0.079      348.038       27.440      860.299
08/12/2014  17:14:00     -358.104     -212.057      -17.027      178.094      121.310       75.392    31717.316    14716.128     5683.927       11.280        2.606      416.181       89.494        0.046      348.023       27.412      860.290
08/12/2014  17:15:00     -334.367     -269.895        1.327      204.151      155.865       82.243    41677.433    24293.804     6763.909       12.868        3.637      429.703       87.699        0.042      348.033       27.430      860.249
08/12/2014  17:16:00     -435.569     -229.692      -24.923      215.988      203.544      114.440    46650.955    41430.004    13096.541       17.212        5.059      492.421      123.121        0.063      348.027       27.420      860.251
08/12/2014  17:17:00     -458.170     -220.024      -33.365      268.301      191.260       87.251    71985.402    36580.249     7612.681       18.779        5.809      508.262      111.793        0.048      347.991       27.358      860.261
08/12/2014  17:18:00     -367.756     -115.575      -10.961      168.616      143.501       85.605    28431.341    20592.613     7328.152       10.253        2.818      385.489       81.873        0.045      348.025       27.418      860.235
08/12/2014  17:19:00     -166.343      -83.609        9.299       98.303       90.679       49.887     9663.394     8222.645     2488.737        2.756        1.019      186.173       42.883        0.053      348.165       27.658      860.259
08/12/2014  17:20:00     -323.140      -75.013        0.480      194.154      160.772       74.405    37695.693    25847.673     5536.172        8.955        3.454      331.733       83.628        0.064      348.097       27.540      860.272
08/12/2014  17:21:00     -348.976      -28.886       -3.310      173.055      120.844       74.315    29948.204    14603.265     5522.788        8.634        2.504      350.170       75.241        0.046      347.948       27.284      860.221
08/12/2014  17:22:00     -364.194      -98.620      -16.563      137.127      121.112       67.146    18803.854    14668.018     4508.587        9.030        1.899      377.311       64.399        0.029      347.961       27.305      860.232
08/12/2014  17:23:00     -234.419     -165.333       -1.664      174.433      144.968       72.334    30426.846    21015.787     5232.147        6.947        2.834      286.857       87.466        0.093      348.106       27.557      860.223
08/12/2014  17:24:00     -304.602     -171.182        7.628      193.322      140.775       76.796    37373.528    19817.696     5897.581        9.260        3.154      349.407       82.067        0.055      348.054       27.466      860.216
08/12/2014  17:25:00     -369.636     -255.087       -6.773      182.755      181.183       90.501    33399.243    32827.183     8190.377       13.807        3.721      449.111      103.308        0.053      348.067       27.490      860.171
08/12/2014  17:26:00     -291.769     -180.408      -10.948      224.977      149.820       73.642    50614.572    22445.996     5423.174        9.812        3.924      343.040       88.215        0.066      348.126       27.591      860.181
08/12/2014  17:27:00     -402.272     -231.170      -14.926      190.657      151.190       93.632    36350.119    22858.359     8766.999       14.172        3.399      463.963      105.346        0.052      348.089       27.526      860.163
08/12/2014  17:28:00     -287.996     -181.080       -3.586      166.269      183.577       78.674    27645.438    33700.651     6189.659        9.163        3.377      340.194       80.659        0.056      348.101       27.547      860.164
08/12/2014  17:29:00     -368.553     -159.847        5.961      204.103      152.944       88.119    41658.122    23391.959     7764.921       11.710        3.641      401.724      103.833        0.067      348.074       27.501      860.171
08/12/2014  17:30:00     -384.411     -250.775        6.032      209.182      176.706       84.083    43757.260    31225.020     7069.885       14.636        4.103      458.977      105.145        0.052      347.969       27.320      860.168
08/12/2014  17:31:00     -340.915     -221.271       -7.268      142.276      131.500       69.569    20242.405    17292.179     4839.795       10.380        2.119      406.428       71.349        0.031      347.979       27.336      860.158
08/12/2014  17:32:00     -156.543     -274.621        0.234      108.493      110.712       55.622    11770.799    12257.122     3093.777        6.352        1.356      316.105       56.553        0.032      348.008       27.387      860.168
08/12/2014  17:33:00     -149.117     -215.193        6.640      128.056      135.006       60.668    16398.437    18226.710     3680.612        5.344        1.915      261.809       55.181        0.044      348.129       27.595      860.158
08/12/2014  17:34:00     -219.992     -130.366      -16.318      127.675       84.318       59.751    16300.910     7109.539     3570.223        4.631        1.349      255.718       50.021        0.038      348.176       27.678      860.165
08/12/2014  17:35:00      -79.649     -160.685        2.556       74.374       69.085       41.668     5531.501     4772.771     1736.182        2.210        0.602      179.342       35.984        0.040      348.204       27.727      860.134
08/12/2014  17:36:00     -261.259     -138.542       -0.740      171.264      117.833       70.853    29331.477    13884.553     5020.169        6.783        2.412      295.720       73.092        0.061      348.095       27.538      860.088
08/12/2014  17:37:00     -328.439     -187.738       -0.703      184.051      123.553       72.391    33874.590    15265.411     5240.521        9.874        2.719      378.309       76.248        0.041      348.012       27.395      860.094
08/12/2014  17:38:00     -288.818     -157.162       -4.695      248.489      168.920       73.958    61746.659    28534.080     5469.817       10.192        4.788      328.809       97.829        0.089      348.146       27.627      860.083
08/12/2014  17:39:00     -238.251     -157.956        0.889      163.419      129.109       61.435    26705.797    16669.255     3774.297        6.442        2.357      285.856       66.026        0.053      348.209       27.736      860.073
08/12/2014  17:40:00     -161.402     -150.873       -4.868      104.455      122.938       51.768    10910.777    15113.635     2679.974        3.876        1.435      220.937       55.512        0.063      348.245       27.797      860.091
08/12/2014  17:41:00     -200.255     -185.478        6.538      127.468      120.151       65.106    16247.973    14436.333     4238.838        5.473        1.746      272.954       59.454        0.047      348.225       27.762      860.081
08/12/2014  17:42:00     -113.217     -218.088        1.196       97.926      127.531       60.258     9589.591    16264.164     3631.056        4.493        1.474      245.725       59.821        0.059      348.270       27.842      860.078
08/12/2014  17:43:00     -139.603      -74.911        0.131       76.566       81.788       44.248     5862.383     6689.280     1957.874        1.980        0.725      158.432       49.316        0.097      348.398       28.062      860.079
08/12/2014  17:44:00      -98.414      -28.917       13.779       94.311       71.700       49.949     8894.571     5140.862     2494.941        1.362        0.827      102.575       43.886        0.183      348.652       28.504      860.055
08/12/2014  17:45:00     -359.775     -153.775       -9.764      185.610      141.459       75.724    34451.132    20010.671     5734.077       10.668        3.010      391.261       95.144        0.059      348.263       27.828      860.014
08/12/2014  17:46:00     -233.053      -88.295       30.431      211.107       91.178       61.891    44566.077     8313.375     3830.463        5.986        2.835      249.218       91.051        0.133      348.417       28.096      860.025
08/12/2014  17:47:00     -215.413     -110.743      -13.903      121.586      119.545       59.296    14783.171    14290.894     3516.068        4.572        1.630      242.212       43.090        0.032      348.311       27.912      860.042
08/12/2014  17:48:00     -431.610     -264.701      -10.061      216.638      145.516       81.574    46931.952    21175.001     6654.349       16.559        3.738      506.314      103.600        0.042      348.043       27.447      860.044
08/12/2014  17:49:00     -408.779     -179.217      -12.214      163.994      137.725       79.865    26894.180    18968.205     6378.350       12.579        2.612      446.339       81.441        0.033      347.937       27.266      860.031
08/12/2014  17:50:00     -338.695     -137.542      -25.866      123.355      118.253       68.204    15216.577    13983.807     4651.832        8.407        1.693      365.557       59.768        0.027      348.088       27.524      859.979
08/12/2014  17:51:00     -554.780     -155.194       -5.578      234.176      161.723      105.196    54838.620    26154.269    11066.220       21.196        4.603      576.078      100.152        0.030      348.095       27.539      859.934
08/12/2014  17:52:00     -221.155     -179.162       -3.433      125.548      153.098       65.050    15762.369    23438.868     4231.554        6.222        2.172      284.620       59.006        0.043      348.152       27.637      859.990
08/12/2014  17:53:00     -283.169     -372.938      -11.097      156.237      169.942       74.869    24409.925    28880.310     5605.329       13.913        2.945      468.260       73.591        0.025      348.132       27.601      859.950
08/12/2014  17:54:00     -129.914     -172.235        6.746      137.347      145.987       67.547    18864.334    21312.155     4562.639        4.565        2.237      215.738       65.096        0.091      348.295       27.883      860.001
08/12/2014  17:55:00     -144.998     -166.428      -11.611      132.846      126.641       60.167    17648.070    16037.942     3620.023        4.307        1.865      220.732       56.935        0.067      348.041       27.445      859.993
08/12/2014  17:56:00     -240.997     -241.108      -13.129      147.321      115.265       56.035    21703.486    13285.937     3139.883        7.725        1.906      340.900       46.279        0.018      348.099       27.544      859.976
08/12/2014  17:57:00     -192.796     -252.352      -14.122      174.184      135.490       68.293    30339.966    18357.440     4663.912        7.720        2.668      317.572       58.477        0.034      348.180       27.685      859.967
08/12/2014  17:58:00     -242.162     -352.123        2.015      146.397      153.839       81.991    21432.048    23666.546     6722.534       11.722        2.591      427.356       68.264        0.026      348.129       27.596      859.986
08/12/2014  17:59:00     -163.276     -286.087      -13.123      101.913      129.559       79.390    10386.182    16785.451     6302.719        7.107        1.674      329.401       74.644        0.051      348.208       27.733      860.030
08/12/2014  18:00:00     -191.942     -250.760      -18.934      114.845      196.874       74.200    13189.420    38759.480     5505.569        7.876        2.873      315.788       42.598        0.018      348.128       27.594      860.011
08/12/2014  18:01:00     -118.469     -156.982       23.894      158.275       93.134       60.255    25051.114     8673.859     3630.627        3.830        1.868      196.668       59.975        0.093      348.190       27.702      859.985
08/12/2014  18:02:00      -74.966      -68.923       29.525      140.215       91.878       64.566    19660.211     8441.503     4168.798        2.175        1.614      101.835       71.912        0.499      348.330       27.946      859.937
08/12/2014  18:03:00       -6.679      -75.397       44.132      113.348      125.718       59.224    12847.751    15804.947     3507.471        1.991        1.608       75.692       63.860        0.712      348.417       28.094      859.931
08/12/2014  18:04:00       33.399     -257.374      -30.234      151.786      133.699       59.187    23038.895    17875.468     3503.089        5.634        2.221      259.532       18.072        0.005      348.198       27.716      859.951
08/12/2014  18:05:00     -280.193     -169.462       -2.457      194.606      150.086       90.039    37871.448    22525.816     8107.096        8.785        3.425      327.453       82.032        0.063      348.208       27.732      859.982
08/12/2014  18:06:00      -21.324     -152.863       -8.103       85.931       91.093       56.534     7384.121     8297.915     3196.065        2.138        0.944      154.344       47.758        0.096      348.234       27.781      860.005
08/12/2014  18:07:00      -27.887     -227.969       -3.706       84.463      109.970       62.128     7134.059    12093.327     3859.921        3.792        1.154      229.668       15.362        0.004      348.069       27.493      860.009
08/12/2014  18:08:00     -169.644     -208.763       -3.881      113.810      113.157       67.272    12952.723    12804.580     4525.581        5.132        1.514      269.000       69.961        0.068      348.002       27.378      860.021
08/12/2014  18:09:00     -159.880     -131.086       -9.536       80.314       96.757       45.038     6450.348     9361.822     2028.419        3.033        0.892      206.749       28.756        0.019      348.108       27.559      860.041
08/12/2014  18:10:00     -190.246     -107.342       18.671      152.117      107.056       69.783    23139.692    11460.910     4869.633        4.376        1.974      218.440       78.288        0.128      348.164       27.658      860.012
08/12/2014  18:11:00     -160.839     -166.267       -2.053      125.001       95.622       62.874    15625.157     9143.543     3953.149        4.111        1.436      231.330       45.967        0.039      348.162       27.652      860.023
08/12/2014  18:12:00     -139.627     -234.948       -6.759      100.103      130.155       59.236    10020.703    16940.429     3508.893        5.260        1.524      273.306       60.821        0.050      348.190       27.703      860.051
08/12/2014  18:13:00     -199.600     -172.877       10.242      148.272      151.630       67.543    21984.595    22991.708     4562.020        5.967        2.477      264.058       70.731        0.072      348.159       27.649      860.093
08/12/2014  18:14:00     -225.384     -280.447       10.317      209.630      155.928       90.463    43944.826    24313.688     8183.573       10.298        3.822      359.789       85.696        0.057      348.008       27.387      860.061
08/12/2014  18:15:00     -269.500     -370.843      -20.829      133.613      203.972       94.115    17852.320    41604.381     8857.543       13.944        3.416      458.427       89.994        0.039      347.935       27.261      860.062
08/12/2014  18:16:00     -254.458     -384.808       -1.165      174.539      173.610       83.273    30463.778    30140.390     6934.435       14.017        3.377      461.330       84.025        0.033      347.941       27.271      860.065
08/12/2014  18:17:00     -232.137     -286.280       -6.878      176.832      173.966       69.473    31269.657    30264.089     4826.564       10.111        3.318      368.570       72.486        0.039      347.933       27.259      860.071
08/12/2014  18:18:00     -334.332     -300.105        1.137      229.067      129.753       81.387    52471.849    16835.959     6623.875       13.887        3.797      449.267       62.889        0.020      347.923       27.241      860.043
08/12/2014  18:19:00     -352.670     -235.418       -7.096      174.970      178.096       74.108    30614.638    31718.191     5491.966       12.382        3.391      424.026       64.185        0.023      347.892       27.188      860.066
08/12/2014  18:20:00     -284.167     -194.164       -7.961      140.266      124.185       71.881    19674.637    15421.957     5166.842        7.938        2.013      344.166       74.298        0.047      347.905       27.209      860.088
08/12/2014  18:21:00     -201.944     -161.648        1.615      139.241       99.344       64.746    19388.104     9869.227     4192.089        5.018        1.672      258.673       65.388        0.064      347.910       27.218      860.112
08/12/2014  18:22:00     -225.210     -201.112       -2.949      166.659      119.641       64.894    27775.072    14313.909     4211.275        6.873        2.315      301.936       62.273        0.043      347.909       27.218      860.106
08/12/2014  18:23:00     -216.086     -227.877       20.543      189.878      156.821       89.816    36053.631    24592.876     8066.934        8.386        3.436      314.040       77.464        0.061      347.892       27.187      860.129
08/12/2014  18:24:00     -197.150     -276.837       -7.612      146.848      138.713       69.924    21564.286    19241.219     4889.390        8.062        2.285      339.863       62.996        0.034      347.871       27.153      860.165
08/12/2014  18:25:00     -127.352     -238.143       31.172      180.466      144.977       88.523    32567.799    21018.201     7836.292        6.765        3.071      270.057       92.771        0.118      347.895       27.191      860.175
08/12/2014  18:26:00     -194.819     -160.332       -3.935      140.336      121.349       49.901    19694.284    14725.692     2490.125        5.029        1.846      252.311       39.623        0.025      347.791       27.012      860.176
08/12/2014  18:27:00     -154.801     -271.741       -3.331      126.052      184.917       73.920    15889.195    34194.349     5464.239        7.667        2.777      312.740       70.961        0.051      347.882       27.170      860.196
08/12/2014  18:28:00      -67.628      -55.954       27.240       89.057       83.024       52.255     7931.100     6892.974     2730.614        1.300        0.878       87.775       56.420        0.413      348.055       27.470      860.173
08/12/2014  18:29:00     -231.515     -171.188      -11.797      145.031      133.234       64.666    21034.080    17751.309     4181.754        6.300        2.148      287.931       58.985        0.042      347.805       27.037      860.210
08/12/2014  18:30:00     -317.753     -276.066       -6.605      187.532      171.000       83.498    35168.332    29241.075     6971.886       12.429        3.569      420.927       80.210        0.036      347.836       27.091      860.189
08/12/2014  18:31:00     -176.583     -169.285       16.225      147.824      132.668       69.766    21851.795    17600.819     4867.319        5.220        2.216      244.620       73.791        0.091      347.932       27.256      860.182
08/12/2014  18:32:00     -122.419     -259.582        5.958      107.798      111.579       68.127    11620.446    12449.836     4641.284        5.555        1.436      287.000       50.432        0.031      347.918       27.232      860.187
08/12/2014  18:33:00     -264.664     -236.263        7.371      214.340      181.677       90.452    45941.647    33006.519     8181.592       10.651        4.356      354.778       97.299        0.075      347.835       27.089      860.191
08/12/2014  18:34:00     -251.873     -236.460        1.719      172.705      158.031       83.260    29826.955    24973.686     6932.150        9.053        3.087      345.476       72.893        0.045      347.816       27.054      860.200
08/12/2014  18:35:00     -180.990     -392.668      -21.211      176.948      166.881       89.210    31310.713    27849.177     7958.468       12.724        3.356      432.372       88.365        0.042      347.759       26.957      860.196
08/12/2014  18:36:00      -82.100     -220.575        1.228      136.839      130.627       83.277    18724.970    17063.423     6935.110        4.905        2.136      235.359       69.982        0.088      347.822       27.066      860.193
08/12/2014  18:37:00     -137.344     -134.471        1.505      139.149       84.701       50.832    19362.474     7174.225     2583.849        3.303        1.456      192.213       34.701        0.033      347.871       27.153      860.242
08/12/2014  18:38:00     -212.441     -278.676      -14.914      135.105      116.561       63.743    18253.273    13586.569     4063.114        7.945        1.795      350.416       62.249        0.032      347.748       26.938      860.249
08/12/2014  18:39:00     -157.231     -209.531        7.101      112.833      132.668       58.556    12731.363    17600.929     3428.805        5.121        1.688      261.964       66.203        0.064      347.694       26.847      860.219
08/12/2014  18:40:00     -147.999     -139.436        1.735      106.967       84.645       61.755    11441.862     7164.754     3813.733        3.188        1.121      203.338       62.312        0.094      347.768       26.973      860.232
08/12/2014  18:41:00      -89.492     -220.939        4.101       77.667       94.441       45.952     6032.210     8919.118     2111.564        3.695        0.853      238.376       42.590        0.032      347.775       26.986      860.251
08/12/2014  18:42:00     -121.918     -147.829       -5.334      170.624      112.237       71.848    29112.528    12597.067     5162.202        4.180        2.344      191.618       71.634        0.140      347.796       27.021      860.279
08/12/2014  18:43:00     -127.639     -242.834        2.353      118.071      152.618       77.192    13940.681    23292.332     5958.601        5.922        2.160      274.336       70.523        0.066      347.717       26.885      860.295
08/12/2014  18:44:00      -59.804     -215.391      -12.674      143.537      141.319       68.010    20602.912    19971.174     4625.373        4.766        2.260      223.539       61.114        0.075      347.630       26.735      860.283
08/12/2014  18:45:00      -84.929      -68.755       -3.927       82.400       58.746       36.087     6789.690     3451.054     1302.276        1.175        0.577      109.271       30.672        0.079      347.734       26.918      860.290
08/12/2014  18:46:00     -185.067      -68.265        8.395      156.317       98.806       51.522    24435.014     9762.657     2654.517        3.791        1.843      197.256       52.359        0.070      347.747       26.938      860.288
08/12/2014  18:47:00     -220.366     -201.637       -5.164      136.916      111.620       64.048    18746.123    12459.080     4102.117        6.227        1.765      298.695       61.276        0.042      347.669       26.802      860.276
08/12/2014  18:48:00     -120.211     -171.364       -6.683       93.940       99.299       50.750     8824.731     9860.200     2575.556        3.256        1.063      209.323       53.413        0.065      347.716       26.884      860.268
08/12/2014  18:49:00      -95.574     -119.801       -7.091       97.316       77.231       39.401     9470.406     5964.627     1552.462        2.026        0.849      153.254       29.733        0.038      347.756       26.953      860.281
08/12/2014  18:50:00     -232.768     -136.555       -8.653      115.164       69.057       48.166    13262.666     4768.810     2319.966        4.662        1.018      269.867       53.500        0.039      347.618       26.714      860.287
08/12/2014  18:51:00     -138.267      -99.070        5.907      144.203       72.251       53.320    20794.403     5220.162     2843.009        2.891        1.443      170.096       60.622        0.127      347.605       26.693      860.290
08/12/2014  18:52:00     -170.946     -149.130        8.443      125.533       86.449       58.698    15758.493     7473.463     3445.514        3.910        1.334      226.853       70.765        0.097      347.533       26.569      860.291
08/12/2014  18:53:00     -173.949      -25.128        4.027       69.696       88.810       41.184     4857.592     7887.159     1696.097        2.267        0.722      175.755       40.033        0.052      347.559       26.615      860.284
08/12/2014  18:54:00     -165.708        4.540       -5.011       91.126       90.047       43.954     8303.879     8108.397     1931.936        2.292        0.917      165.770       49.852        0.090      347.460       26.442      860.269
08/12/2014  18:55:00      -84.429     -136.960       -7.628       52.073       51.470       21.282     2711.587     2649.114      452.911        1.588        0.291      160.892       11.399        0.005      347.543       26.587      860.269
08/12/2014  18:56:00     -126.663     -212.613        1.887       79.153      101.274       51.815     6265.217    10256.520     2684.802        4.023        0.960      247.483       43.409        0.031      347.570       26.630      860.278
08/12/2014  18:57:00     -140.253     -162.848        6.440      114.973       96.007       58.688    13218.906     9217.339     3444.339        3.605        1.294      214.919       59.406        0.076      347.573       26.636      860.271
08/12/2014  18:58:00      -41.797     -227.404      -14.004      122.723       74.550       54.906    15060.847     5557.628     3014.659        3.864        1.182      231.213       34.262        0.022      347.548       26.593      860.258
08/12/2014  18:59:00     -117.928      -86.335       -2.070       76.432       98.759       37.598     5841.836     9753.418     1413.643        1.918        0.850      146.153       31.313        0.046      347.512       26.533      860.258
08/12/2014  19:00:00     -114.586      -71.493        7.112       96.084       59.266       42.128     9232.079     3512.465     1774.734        1.640        0.726      135.060       35.188        0.068      347.579       26.649      860.277
08/12/2014  19:01:00      -81.581        9.868       14.130       94.480       67.723       42.404     8926.489     4586.406     1798.078        1.113        0.766       82.176       43.820        0.284      347.516       26.540      860.263
08/12/2014  19:02:00      -70.682     -211.914       14.845      141.017      113.667       57.729    19885.791    12920.208     3332.585        4.312        1.807      223.391       60.923        0.074      347.492       26.497      860.283
08/12/2014  19:03:00     -236.071      -80.873        4.871      141.200      134.948       66.850    19937.441    18210.941     4468.947        5.245        2.131      249.540       66.591        0.071      347.407       26.351      860.303
08/12/2014  19:04:00     -275.640     -165.063        8.370      185.554      127.756       68.463    34430.366    16321.521     4687.185        7.936        2.772      321.284       77.188        0.058      347.357       26.264      860.317
08/12/2014  19:05:00     -258.185     -141.522       -3.928      147.461      142.851       65.442    21744.714    20406.544     4282.655        6.656        2.322      294.428       77.789        0.070      347.292       26.152      860.330
08/12/2014  19:06:00     -190.012     -101.453       -2.391      102.994       89.599       46.579    10607.841     8027.985     2169.610        3.360        1.040      215.400       44.472        0.043      347.292       26.153      860.325
08/12/2014  19:07:00     -208.845      -55.750        7.610      140.651       95.501       53.704    19782.650     9120.434     2884.075        3.928        1.589      216.158       64.394        0.089      347.322       26.205      860.310
08/12/2014  19:08:00     -220.834      -69.066       -1.935      134.586       82.076       53.843    18113.489     6736.462     2899.055        4.064        1.387      231.383       61.224        0.070      347.301       26.168      860.293
08/12/2014  19:09:00     -184.920     -105.771       -8.655      101.243       93.372       51.968    10250.212     8718.252     2700.720        3.356        1.083      213.033       51.375        0.058      347.283       26.134      860.262
08/12/2014  19:10:00      -82.267     -110.492       19.583       90.403       73.592       48.099     8172.781     5415.729     2313.477        1.763        0.795      137.754       50.049        0.132      347.266       26.109      860.256
08/12/2014  19:11:00     -161.313     -115.804      -14.573       83.809       66.541       38.970     7023.890     4427.671     1518.640        2.630        0.649      198.576       42.052        0.045      347.251       26.082      860.226
08/12/2014  19:12:00      -74.269     -206.200       -4.986       58.590       66.689       43.661     3432.804     4447.373     1906.241        2.892        0.489      219.167       38.737        0.031      347.309       26.183      860.248
08/12/2014  19:13:00     -104.229     -102.300       -8.065       68.167       56.888       35.144     4646.806     3236.225     1235.106        1.525        0.456      146.044       20.541        0.020      347.323       26.208      860.239
08/12/2014  19:14:00     -206.501     -114.091       -1.826      115.374       84.918       54.378    13311.188     7211.061     2956.990        3.957        1.174      235.923       55.145        0.055      347.310       26.183      860.229
08/12/2014  19:15:00     -352.354     -172.881       -0.047      161.223      152.102       73.837    25992.849    23135.029     5451.944       10.430        2.729      392.481       80.963        0.043      347.255       26.086      860.231
08/12/2014  19:16:00     -251.005     -179.249        6.623      154.659      135.940       83.001    23919.417    18479.704     6889.103        7.222        2.464      308.438       86.195        0.078      347.217       26.022      860.234
08/12/2014  19:17:00     -246.554     -117.356        9.358      138.016      138.583       74.455    19048.366    19205.372     5543.534        5.921        2.190      273.060       81.789        0.090      347.200       25.994      860.238
08/12/2014  19:18:00     -346.747      -97.971      -22.787      122.926      120.344       63.482    15110.802    14482.725     4029.902        8.198        1.681      360.322       66.845        0.034      347.172       25.947      860.246
08/12/2014  19:19:00     -180.881     -113.349       -1.995       81.112       94.959       53.888     6579.140     9017.238     2903.918        3.203        0.925      213.462       45.030        0.045      347.170       25.942      860.260
08/12/2014  19:20:00      -97.078      -72.002        8.122       84.375       71.106       41.785     7119.144     5056.078     1746.007        1.430        0.696      120.865       40.043        0.110      347.179       25.960      860.257
08/12/2014  19:21:00     -224.642     -134.017       -5.852       73.013       79.699       43.372     5330.958     6351.894     1881.144        4.101        0.678      261.581       37.714        0.021      347.143       25.894      860.246
08/12/2014  19:22:00     -162.979      -66.940        6.641       88.524       83.310       45.753     7836.540     6940.589     2093.304        2.398        0.844      176.191       50.135        0.081      347.149       25.908      860.256
08/12/2014  19:23:00     -300.659      -57.603      -12.655      116.009      114.907       52.245    13458.060    13203.571     2729.522        6.163        1.470      306.127       53.337        0.030      347.098       25.817      860.264
08/12/2014  19:24:00     -205.044      -80.609        6.696      152.979       94.898       50.829    23402.686     9005.641     2583.628        4.178        1.750      220.320       62.287        0.080      347.099       25.820      860.289
08/12/2014  19:25:00     -224.750     -154.301      -14.020      116.856       85.867       49.696    13655.410     7373.098     2469.739        4.900        1.175      272.619       52.549        0.037      347.118       25.851      860.295
08/12/2014  19:26:00     -188.462     -151.902       -7.653      122.512      104.378       66.735    15009.218    10894.867     4453.518        4.450        1.518      242.058       67.668        0.078      347.059       25.750      860.308
08/12/2014  19:27:00     -252.891     -136.993       -8.262      114.073      135.835       65.179    13012.610    18451.013     4248.295        5.924        1.786      287.612       51.757        0.032      347.025       25.692      860.313
08/12/2014  19:28:00     -262.409      -86.413        2.174      186.556      112.115       65.971    34803.236    12569.767     4352.126        6.402        2.586      276.271       82.228        0.089      347.005       25.659      860.314
08/12/2014  19:29:00     -246.026     -106.571       -2.168      119.737      103.388       61.151    14337.002    10689.170     3739.433        5.032        1.438      268.116       54.805        0.042      346.995       25.639      860.333
08/12/2014  19:30:00     -352.772     -107.064       -8.930      152.909      127.040       76.033    23381.240    16139.205     5780.969        9.064        2.265      368.660       84.094        0.052      346.965       25.590      860.335
08/12/2014  19:31:00     -322.521     -131.811      -17.393      118.890       94.124       57.125    14134.847     8859.345     3263.302        7.397        1.313      348.416       42.863        0.015      346.966       25.590      860.358
08/12/2014  19:32:00     -217.759     -128.088       -6.918      123.617      115.440       62.105    15281.154    13326.412     3856.991        4.816        1.623      252.637       66.085        0.068      346.956       25.574      860.387
08/12/2014  19:33:00     -205.329     -111.841       -3.230       91.862       88.893       43.437     8438.540     7902.001     1886.765        3.645        0.911      233.813       46.678        0.040      346.955       25.572      860.401
08/12/2014  19:34:00     -213.964     -116.456       -6.167       85.802       64.226       34.279     7362.028     4125.008     1175.027        3.602        0.633      243.603       30.099        0.015      346.942       25.549      860.417
08/12/2014  19:35:00     -224.140      -41.690      -12.760       91.299       70.714       40.911     8335.480     5000.480     1673.727        3.357        0.750      227.984       45.150        0.039      346.954       25.571      860.429
08/12/2014  19:36:00     -174.022      -70.704       -9.077      106.504       68.663       41.328    11343.034     4714.605     1707.967        2.656        0.888      187.837       38.426        0.042      346.930       25.529      860.441
08/12/2014  19:37:00      -82.308      -46.292       16.013       76.521       42.114       30.851     5855.461     1773.572      951.780        0.888        0.429       94.432       29.565        0.098      346.917       25.508      860.443
08/12/2014  19:38:00     -120.070     -167.817      -19.469       80.962       69.838       41.120     6554.842     4877.407     1690.888        2.804        0.656      206.348       34.843        0.029      346.913       25.499      860.433
08/12/2014  19:39:00      -92.508      -38.638       15.072       79.882       53.920       34.478     6381.078     2907.313     1188.727        1.038        0.524      100.253       41.953        0.175      346.904       25.489      860.436
08/12/2014  19:40:00      -86.009      -52.507        1.716       90.456       55.767       39.338     8182.237     3109.992     1547.477        1.150        0.642      100.769       37.178        0.136      346.858       25.407      860.432
08/12/2014  19:41:00     -119.708     -105.443        0.479       97.432      113.281       42.023     9492.937    12832.576     1765.892        2.477        1.205      159.524       36.482        0.052      346.863       25.416      860.426
08/12/2014  19:42:00     -290.695     -164.469      -16.373      113.392      139.039       59.685    12857.720    19331.864     3562.250        7.378        1.788      333.996       49.137        0.022      346.813       25.327      860.426
08/12/2014  19:43:00     -275.714     -186.541       -8.070      112.313      110.313       73.063    12614.260    12169.062     5338.191        7.050        1.506      332.890       56.665        0.029      346.791       25.289      860.445
08/12/2014  19:44:00     -209.655     -124.454       -4.629       90.668       74.793       45.467     8220.600     5593.946     2067.251        3.767        0.794      243.811       42.935        0.031      346.775       25.261      860.431
08/12/2014  19:45:00     -119.123     -133.845        5.644       68.895       59.149       40.965     4746.463     3498.570     1678.133        2.103        0.496      179.178       35.451        0.039      346.791       25.294      860.439
08/12/2014  19:46:00     -140.814     -172.667        8.188      105.844      110.165       55.890    11202.991    12136.233     3123.697        3.808        1.323      222.806       51.954        0.054      346.794       25.295      860.460
08/12/2014  19:47:00     -168.588     -181.990      -10.551       67.033      111.575       46.713     4493.395    12448.943     2182.090        4.039        0.956      248.077       37.318        0.023      346.775       25.261      860.444
08/12/2014  19:48:00     -171.912     -112.584       12.556      111.569       88.699       50.600    12447.723     7867.424     2560.361        3.263        1.144      205.497       43.663        0.045      346.727       25.180      860.439
08/12/2014  19:49:00     -166.013     -141.031       -4.253      110.284       92.859       53.281    12162.637     8622.877     2838.876        3.554        1.181      217.830       59.814        0.075      346.725       25.175      860.454
08/12/2014  19:50:00     -126.735     -148.849        5.037      109.802       81.166       58.107    12056.492     6587.856     3376.429        3.013        1.101      195.494       58.222        0.089      346.718       25.163      860.452
08/12/2014  19:51:00     -159.262     -124.415       -2.300      100.039       82.608       45.962    10007.745     6824.020     2112.476        2.989        0.947      202.098       37.462        0.034      346.696       25.125      860.458
08/12/2014  19:52:00     -184.133     -132.365       -1.460      109.061       90.813       50.212    11894.388     8247.043     2521.234        3.704        1.133      226.772       57.814        0.065      346.667       25.076      860.463
08/12/2014  19:53:00     -177.866      -95.891       -3.168       92.993       83.207       44.900     8647.703     6923.486     2016.045        2.921        0.879      202.068       40.724        0.041      346.650       25.049      860.475
08/12/2014  19:54:00     -283.091     -226.113       -7.630      135.170      108.349       75.917    18270.972    11739.424     5763.367        8.354        1.789      362.309       69.433        0.037      346.705       25.140      860.472
08/12/2014  19:55:00     -191.381     -168.824        2.947      142.589      135.159       64.755    20331.548    18267.898     4193.220        5.396        2.140      255.203       68.016        0.071      346.699       25.131      860.499
08/12/2014  19:56:00     -149.732     -173.793       -5.759       75.694      103.957       45.416     5729.653    10807.094     2062.600        3.562        0.930      229.399       35.861        0.024      346.692       25.120      860.503
08/12/2014  19:57:00     -175.401     -157.755       -5.783       90.883      131.504       54.458     8259.716    17293.319     2965.677        4.210        1.426      235.907       50.150        0.045      346.638       25.027      860.487
08/12/2014  19:58:00     -194.267     -118.254        3.985      116.536       88.332       54.336    13580.546     7802.542     2952.397        3.803        1.217      227.428       58.618        0.066      346.623       25.000      860.506
08/12/2014  19:59:00     -279.343     -149.322      -15.073      141.724      119.790       62.948    20085.672    14349.576     3962.444        6.947        1.920      316.749       70.626        0.050      346.566       24.903      860.506
08/12/2014  20:00:00     -297.136     -170.038        7.962      119.099      120.851       61.091    14184.656    14605.064     3732.131        7.489        1.626      342.349       57.048        0.028      346.526       24.834      860.493
08/12/2014  20:01:00     -208.420      -79.306      -13.505       95.539      104.535       47.628     9127.763    10927.587     2268.386        3.611        1.116      222.998       40.274        0.033      346.524       24.832      860.496
08/12/2014  20:02:00     -308.473     -151.480        4.757      206.546      100.437       61.884    42661.366    10087.689     3829.620        8.734        2.829      343.660       83.854        0.060      346.503       24.795      860.486
08/12/2014  20:03:00     -457.388     -175.963      -16.178      187.901      164.474       92.343    35306.696    27051.628     8527.151       15.564        3.544      490.068       89.064        0.033      346.453       24.709      860.452
08/12/2014  20:04:00     -202.884      -63.839       31.713      214.128      138.663       77.117    45850.702    19227.313     5947.088        5.862        3.551      212.690       97.139        0.209      346.453       24.708      860.453
08/12/2014  20:05:00     -156.771      -46.247       11.235      124.333      104.888       45.316    15458.789    11001.457     2053.541        2.767        1.426      163.450       47.660        0.085      346.465       24.729      860.476
08/12/2014  20:06:00     -231.979      -72.506       -6.501      125.861       93.648       57.169    15841.107     8769.941     3268.318        4.349        1.394      243.046       57.106        0.055      346.427       24.663      860.502
08/12/2014  20:07:00     -157.659      -48.761       12.216      134.969       95.768       72.452    18216.621     9171.478     5249.328        3.000        1.632      165.027       70.793        0.184      346.424       24.658      860.503
08/12/2014  20:08:00     -194.116      -58.643       13.362      125.896      104.178       59.055    15849.714    10853.001     3487.478        3.574        1.510      202.781       57.952        0.082      346.401       24.619      860.538
08/12/2014  20:09:00     -322.159     -203.356       -9.573      131.865      107.764       67.253    17388.447    11613.033     4522.941        8.937        1.676      380.972       70.292        0.034      346.398       24.612      860.565
08/12/2014  20:10:00     -239.459      -84.990        4.513      117.389       87.946       55.219    13780.084     7734.571     3049.113        4.457        1.228      254.095       53.908        0.045      346.391       24.601      860.590
08/12/2014  20:11:00     -236.735      -57.365      -11.809      114.666       76.409       52.174    13148.298     5838.331     2722.088        4.059        1.085      243.586       58.384        0.057      346.355       24.540      860.601
08/12/2014  20:12:00     -179.244      -34.012        3.251      120.911       73.588       46.724    14619.478     5415.155     2183.103        2.775        1.111      182.442       53.885        0.087      346.329       24.497      860.607
08/12/2014  20:13:00     -181.062      -55.004       11.162      101.804       93.393       55.600    10364.149     8722.249     3091.365        2.905        1.109      189.233       56.563        0.089      346.341       24.517      860.609
08/12/2014  20:14:00      -98.871      -63.794       -5.114       69.430       61.894       36.627     4820.514     3830.826     1341.524        1.193        0.500      117.665       34.304        0.085      346.338       24.513      860.613
08/12/2014  20:15:00     -241.032     -109.659        1.294      148.391       96.228       47.780    22020.011     9259.734     2282.975        5.184        1.678      264.805       70.622        0.071      346.335       24.506      860.606
08/12/2014  20:16:00     -297.590      -91.897      -21.885       92.228       73.404       48.622     8505.994     5388.183     2364.144        5.687        0.813      311.456       41.165        0.017      346.338       24.511      860.612
08/12/2014  20:17:00     -174.324     -142.932        0.357      133.524       91.606       60.432    17828.667     8391.618     3652.062        4.034        1.494      225.429       57.189        0.064      346.330       24.498      860.613
08/12/2014  20:18:00     -300.994     -126.551       -7.876      175.111      119.298       65.257    30663.758    14231.959     4258.441        7.790        2.458      326.516       73.542        0.051      346.346       24.524      860.610
08/12/2014  20:19:00     -378.453     -133.787      -16.600      127.912      146.071       56.087    16361.367    21336.759     3145.761       10.111        2.042      401.405       45.141        0.013      346.319       24.479      860.617
08/12/2014  20:20:00     -286.621     -161.924       -8.980      150.735       92.783       56.438    22721.058     8608.647     3185.231        7.148        1.726      329.197       59.169        0.032      346.294       24.434      860.645
08/12/2014  20:21:00     -305.499     -228.629        6.231      199.516      148.696       89.619    39806.566    22110.408     8031.647       10.778        3.497      381.577      105.952        0.077      346.308       24.459      860.647
08/12/2014  20:22:00     -179.811     -137.221       -0.633      163.623      120.846       82.456    26772.580    14603.653     6798.999        4.966        2.409      226.190       86.026        0.145      346.291       24.430      860.663
08/12/2014  20:23:00     -254.125     -111.831        0.088      147.953      124.648       60.946    21889.992    15537.033     3714.476        5.911        2.057      277.643       67.613        0.059      346.262       24.381      860.678
08/12/2014  20:24:00     -239.696     -190.689        4.782      115.252       92.583       80.076    13283.043     8571.525     6412.209        6.105        1.413      306.295       80.972        0.070      346.253       24.363      860.663
08/12/2014  20:25:00     -178.066      -54.160       -0.721      114.858       76.430       47.732    13192.307     5841.495     2278.350        2.797        1.066      186.121       47.693        0.066      346.278       24.407      860.697
08/12/2014  20:26:00     -225.093     -102.591       -3.400      147.577       86.022       57.074    21779.049     7399.725     3257.484        4.681        1.622      247.370       62.950        0.065      346.283       24.416      860.716
08/12/2014  20:27:00     -160.965      -54.073       -4.134      101.660       91.759       52.484    10334.823     8419.721     2754.616        2.518        1.075      169.805       62.489        0.135      346.284       24.419      860.712
08/12/2014  20:28:00     -303.029     -117.722      -13.510      126.303      107.655       66.991    15952.420    11589.630     4487.813        6.894        1.601      325.093       54.851        0.028      346.247       24.353      860.698
08/12/2014  20:29:00     -193.161     -163.191       22.707      137.887      108.238       71.453    19012.782    11715.571     5105.548        5.014        1.792      252.868       67.125        0.070      346.211       24.291      860.740
08/12/2014  20:30:00     -267.030     -155.479       -3.207      142.621       77.978       57.312    20340.668     6080.551     3284.693        6.259        1.485      308.996       67.320        0.047      346.186       24.246      860.768
08/12/2014  20:31:00     -146.897      -85.264        3.577      135.563       80.570       56.794    18377.354     6491.476     3225.539        2.847        1.405      169.849       60.524        0.127      346.177       24.233      860.789
08/12/2014  20:32:00     -170.086        3.789        6.575      126.659       96.406       51.468    16042.611     9294.051     2648.975        2.848        1.399      170.128       58.799        0.119      346.147       24.182      860.797
08/12/2014  20:33:00     -290.120      -91.218       -4.617      126.489      105.679       53.587    15999.348    11168.087     2871.620        6.127        1.502      304.122       51.519        0.029      346.135       24.161      860.792
08/12/2014  20:34:00     -125.859      -90.737       12.704      128.654       95.938       59.844    16551.739     9204.152     3581.322        2.678        1.467      155.157       68.759        0.196      346.116       24.129      860.818
08/12/2014  20:35:00      -74.319     -116.041       16.464      124.392      131.344       74.278    15473.443    17251.161     5517.228        2.874        1.912      137.799       80.986        0.345      346.148       24.186      860.792
08/12/2014  20:36:00     -192.467      -34.696       -9.273      107.591       87.219       52.870    11575.741     7607.181     2795.224        3.015        1.099      195.570       54.761        0.078      346.131       24.156      860.791
08/12/2014  20:37:00     -154.002      -63.697        3.421       83.011       67.123       38.887     6890.753     4505.510     1512.169        2.034        0.645      166.655       34.767        0.044      346.091       24.086      860.777
08/12/2014  20:38:00     -123.445      -87.929       -0.318       60.155       44.553       32.163     3618.593     1984.932     1034.460        1.480        0.332      151.559       29.952        0.039      346.126       24.148      860.784
08/12/2014  20:39:00     -226.174     -139.562       -2.499      108.831      100.500       54.712    11844.197    10100.190     2993.369        4.778        1.247      265.767       57.001        0.046      346.089       24.081      860.790
08/12/2014  20:40:00     -213.870     -124.681       -9.516      115.915       86.026       47.233    13436.371     7400.477     2230.919        4.222        1.153      247.559       50.942        0.042      346.074       24.057      860.814
08/12/2014  20:41:00     -103.852      -80.712       -0.183       57.057       57.724       26.544     3255.482     3332.074      704.575        1.229        0.365      131.529        9.104        0.005      346.070       24.053      860.813
08/12/2014  20:42:00     -128.013      -46.072        0.957       70.013       48.383       25.769     4901.824     2340.935      664.033        1.321        0.395      136.051       27.426        0.041      346.054       24.026      860.813
08/12/2014  20:43:00     -153.576      -75.176        4.244       76.712       66.136       33.543     5884.750     4374.005     1125.143        2.032        0.569      170.988       38.230        0.050      346.065       24.042      860.837
08/12/2014  20:44:00     -143.847     -116.927       -5.228      111.702       74.299       40.792    12477.351     5520.350     1664.009        2.702        0.983      185.375       41.966        0.051      346.098       24.100      860.837
08/12/2014  20:45:00     -230.924     -167.100       -2.500      184.459      148.688       69.458    34025.030    22108.128     4824.403        7.109        3.048      285.041       89.965        0.100      346.088       24.081      860.842
08/12/2014  20:46:00     -181.788     -150.805        5.455      136.888      123.474       59.548    18738.454    15245.902     3546.015        4.667        1.877      236.197       74.928        0.101      346.114       24.127      860.840
08/12/2014  20:47:00     -211.843     -184.503        0.765      132.311      118.563       64.567    17506.299    14057.200     4168.841        5.732        1.787      280.925       60.222        0.046      346.124       24.142      860.831
08/12/2014  20:48:00     -185.979     -163.070        5.616      103.347       97.089       58.766    10680.639     9426.329     3453.500        4.238        1.178      247.346       44.618        0.033      346.090       24.084      860.825
08/12/2014  20:49:00     -198.643      -97.296        4.104      116.255       83.548       53.913    13515.321     6980.319     2906.599        3.617        1.170      221.192       59.709        0.073      346.071       24.050      860.816
08/12/2014  20:50:00     -256.484     -142.651      -27.381      124.198       88.489       61.989    15425.055     7830.385     3842.613        5.699        1.355      293.485       58.277        0.039      346.046       24.008      860.799
08/12/2014  20:51:00     -254.614      -82.254       -6.226      165.466      103.426       54.688    27378.919    10696.964     2990.781        5.634        2.053      267.571       69.399        0.067      346.034       23.988      860.830
08/12/2014  20:52:00     -283.272       -2.676      -26.646      104.486       71.037       52.905    10917.277     5046.256     2798.933        4.986        0.938      283.284       55.534        0.038      346.007       23.943      860.804
08/12/2014  20:53:00     -326.601      -18.653      -16.465      110.277      113.102       56.703    12160.961    12792.072     3215.198        6.772        1.408      327.133       57.775        0.031      345.960       23.862      860.805
08/12/2014  20:54:00     -240.018      -68.293       -6.510      109.646      111.122       51.174    12022.235    12348.062     2618.792        4.465        1.349      249.545       50.326        0.041      345.988       23.910      860.820
08/12/2014  20:55:00     -331.448     -161.893        8.337      136.329      133.228       68.225    18585.497    17749.606     4654.663        8.856        2.049      368.873       67.946        0.034      346.155       24.196      860.813
08/12/2014  20:56:00     -264.962     -170.308       -1.319      137.116       89.858       57.303    18800.909     8074.401     3283.616        6.468        1.508      314.976       67.285        0.046      346.207       24.284      860.839
08/12/2014  20:57:00     -319.244     -159.996        0.004      136.554      108.180       66.303    18647.012    11702.949     4396.144        8.112        1.737      357.093       67.423        0.036      346.209       24.287      860.840
08/12/2014  20:58:00     -303.867     -173.737      -14.151       99.290       77.838       56.165     9858.465     6058.683     3154.546        7.089        0.954      350.028       54.523        0.024      346.195       24.262      860.852
08/12/2014  20:59:00     -199.266     -105.494        2.850      100.256       67.789       47.869    10051.238     4595.412     2291.407        3.389        0.847      225.469       47.902        0.045      346.182       24.240      860.870
08/12/2014  21:00:00     -168.676      -76.909       -0.477       93.704       57.123       44.046     8780.468     3263.066     1940.039        2.417        0.699      185.382       46.963        0.064      346.156       24.200      860.869
08/12/2014  21:01:00     -142.064      -61.743       -1.207       88.483       49.627       37.762     7829.281     2462.869     1425.932        1.785        0.586      154.901       40.614        0.069      346.128       24.152      860.874
08/12/2014  21:02:00     -253.853     -119.283        8.241      132.725      118.936       59.613    17615.804    14145.727     3553.718        5.702        1.766      280.482       55.195        0.039      346.086       24.076      860.888
08/12/2014  21:03:00     -256.526     -150.043       -2.500      103.671       69.899       62.871    10747.740     4885.833     3952.801        5.395        0.979      297.185       55.289        0.035      346.091       24.086      860.890
08/12/2014  21:04:00     -238.406     -117.383      -11.165       93.991       79.658       48.842     8834.379     6345.406     2385.582        4.415        0.878      265.737       47.553        0.032      346.088       24.080      860.871
08/12/2014  21:05:00     -121.107      -70.483        9.555       92.889       84.076       50.170     8628.321     7068.854     2517.037        1.897        0.911      140.124       47.699        0.116      346.049       24.016      860.909
08/12/2014  21:06:00     -174.779      -93.152        5.923       87.668       73.709       45.477     7685.686     5433.016     2068.169        2.722        0.759      198.053       44.711        0.051      346.019       23.961      860.925
08/12/2014  21:07:00     -271.275      -67.683       -6.017      107.755       81.053       59.029    11611.242     6569.545     3484.448        4.993        1.083      279.591       45.462        0.026      346.045       24.005      860.957
08/12/2014  21:08:00     -170.865      -65.895        6.338      104.503       64.373       53.676    10920.832     4143.898     2881.147        2.576        0.897      183.131       57.752        0.099      346.048       24.012      860.986
08/12/2014  21:09:00     -158.538     -148.134       -6.414       78.395       82.400       38.147     6145.827     6789.787     1455.206        3.075        0.720      216.975       40.045        0.034      346.075       24.058      860.978
08/12/2014  21:10:00     -129.292      -89.185       -4.778      110.335       53.747       47.739    12173.870     2888.747     2278.979        2.101        0.867      157.068       57.758        0.135      346.032       23.986      860.959
08/12/2014  21:11:00     -215.664     -109.891        5.239      133.468      100.676       70.315    17813.697    10135.751     4944.266        4.575        1.645      242.047       79.194        0.107      345.950       23.843      860.952
08/12/2014  21:12:00      -80.755      -15.720       24.179       71.736       69.075       41.247     5146.076     4771.333     1701.280        0.948        0.581       82.271       40.933        0.248      345.911       23.780      860.944
08/12/2014  21:13:00     -181.670     -133.635       -0.893       94.240       81.799       34.827     8881.099     6691.133     1212.913        3.382        0.839      225.527       34.862        0.024      345.923       23.796      860.954
08/12/2014  21:14:00     -205.831     -125.942       -2.966       80.807       58.819       37.537     6529.753     3459.697     1409.031        3.482        0.570      241.305       41.407        0.029      345.935       23.817      860.977
08/12/2014  21:15:00     -129.379      -62.459       17.587       85.036       94.694       44.644     7231.198     8967.003     1993.124        1.957        0.910      143.666       42.194        0.086      345.925       23.803      861.016
08/12/2014  21:16:00     -149.345     -100.764       13.474      122.144       76.401       49.909    14919.060     5837.061     2490.932        2.794        1.162      180.159       59.186        0.108      345.910       23.775      861.025
08/12/2014  21:17:00     -123.089     -116.181        4.226       93.597       86.385       51.001     8760.475     7462.416     2601.133        2.374        0.941      169.260       48.948        0.084      345.952       23.848      861.024
08/12/2014  21:18:00     -260.922     -166.966      -14.136       96.586      100.553       49.589     9328.795    10110.957     2459.073        5.902        1.095      309.770       36.742        0.014      345.963       23.866      861.016
08/12/2014  21:19:00     -216.093     -176.503       -8.673      103.408       75.307       49.114    10693.222     5671.084     2412.156        4.835        0.939      279.015       50.968        0.033      345.958       23.858      861.015
08/12/2014  21:20:00     -220.767     -159.021       -2.551       84.326       85.443       50.443     7110.911     7300.441     2544.531        4.549        0.848      272.076       49.248        0.033      345.927       23.804      861.017
08/12/2014  21:21:00     -189.859      -80.421      -11.922       99.771       60.465       36.095     9954.181     3656.060     1302.853        2.878        0.746      206.189       28.835        0.020      345.930       23.809      861.020
08/12/2014  21:22:00      -68.825      -91.520       11.411       86.104       89.702       39.910     7413.865     8046.391     1592.820        1.514        0.853      114.511       34.862        0.093      345.913       23.783      861.025
08/12/2014  21:23:00     -162.186      -69.766       -1.550       87.031       60.795       44.437     7574.337     3696.022     1974.627        2.221        0.662      176.555       49.431        0.078      345.876       23.720      861.027
08/12/2014  21:24:00     -203.256     -144.252       -2.113       86.020       89.194       56.545     7399.464     7955.608     3197.363        4.034        0.928      249.242       41.104        0.027      345.848       23.669      861.047
08/12/2014  21:25:00     -239.307     -185.253       -7.764      112.894      102.136       64.475    12745.101    10431.758     4157.079        5.948        1.367      302.633       55.111        0.033      345.944       23.834      861.072
08/12/2014  21:26:00     -170.976      -90.888        9.589      113.484       77.558       49.365    12878.610     6015.208     2436.870        2.945        1.067      193.632       56.338        0.085      345.908       23.772      861.076
08/12/2014  21:27:00     -132.290      -52.590        2.904       96.416       52.726       37.440     9295.973     2779.985     1401.753        1.687        0.674      142.360       39.507        0.077      345.880       23.726      861.079
08/12/2014  21:28:00     -185.822     -160.392        2.929      138.129      119.697       70.177    19079.689    14327.263     4924.803        4.929        1.917      245.470       73.902        0.091      345.854       23.678      861.099
08/12/2014  21:29:00     -234.398     -108.748       -7.694      107.683       97.098       61.549    11595.589     9428.017     3788.254        4.581        1.241      258.396       56.168        0.047      345.818       23.617      861.106
08/12/2014  21:30:00      -60.721     -119.695        7.372       81.763       72.249       44.015     6685.247     5219.986     1937.308        1.595        0.692      134.216       46.186        0.118      345.813       23.613      861.113
08/12/2014  21:31:00     -103.852     -166.274       14.497       82.657       80.020       54.104     6832.237     6403.248     2927.228        2.740        0.808      196.041       46.779        0.057      345.788       23.565      861.134
08/12/2014  21:32:00     -104.667     -195.467       -0.248       84.905       98.083       40.908     7208.908     9620.336     1673.486        3.383        0.925      221.726       37.008        0.028      345.777       23.547      861.163
08/12/2014  21:33:00     -107.068     -124.881       -1.401       44.289       72.462       37.804     1961.496     5250.761     1429.177        1.785        0.432      164.496       27.608        0.028      345.753       23.507      861.165
08/12/2014  21:34:00     -191.378     -135.354       -0.399      103.967       85.675       42.502    10809.053     7340.156     1806.416        3.745        0.998      234.406       49.775        0.045      345.739       23.483      861.165
08/12/2014  21:35:00     -238.338     -126.062       -4.741       88.688       70.043       42.879     7865.586     4905.991     1838.577        4.366        0.731      269.623       44.122        0.027      345.755       23.508      861.183
08/12/2014  21:36:00     -232.901     -152.705      -23.363       85.431       87.511       48.913     7298.495     7658.240     2392.494        4.772        0.867      278.499       35.877        0.017      345.728       23.464      861.187
08/12/2014  21:37:00     -173.306      -81.587        6.186       97.229       80.901       44.253     9453.458     6544.952     1958.331        2.734        0.898      191.550       44.843        0.055      345.754       23.508      861.191
08/12/2014  21:38:00     -141.169      -50.434       14.104       92.699       66.883       44.047     8593.055     4473.274     1940.106        1.884        0.750      149.908       49.783        0.110      345.814       23.612      861.193
08/12/2014  21:39:00     -164.617      -52.840        8.079       86.921       60.686       36.807     7555.194     3682.812     1354.779        2.127        0.630      172.889       39.557        0.052      345.781       23.556      861.207
08/12/2014  21:40:00      -91.079      -92.695       10.190       59.921       62.140       40.737     3590.496     3861.362     1659.510        1.305        0.456      129.953       26.309        0.041      345.747       23.498      861.213
08/12/2014  21:41:00     -121.501     -118.456        1.856       88.919       73.660       49.939     7906.634     5425.857     2493.877        2.231        0.791      169.689       52.761        0.097      345.771       23.537      861.212
08/12/2014  21:42:00     -199.705      -47.954        1.304       76.921       97.635       46.676     5916.844     9532.609     2178.685        2.990        0.881      205.382       42.615        0.043      345.814       23.612      861.210
08/12/2014  21:43:00     -314.990     -142.335      -30.136      109.405      114.529       56.692    11969.364    13116.877     3213.969        7.434        1.415      345.656       39.954        0.013      345.904       23.764      861.197
08/12/2014  21:44:00     -208.594      -74.111      -10.506      101.460       63.190       41.448    10294.118     3992.966     1717.921        3.256        0.800      221.368       42.871        0.038      345.844       23.660      861.198
08/12/2014  21:45:00     -208.181      -49.322        3.230      102.925       86.765       49.513    10593.640     7528.203     2451.488        3.317        1.029      213.944       48.159        0.051      345.781       23.554      861.222
08/12/2014  21:46:00     -223.528      -49.593        1.003       88.444       66.474       45.295     7822.425     4418.820     2051.598        3.336        0.715      228.963       46.286        0.041      345.784       23.559      861.244
08/12/2014  21:47:00     -188.766      -78.011       -8.752       63.851       73.254       29.546     4076.990     5366.172      872.992        2.605        0.516      204.251       24.649        0.015      345.777       23.547      861.239
08/12/2014  21:48:00     -205.413      -43.599       -6.088       91.087       60.770       44.377     8296.894     3693.052     1969.341        2.904        0.698      209.989       49.337        0.055      345.766       23.529      861.234
08/12/2014  21:49:00     -199.634      -53.199        2.674       92.195       66.045       39.829     8499.991     4361.932     1586.322        2.857        0.722      206.600       42.104        0.042      345.722       23.454      861.249
08/12/2014  21:50:00     -189.483      -21.313       -6.035       59.619       49.353       31.598     3554.414     2435.754      998.460        2.169        0.349      190.678       29.250        0.024      345.719       23.447      861.255
08/12/2014  21:51:00     -186.621       13.227       -1.166       98.795       66.570       42.179     9760.432     4431.509     1779.040        2.548        0.799      187.089       43.060        0.053      345.663       23.351      861.246
08/12/2014  21:52:00     -206.883      -47.173       -8.052       54.408       58.817       34.494     2960.277     3459.401     1189.856        2.635        0.380      212.193       24.829        0.014      345.662       23.349      861.238
08/12/2014  21:53:00     -307.894      -59.213      -19.960       75.200       55.581       37.106     5655.010     3089.232     1376.880        5.441        0.506      313.536       31.767        0.010      345.656       23.338      861.238
08/12/2014  21:54:00     -212.967      -67.828       -1.415       74.670       54.120       33.808     5575.595     2928.986     1143.004        2.980        0.482      223.507       36.039        0.026      345.609       23.256      861.241
08/12/2014  21:55:00     -177.996      -88.374        1.560       66.314       48.321       29.723     4397.523     2334.907      883.450        2.355        0.381      198.727       28.098        0.020      345.594       23.232      861.228
08/12/2014  21:56:00     -217.717      -52.427       -0.266       71.802       73.321       33.782     5155.527     5376.011     1141.245        3.091        0.584      223.940       35.951        0.026      345.592       23.230      861.223
08/12/2014  21:57:00     -150.409      -30.046        4.454       79.861       47.311       34.952     6377.818     2238.331     1221.624        1.669        0.492      153.380       39.741        0.067      345.594       23.235      861.222
08/12/2014  21:58:00     -140.739      -26.532       -8.811       84.760       53.137       34.919     7184.255     2823.542     1219.318        1.591        0.561      143.218       42.627        0.089      345.630       23.296      861.214
08/12/2014  21:59:00     -183.320      -32.724       -5.427       73.244       71.859       34.441     5364.672     5163.771     1186.163        2.321        0.586      186.218       40.613        0.048      345.620       23.278      861.207
08/12/2014  22:00:00     -164.017      -91.730       -4.751       67.771       58.557       32.423     4592.847     3428.917     1051.241        2.220        0.454      187.926       33.286        0.031      345.606       23.253      861.193
08/12/2014  22:01:00     -180.755      -53.062        2.133       63.781       51.540       31.136     4067.980     2656.372      969.437        2.159        0.385      188.382       27.274        0.021      345.602       23.247      861.189
08/12/2014  22:02:00     -122.659      -63.039        7.695       68.665       49.799       33.640     4714.850     2479.935     1131.656        1.370        0.416      137.910       36.968        0.072      345.558       23.173      861.188
08/12/2014  22:03:00     -188.062      -45.070       -4.027       67.381       55.928       29.174     4540.197     3127.907      851.111        2.297        0.426      193.387       28.783        0.022      345.582       23.213      861.201
08/12/2014  22:04:00     -164.412      -49.934       -9.586       59.611       47.201       32.956     3553.421     2227.946     1086.129        1.824        0.343      171.828       34.791        0.041      345.575       23.202      861.218
08/12/2014  22:05:00     -161.782      -68.020        3.978       64.661       56.925       31.719     4181.092     3240.413     1006.109        1.962        0.421      175.499       34.365        0.038      345.634       23.302      861.215
08/12/2014  22:06:00     -143.800      -64.915       -8.367       59.150       60.463       35.131     3498.674     3655.792     1234.189        1.667        0.419      157.774       31.140        0.039      345.622       23.283      861.198
08/12/2014  22:07:00     -142.502      -70.445       -3.754       64.316       59.408       29.787     4136.605     3529.300      887.258        1.692        0.428      158.963       28.663        0.033      345.575       23.201      861.217
08/12/2014  22:08:00     -147.012      -35.838       -6.261       50.185       35.268       28.396     2518.548     1243.809      806.333        1.375        0.228      151.317       25.611        0.029      345.570       23.194      861.216
08/12/2014  22:09:00      -71.058      -39.484        3.271       40.494       35.216       18.407     1639.774     1240.144      338.816        0.492        0.161       81.291       19.076        0.055      345.522       23.113      861.201
08/12/2014  22:10:00     -104.061      -50.582       -9.293       43.036       30.376       20.362     1852.102      922.696      414.610        0.833        0.159      115.703       17.302        0.022      345.555       23.169      861.180
08/12/2014  22:11:00     -111.780      -76.613       -2.075       64.988       79.775       37.378     4223.417     6364.031     1397.085        1.517        0.599      135.515       40.104        0.088      345.592       23.230      861.187
08/12/2014  22:12:00     -158.036      -66.749        1.996       75.157       56.058       32.677     5648.527     3142.541     1067.806        1.964        0.493      171.554       35.631        0.043      345.572       23.195      861.194
08/12/2014  22:13:00     -150.657      -40.900        6.697      103.873       87.226       39.370    10789.686     7608.395     1549.970        2.218        0.997      156.110       41.100        0.069      345.573       23.197      861.182
08/12/2014  22:14:00     -198.663     -117.523       -3.157      111.195       88.570       51.767    12364.377     7844.565     2679.859        3.808        1.144      230.822       58.586        0.064      345.617       23.272      861.149
08/12/2014  22:15:00     -182.807      -75.492        0.342      106.500       50.918       38.423    11342.285     2592.685     1476.327        2.726        0.771      197.781       46.018        0.054      345.621       23.280      861.123
08/12/2014  22:16:00     -119.104      -44.923       -5.276       51.973       66.333       30.581     2701.240     4400.027      935.208        1.213        0.402      127.294       28.274        0.049      345.594       23.236      861.098
08/12/2014  22:17:00     -191.256      -20.831       -5.498       83.382       57.582       36.360     6952.476     3315.703     1322.017        2.431        0.580      192.387       33.421        0.030      345.546       23.150      861.071
08/12/2014  22:18:00     -224.497      -43.767      -11.703       97.569       66.131       43.337     9519.737     4373.266     1878.122        3.411        0.789      228.724       44.215        0.037      345.511       23.090      861.042
08/12/2014  22:19:00     -247.969      -65.638       -2.308       91.190       76.662       41.962     8315.575     5877.111     1760.850        4.087        0.798      256.509       46.823        0.033      345.519       23.103      861.033
08/12/2014  22:20:00     -196.408      -50.377      -16.281       80.521       83.521       39.852     6483.615     6975.725     1588.147        2.821        0.752      202.766       40.507        0.040      345.583       23.212      861.050
08/12/2014  22:21:00     -121.993      -88.448       10.460       76.362       62.772       44.468     5831.150     3940.384     1977.447        1.728        0.587      150.683       40.404        0.072      345.561       23.178      861.071
08/12/2014  22:22:00     -119.814     -103.716        8.132       88.561       67.339       49.174     7842.989     4534.552     2418.125        1.998        0.740      158.469       53.133        0.112      345.540       23.140      861.063
08/12/2014  22:23:00     -131.470     -101.641       -1.894       97.006       56.436       38.452     9410.151     3185.043     1478.587        2.084        0.704      166.178       44.882        0.073      345.573       23.195      861.056
08/12/2014  22:24:00     -123.203      -20.448       -2.296      112.885       49.327       41.202    12743.081     2433.115     1697.644        1.623        0.844      124.889       50.029        0.160      345.575       23.202      861.056
08/12/2014  22:25:00     -124.161      -53.923        3.409       77.682       47.323       30.004     6034.477     2239.429      900.226        1.375        0.459      135.365       40.993        0.092      345.588       23.224      861.059
08/12/2014  22:26:00      -95.812      -60.445        1.085       73.910       48.869       24.708     5462.637     2388.218      610.499        1.065        0.423      113.285       26.427        0.054      345.571       23.196      861.033
08/12/2014  22:27:00      -49.219      -67.209        6.125       35.734       51.713       20.471     1276.953     2674.244      419.044        0.567        0.219       83.304       18.058        0.047      345.588       23.225      861.010
08/12/2014  22:28:00      -86.557      -34.633        7.072       82.774       33.457       30.182     6851.522     1119.352      910.933        0.881        0.444       93.229       42.839        0.211      345.567       23.188      861.000
08/12/2014  22:29:00     -124.778     -142.636       -7.965       85.921       39.982       39.101     7382.413     1598.550     1528.920        2.324        0.525      189.512       40.526        0.046      345.582       23.211      861.014
08/12/2014  22:30:00     -120.338      -68.565       -1.931       68.088       53.119       32.103     4636.031     2821.634     1030.580        1.384        0.424      138.500       30.312        0.048      345.561       23.176      861.018
08/12/2014  22:31:00      -76.536      -83.707        4.893       64.918       52.792       26.588     4214.305     2787.026      706.925        1.030        0.385      113.422       32.710        0.083      345.514       23.099      861.026
08/12/2014  22:32:00      -10.821      -46.454       15.524       52.503       28.294       30.796     2756.559      800.526      948.402        0.351        0.225       47.698       31.889        0.447      345.490       23.059      861.030
08/12/2014  22:33:00      -34.495      -64.762        3.522       51.718       41.304       24.750     2674.740     1706.044      612.573        0.519        0.250       73.376       21.662        0.087      345.467       23.017      861.039
08/12/2014  22:34:00      -20.365      -94.205       -3.842       44.463       39.911       28.883     1976.988     1592.892      834.231        0.685        0.220       96.381       16.245        0.028      345.518       23.104      861.053
08/12/2014  22:35:00      -43.169      -85.366        5.195       34.200       38.513       20.571     1169.655     1483.251      423.168        0.613        0.154       95.661       13.785        0.021      345.531       23.126      861.068
08/12/2014  22:36:00      -63.776      -72.997       -1.667       40.100       41.752       31.893     1608.003     1743.191     1017.179        0.688        0.218       96.933       29.971        0.096      345.489       23.055      861.072
08/12/2014  22:37:00      -57.727      -15.846        1.247       37.060       36.827       21.359     1373.428     1356.216      456.208        0.338        0.159       59.862       14.831        0.061      345.466       23.015      861.064
08/12/2014  22:38:00      -72.350      -98.257      -10.823       52.092       69.131       26.490     2713.603     4779.104      701.714        1.160        0.410      122.020       20.181        0.027      345.468       23.019      861.040
08/12/2014  22:39:00      -63.141      -35.101       -2.974       65.970       53.862       20.949     4352.041     2901.148      438.849        0.646        0.385       72.241       16.569        0.053      345.407       22.913      861.030
08/12/2014  22:40:00      -49.529      -16.355        7.154       43.652       39.884       22.237     1905.466     1590.758      494.470        0.338        0.200       52.160       16.824        0.104      345.412       22.924      861.026
08/12/2014  22:41:00      -92.981      -52.486       -9.554       43.570       41.255       21.944     1898.380     1701.957      481.559        0.779        0.204      106.772       19.321        0.033      345.441       22.971      861.012
08/12/2014  22:42:00      -77.042        7.885        6.278       52.297       27.771       20.898     2734.999      771.245      436.728        0.499        0.197       77.445       28.480        0.135      345.386       22.877      861.001
08/12/2014  22:43:00      -60.331       -9.026       -1.442       39.287       27.764       22.589     1543.496      770.829      510.246        0.327        0.141       61.002       10.567        0.030      345.336       22.793      861.001
08/12/2014  22:44:00     -108.588      -28.393       -0.659       43.828       38.232       20.790     1920.922     1461.654      432.230        0.821        0.191      112.239       24.186        0.046      345.340       22.801      861.023
08/12/2014  22:45:00      -21.607      -31.395        8.600       39.724       26.729       19.658     1577.988      714.429      386.424        0.210        0.134       38.112       20.565        0.291      345.385       22.876      861.035
08/12/2014  22:46:00      -22.204      -29.637        3.867       47.454       31.771       18.178     2251.844     1009.399      330.438        0.249        0.180       37.032       18.264        0.243      345.413       22.924      861.042
08/12/2014  22:47:00      -19.267       12.493        1.818       23.719       14.843       10.275      562.596      220.314      105.583        0.071        0.044       22.963       12.510        0.297      345.343       22.806      861.043
08/12/2014  22:48:00      -58.594       10.384        4.662       69.998       26.590       23.816     4899.773      707.048      567.225        0.487        0.309       59.507       29.239        0.241      345.404       22.908      861.036
08/12/2014  22:49:00       19.806       23.289        8.313       40.383       35.189       25.013     1630.825     1238.258      625.658        0.225        0.175       30.572       11.834        0.150      345.359       22.833      861.007
08/12/2014  22:50:00     -144.895      -13.658      -10.967      106.150       69.889       36.672    11267.820     4884.504     1344.832        1.940        0.875      145.537       51.907        0.127      345.441       22.971      861.022
08/12/2014  22:51:00      -98.749       33.495       -1.569       61.472       38.807       23.379     3778.755     1505.993      546.563        0.835        0.292      104.275       19.029        0.033      345.385       22.878      861.073
08/12/2014  22:52:00       28.031       42.564       -0.189       20.849       18.426       21.552      434.701      339.533      464.470        0.192        0.062       50.965       12.249        0.058      345.279       22.695      861.102
08/12/2014  22:53:00       84.969       63.854       -4.211       28.131       26.924       23.801      791.343      724.879      566.501        0.670        0.104      106.288       19.233        0.033      345.187       22.537      861.107
08/12/2014  22:54:00       97.144       40.242       -8.501       53.141       47.748       32.429     2823.957     2279.870     1051.637        0.864        0.308      105.149       14.974        0.020      345.256       22.655      861.107
08/12/2014  22:55:00       62.928       28.434       -2.543       31.140       27.608       20.038      969.726      762.197      401.531        0.345        0.107       69.053       11.107        0.026      345.159       22.490      861.109
08/12/2014  22:56:00      103.421       66.654        4.614       30.452       38.279       32.723      927.308     1465.272     1070.798        0.931        0.173      123.040        4.567        0.001      345.153       22.480      861.102
08/12/2014  22:57:00      110.863       66.317       16.816       57.126       38.326       32.428     3263.355     1468.857     1051.569        1.138        0.289      129.184       19.385        0.023      345.184       22.533      861.091
08/12/2014  22:58:00      119.617       79.909       31.148       41.239       29.791       25.678     1700.695      887.521      659.374        1.246        0.162      143.853       21.533        0.022      345.168       22.505      861.070
08/12/2014  22:59:00       86.632       59.560       -3.491       49.365       35.818       25.269     2436.889     1282.963      638.503        0.771        0.218      105.130        9.580        0.008      345.094       22.379      861.077
08/12/2014  23:00:00       65.314       72.704        0.628       32.736       35.929       22.839     1071.641     1290.906      521.638        0.622        0.144       97.733       22.230        0.052      345.100       22.390      861.073
08/12/2014  23:01:00       50.901       92.619      -11.973       25.513       32.965       24.093      650.912     1086.710      580.460        0.681        0.116      105.684       23.757        0.051      345.122       22.428      861.065
08/12/2014  23:02:00       65.223       43.370       13.460       39.094       27.726       26.001     1528.352      768.709      676.059        0.464        0.149       78.327       19.651        0.063      345.065       22.331      861.055
08/12/2014  23:03:00       94.532       72.751        6.761       55.418       37.890       32.424     3071.132     1435.679     1051.306        0.992        0.278      119.285       15.353        0.017      345.071       22.339      861.056
08/12/2014  23:04:00      155.574       88.961       24.822       46.377       29.569       34.565     2150.784      874.331     1194.743        1.848        0.211      179.213       16.847        0.009      345.049       22.300      861.053
08/12/2014  23:05:00      110.764       78.447        3.924       53.512       40.212       29.405     2863.493     1616.986      864.627        1.189        0.267      135.729       21.238        0.024      345.345       22.810      861.069
08/12/2014  23:06:00       10.346       24.297        2.746       26.282       25.721       16.401      690.748      661.579      268.999        0.116        0.081       26.408       12.000        0.206      345.344       22.805      861.081
08/12/2014  23:07:00      -39.345      -22.430        3.715       27.280       26.567       15.542      744.180      705.790      241.568        0.188        0.085       45.289       14.612        0.104      345.142       22.461      861.089
08/12/2014  23:08:00      -56.522      -27.953      -10.140       22.155        9.631        7.484      490.840       92.760       56.003        0.236        0.032       63.057        5.714        0.008      345.061       22.325      861.083
08/12/2014  23:09:00      -41.757       -2.008      -18.442       23.234       17.288       18.694      539.842      298.872      349.450        0.164        0.059       41.805       10.704        0.066      345.168       22.507      861.082
08/12/2014  23:10:00      -45.365        2.987       -6.805       28.399       23.117       10.063      806.510      534.389      101.269        0.178        0.072       45.463        6.222        0.019      345.185       22.532      861.071
08/12/2014  23:11:00      -74.568       10.842      -12.491       14.378       16.814       11.500      206.720      282.695      132.247        0.323        0.031       75.352        7.246        0.009      345.129       22.437      861.077
08/12/2014  23:12:00      -77.236       19.925       -6.598       18.797       17.748       14.226      353.309      314.975      202.382        0.364        0.044       79.765       10.497        0.017      345.152       22.479      861.076
08/12/2014  23:13:00      -35.901       80.538      -12.675       24.785       25.011       12.294      614.288      625.560      151.138        0.466        0.070       88.177        4.920        0.003      345.204       22.568      861.085
08/12/2014  23:14:00        4.971       75.480       -9.553       33.068       19.429       17.609     1093.474      377.502      310.080        0.380        0.089       75.643       11.029        0.021      345.161       22.495      861.098
08/12/2014  23:15:00       31.786       78.286       -8.154       26.820       36.216       17.537      719.332     1311.563      307.551        0.477        0.117       84.493       13.064        0.024      345.124       22.431      861.088
08/12/2014  23:16:00       92.976       60.416        6.611       66.139       32.447       25.483     4374.425     1052.835      649.382        0.921        0.304      110.881       21.512        0.038      345.098       22.387      861.075
08/12/2014  23:17:00      178.560       98.399       14.238       57.517       59.387       30.053     3308.175     3526.842      903.170        2.475        0.387      203.877       16.489        0.007      345.115       22.413      861.046
08/12/2014  23:18:00      114.798       67.648       55.566       75.596       56.265       46.890     5714.800     3165.786     2198.667        1.596        0.554      133.247       43.589        0.107      345.141       22.459      861.008
08/12/2014  23:19:00      103.230       41.928       21.305       86.118       47.525       43.532     7416.316     2258.605     1895.036        1.222        0.578      111.420       37.364        0.112      345.215       22.586      860.994
08/12/2014  23:20:00      124.773       66.658       19.445       72.113       57.486       40.764     5200.239     3304.584     1661.702        1.528        0.508      141.462       38.212        0.073      345.059       22.319      860.997
08/12/2014  23:21:00       74.146       51.695        7.780       68.788       49.680       33.584     4731.806     2468.111     1127.867        0.828        0.416       90.388       19.026        0.044      345.257       22.659      860.998
08/12/2014  23:22:00        4.585       54.858        3.081       54.952       59.447       38.842     3019.757     3533.949     1508.699        0.555        0.403       55.049       28.155        0.262      345.221       22.597      860.992
08/12/2014  23:23:00        9.818       68.489       -4.398       15.278       44.107       22.485      233.417     1945.423      505.596        0.374        0.134       69.189       23.280        0.113      345.115       22.415      860.991
08/12/2014  23:24:00       43.259      113.146       -8.517       39.623       63.678       31.849     1569.988     4054.914     1014.339        1.069        0.332      121.133       32.850        0.074      345.179       22.524      860.970
08/12/2014  23:25:00       86.468       66.590       13.396       41.637       34.253       31.889     1733.620     1173.300     1016.921        0.801        0.196      109.137       19.775        0.033      345.130       22.442      860.951
08/12/2014  23:26:00       43.999      107.913       -3.008       57.772       45.476       35.753     3337.655     2068.045     1278.267        1.014        0.334      116.538       28.907        0.062      345.216       22.588      860.939
08/12/2014  23:27:00      101.607       59.238       13.766       72.855       43.273       27.929     5307.848     1872.554      780.046        1.099        0.398      117.614       20.632        0.031      345.439       22.969      860.918
08/12/2014  23:28:00       62.415       93.621      -10.016       39.708       52.988       33.967     1576.742     2807.778     1153.766        0.915        0.277      112.520       26.205        0.054      345.339       22.799      860.907
08/12/2014  23:29:00       35.521      136.023      -12.771       34.735       59.064       32.674     1206.529     3488.531     1067.570        1.284        0.288      140.584       30.095        0.046      345.315       22.758      860.894
08/12/2014  23:30:00       27.796      190.244      -19.964       30.081       59.135       35.349      904.882     3496.908     1249.578        2.151        0.283      192.264       35.718        0.035      345.322       22.767      860.890
08/12/2014  23:31:00       50.252      157.754      -15.166       42.521       59.226       39.603     1808.045     3507.756     1568.421        1.726        0.344      165.564       39.415        0.057      345.282       22.699      860.887
08/12/2014  23:32:00       93.076      125.391      -11.312       66.933       99.050       45.731     4479.964     9810.895     2091.280        2.044        0.819      156.161       44.244        0.080      345.340       22.799      860.883
08/12/2014  23:33:00       90.884      136.599        0.436       51.971       53.203       49.235     2700.962     2830.511     2424.125        1.744        0.398      164.070       37.216        0.051      345.404       22.910      860.883
08/12/2014  23:34:00       88.173       73.585      -13.266       39.114       38.072       30.914     1529.909     1449.503      955.705        0.865        0.197      114.844       22.668        0.039      345.367       22.846      860.892
08/12/2014  23:35:00       71.630       51.669       -4.322       35.978       30.258       20.792     1294.409      915.575      432.303        0.523        0.132       88.320       16.949        0.037      345.296       22.724      860.898
08/12/2014  23:36:00       81.112       28.990        3.298       34.239       32.810       26.033     1172.300     1076.499      677.721        0.518        0.146       86.137       14.668        0.029      345.303       22.737      860.900
08/12/2014  23:37:00       69.906       17.066        6.176       35.431       30.491       23.400     1255.329      929.679      547.547        0.397        0.137       71.959       21.496        0.089      345.258       22.660      860.915
08/12/2014  23:38:00       26.569       25.583        3.860       46.214       21.594       12.336     2135.772      466.295      152.178        0.206        0.138       36.883        7.932        0.046      345.286       22.708      860.944
08/12/2014  23:39:00       -8.261        3.495        0.170       16.338       11.421        9.991      266.939      130.437       99.825        0.029        0.025        8.970        7.489        0.697      345.229       22.607      860.960
08/12/2014  23:40:00      -41.371       47.839       -8.293       21.950       27.224       14.401      481.821      741.168      207.402        0.275        0.072       63.246       11.569        0.033      345.315       22.757      860.966
08/12/2014  23:41:00      -56.182       58.095       -7.771       21.805       28.999       18.321      475.447      840.945      335.660        0.412        0.083       80.817       15.353        0.036      345.238       22.624      860.962
08/12/2014  23:42:00      -59.833       31.653      -14.500       15.553       21.295       10.747      241.901      453.469      115.507        0.280        0.041       67.690        6.832        0.010      345.343       22.807      860.963
08/12/2014  23:43:00      -48.428       27.319      -14.237       13.720       11.943        8.426      188.228      142.626       70.996        0.185        0.020       55.603        8.135        0.021      345.373       22.857      860.959
08/12/2014  23:44:00      -27.908       35.890       -5.666       23.145       20.552        9.610      535.700      422.393       92.361        0.157        0.053       45.463        7.747        0.029      345.332       22.787      860.960
08/12/2014  23:45:00      -67.943       30.837       -6.284       22.532       22.420       17.087      507.704      502.638      291.951        0.345        0.065       74.613       14.559        0.038      345.321       22.767      860.969
08/12/2014  23:46:00      -60.339       19.554       -8.979       16.556       15.887       10.354      274.090      252.408      107.212        0.237        0.032       63.429        6.542        0.011      345.357       22.827      860.979
08/12/2014  23:47:00      -84.078       18.302       -7.739       23.945       13.758        9.009      573.367      189.296       81.171        0.415        0.042       86.046        6.228        0.005      345.175       22.519      860.984
08/12/2014  23:48:00      -80.859       33.268      -10.564       20.818       16.516       15.741      433.369      272.770      247.792        0.436        0.048       87.435        9.200        0.011      345.144       22.466      860.982
08/12/2014  23:49:00      -48.081       51.660      -11.145       11.871       15.538        6.342      140.931      241.445       40.226        0.276        0.021       70.573        4.411        0.004      345.254       22.653      860.966
08/12/2014  23:50:00      -46.912       41.299      -12.571       13.910       24.170        8.575      193.495      584.188       73.536        0.246        0.043       62.501        8.598        0.019      345.199       22.557      860.941
08/12/2014  23:51:00     -102.955        6.511      -11.335       39.314       26.128       14.061     1545.578      682.661      197.714        0.660        0.121      103.160       12.847        0.016      345.034       22.277      860.918
08/12/2014  23:52:00     -116.349        8.804       -4.006       31.526       33.011       20.090      993.920     1089.727      403.625        0.806        0.124      116.681       14.141        0.015      345.004       22.226      860.910
08/12/2014  23:53:00      -81.189        6.993       -0.154       41.054       56.584       22.875     1685.399     3201.759      523.286        0.602        0.271       81.490       24.938        0.094      345.097       22.384      860.901
08/12/2014  23:54:00      -90.010       89.156      -11.899       33.395       32.100       26.353     1115.232     1030.404      694.507        0.952        0.142      126.691       18.872        0.022      345.277       22.694      860.902
08/12/2014  23:55:00     -119.009      -20.546       -7.529       53.806       68.288       24.731     2895.133     4663.211      611.608        1.140        0.408      120.770       20.114        0.028      345.189       22.541      860.902
08/12/2014  23:56:00     -229.492     -114.560       -2.600       73.411       66.579       39.559     5389.190     4432.732     1564.898        3.859        0.569      256.497       38.155        0.022      345.224       22.597      860.898
08/12/2014  23:57:00     -217.737      -78.649       -4.200       77.796       64.432       44.074     6052.219     4151.531     1942.504        3.288        0.607      231.506       45.101        0.038      345.396       22.892      860.885
08/12/2014  23:58:00     -194.325      -19.311      -26.407       63.147       56.245       29.005     3987.499     3163.489      841.275        2.341        0.400      195.282       20.344        0.011      345.518       23.102      860.884
08/12/2014  23:59:00     -197.196      -12.725       -5.420       72.611       33.288       24.932     5272.406     1108.079      621.627        2.304        0.350      197.606       28.081        0.020      345.471       23.021      860.856
